Date StartTime U_cm/s V_cm/s W_cm/s Ustd_cm/s Vstd_cm/s Wstd_cm/s Uvar_(cm/s)^2 Vvar_(cm/s)^2 Wvar_(cm/s)^2 KE_(m/s)^2 TurbulentKE_(m/s)^2 HorizWindSpeed_cm/s FrictionSpeec_cm/s DragCoef SpeedOfSound_m/s SonicTemperature_C Pressure_mb 
12/26/2014  00:00:00     -101.228      -54.461       -0.905       25.633       19.923       18.277      657.073      396.936      334.038        0.730        0.069      114.948       16.072        0.020      331.829        0.099      862.418
12/26/2014  00:01:00      -83.574      -45.522        2.963       34.228       16.174       18.565     1171.536      261.599      344.651        0.542        0.089       95.168       20.453        0.046      331.892        0.199      862.405
12/26/2014  00:02:00      -73.780      -40.048        0.945       33.205       23.476       13.854     1102.566      551.125      191.943        0.445        0.092       83.949       15.761        0.035      331.884        0.187      862.391
12/26/2014  00:03:00     -109.788      -16.565       -9.328       20.898       30.126       17.802      436.706      907.580      316.921        0.704        0.083      111.031       12.945        0.014      331.817        0.077      862.367
12/26/2014  00:04:00      -72.819      -28.679       -2.502       34.215       25.180       17.599     1170.654      634.014      309.715        0.412        0.106       78.263       20.251        0.067      331.786        0.026      862.349
12/26/2014  00:05:00     -112.328       -5.048      -10.439       25.807       14.708       14.891      666.025      216.324      221.744        0.693        0.055      112.441       11.688        0.011      331.802        0.053      862.326
12/26/2014  00:06:00      -92.999       -0.722       -7.492       21.749       25.478       14.226      473.006      649.121      202.390        0.501        0.066       93.002       10.150        0.012      331.803        0.054      862.304
12/26/2014  00:07:00      -60.974      -43.192       -2.833       22.526       23.543       16.366      507.410      554.262      267.846        0.346        0.066       74.722       11.763        0.025      331.817        0.076      862.281
12/26/2014  00:08:00      -82.800       -8.070      -11.592       27.424       20.760       10.334      752.081      430.991      106.801        0.417        0.064       83.192        7.637        0.008      331.802        0.052      862.265
12/26/2014  00:09:00      -92.361        0.211      -12.564       18.124       20.296       12.051      328.492      411.946      145.236        0.479        0.044       92.362        9.250        0.010      331.806        0.060      862.265
12/26/2014  00:10:00      -95.389       -7.551      -15.622       20.753       13.338       12.360      430.679      177.914      152.772        0.508        0.038       95.688       11.425        0.014      331.790        0.029      862.269
12/26/2014  00:11:00     -116.870        8.266      -11.317       35.670       13.516       17.089     1272.318      182.670      292.023        0.780        0.087      117.162       15.268        0.017      331.769       -0.005      862.277
12/26/2014  00:12:00      -74.035      -24.591       -1.380       23.527       26.397       13.776      553.539      696.824      189.781        0.376        0.072       78.012       10.522        0.018      331.733       -0.063      862.282
12/26/2014  00:13:00      -62.036      -15.987       -4.124       17.688       22.223       16.351      312.871      493.856      267.363        0.260        0.054       64.063       13.307        0.043      331.761       -0.016      862.289
12/26/2014  00:14:00      -62.985      -17.628       -8.728       14.367       11.623       10.628      206.400      135.099      112.960        0.240        0.023       65.405        6.119        0.009      331.731       -0.064      862.299
12/26/2014  00:15:00      -17.812      -21.701       -2.734       15.975       12.017       10.686      255.208      144.417      114.181        0.065        0.026       28.075        8.388        0.089      331.773        0.003      862.300
12/26/2014  00:16:00      -35.742      -17.899       -2.712       32.451       13.336       11.155     1053.068      177.860      124.437        0.148        0.068       39.973       14.970        0.140      331.804        0.051      862.306
12/26/2014  00:17:00      -66.596      -17.843       -7.256       14.263       14.108       10.784      203.433      199.050      116.302        0.266        0.026       68.944        9.447        0.019      331.793        0.036      862.321
12/26/2014  00:18:00      -24.670      -32.287        5.957       35.350       32.667       25.760     1249.613     1067.144      663.581        0.233        0.149       40.633       28.491        0.492      331.818        0.078      862.332
12/26/2014  00:19:00      -34.165      -16.875       -7.700       26.973       14.408       16.069      727.532      207.591      258.221        0.135        0.060       38.106       12.708        0.111      331.793        0.037      862.339
12/26/2014  00:20:00      -40.919      -22.175       -4.235       27.935       13.593       10.311      780.372      184.771      106.313        0.163        0.054       46.542        8.998        0.037      331.791        0.032      862.344
12/26/2014  00:21:00      -52.283      -26.624       -1.492       22.505       16.006       12.264      506.470      256.178      150.402        0.218        0.046       58.671       10.156        0.030      331.828        0.095      862.346
12/26/2014  00:22:00      -38.584      -15.391       -1.618       20.856        9.694       12.106      434.961       93.971      146.545        0.120        0.034       41.541        8.632        0.043      331.809        0.063      862.364
12/26/2014  00:23:00      -61.533      -31.576       -1.978       14.926       16.703       14.322      222.783      278.998      205.127        0.275        0.035       69.162        7.440        0.012      331.823        0.088      862.367
12/26/2014  00:24:00      -66.513        7.952       -6.066        7.667       14.777        9.488       58.787      218.349       90.029        0.245        0.018       66.987        5.513        0.007      331.791        0.032      862.364
12/26/2014  00:25:00      -63.862        8.769      -12.315        7.914       15.214        8.474       62.626      231.466       71.816        0.234        0.018       64.461        4.177        0.004      331.822        0.085      862.355
12/26/2014  00:26:00      -50.497      -15.440       -8.449       15.903        7.261        5.868      252.906       52.723       34.428        0.160        0.017       52.805        4.653        0.008      331.825        0.090      862.346
12/26/2014  00:27:00      -80.266        1.471      -10.216       10.007       13.177        8.864      100.142      173.632       78.567        0.345        0.018       80.279        4.179        0.003      331.839        0.114      862.335
12/26/2014  00:28:00      -81.573      -12.687       -4.897       16.940       15.063        8.945      286.960      226.905       80.017        0.372        0.030       82.553        9.949        0.015      331.835        0.107      862.318
12/26/2014  00:29:00      -92.299       -7.435      -12.198       13.934       10.585       13.418      194.167      112.032      180.049        0.460        0.024       92.598        8.354        0.008      331.869        0.164      862.302
12/26/2014  00:30:00      -44.196       -2.474      -15.455       11.889       17.908       10.067      141.349      320.679      101.338        0.138        0.028       44.265        8.278        0.035      331.941        0.279      862.295
12/26/2014  00:31:00      -12.199      -33.160       -0.270       22.605       14.283       11.563      511.008      203.994      133.708        0.105        0.042       35.332       11.297        0.102      331.938        0.276      862.294
12/26/2014  00:32:00      -66.445      -42.464        4.990       60.881       27.224       19.963     3706.544      741.121      398.502        0.554        0.242       78.855       29.044        0.136      331.913        0.233      862.296
12/26/2014  00:33:00      -98.293      -44.303        1.318       43.950       27.227       19.003     1931.603      741.305      361.105        0.733        0.152      107.817       19.652        0.033      331.902        0.215      862.311
12/26/2014  00:34:00     -142.643      -27.151       -6.801       28.588       25.260       13.454      817.301      638.065      181.015        1.138        0.082      145.204       15.022        0.011      331.864        0.154      862.314
12/26/2014  00:35:00     -127.640      -11.468      -12.647       23.551       27.064       15.537      554.647      732.461      241.408        0.906        0.076      128.154       10.603        0.007      331.854        0.139      862.322
12/26/2014  00:36:00     -132.663       -7.285      -16.484       21.002       17.729       15.712      441.084      314.302      246.870        0.946        0.050      132.863       11.295        0.007      331.839        0.114      862.321
12/26/2014  00:37:00     -111.761      -28.049      -12.035       24.568       21.911       11.643      603.596      480.104      135.552        0.732        0.061      115.227        4.147        0.001      331.828        0.095      862.327
12/26/2014  00:38:00     -108.297       -7.310      -15.338       25.074       18.101       14.249      628.682      327.630      203.043        0.659        0.058      108.543       10.602        0.010      331.786        0.026      862.330
12/26/2014  00:39:00     -123.472        0.012      -15.310       31.265       17.662       14.799      977.531      311.958      219.009        0.849        0.075      123.472        9.863        0.006      331.722       -0.080      862.341
12/26/2014  00:40:00     -109.317      -17.363      -16.670       23.114       17.966       12.568      534.262      322.780      157.956        0.677        0.051      110.688       10.001        0.008      331.778        0.013      862.347
12/26/2014  00:41:00      -81.398        0.010      -15.533       24.068       18.371       13.771      579.280      337.478      189.651        0.399        0.055       81.398       12.260        0.023      331.806        0.057      862.344
12/26/2014  00:42:00      -56.996      -18.204       -4.081       19.616       23.859       15.314      384.800      569.263      234.525        0.239        0.059       59.833        7.810        0.017      331.810        0.066      862.330
12/26/2014  00:43:00      -62.808        3.228       -5.110       19.628       16.169       13.672      385.250      261.437      186.925        0.241        0.042       62.891       12.417        0.039      331.788        0.028      862.333
12/26/2014  00:44:00      -74.404        6.401       -4.890       19.161       15.871       14.854      367.141      251.900      220.627        0.322        0.042       74.679       12.396        0.028      331.806        0.058      862.337
12/26/2014  00:45:00      -64.335        9.367       -9.283       19.989       12.884        8.239      399.565      165.993       67.886        0.247        0.032       65.013        6.938        0.011      331.833        0.103      862.347
12/26/2014  00:46:00      -66.261       26.631      -13.872       22.115       22.952       15.951      489.090      526.781      254.446        0.328        0.064       71.412       15.108        0.045      331.923        0.251      862.348
12/26/2014  00:47:00      -14.607       54.387      -13.020       35.113       25.087       14.046     1232.909      629.338      197.282        0.270        0.103       56.315        9.918        0.031      331.930        0.263      862.361
12/26/2014  00:48:00       -0.423      132.985      -20.563       20.812       18.943       10.422      433.138      358.836      108.615        0.950        0.045      132.985        5.957        0.002      331.893        0.202      862.375
12/26/2014  00:49:00       18.615      105.396      -21.247       18.306       15.029       12.839      335.124      225.867      164.842        0.632        0.036      107.027        8.809        0.007      331.807        0.060      862.394
12/26/2014  00:50:00       25.204       96.081      -15.056       26.173       34.178       19.271      685.026     1168.128      371.370        0.616        0.111       99.332       18.604        0.035      331.742       -0.048      862.409
12/26/2014  00:51:00       30.720       84.976      -12.040       26.706       30.299       18.082      713.201      918.033      326.943        0.513        0.098       90.358       18.799        0.043      331.747       -0.038      862.413
12/26/2014  00:52:00        8.512       78.629      -10.718       17.511       26.527       16.659      306.623      703.687      277.506        0.383        0.064       79.088       10.723        0.018      331.712       -0.096      862.419
12/26/2014  00:53:00       12.554       71.487      -11.432       11.387       21.332       11.225      129.665      455.065      126.008        0.305        0.036       72.581       12.225        0.028      331.708       -0.100      862.422
12/26/2014  00:54:00        6.654       55.707       -9.862        6.596        9.910        6.558       43.505       98.214       43.004        0.171        0.009       56.103        2.273        0.002      331.676       -0.154      862.428
12/26/2014  00:55:00       10.023      105.938      -17.693       21.295       19.979       13.025      453.476      399.167      169.659        0.633        0.051      106.411       11.425        0.012      331.633       -0.226      862.443
12/26/2014  00:56:00      -37.064       62.358       -5.175       25.267       37.667       17.253      638.406     1418.810      297.679        0.382        0.118       72.542       14.977        0.043      331.791        0.034      862.452
12/26/2014  00:57:00      -60.641       45.602      -12.230       17.212       23.087       17.659      296.237      533.031      311.844        0.352        0.057       75.873       12.610        0.028      331.776        0.009      862.448
12/26/2014  00:58:00      -59.130       55.320       -9.974       26.966       40.887       21.066      727.157     1671.745      443.788        0.475        0.142       80.973       18.288        0.051      331.764       -0.010      862.448
12/26/2014  00:59:00      -85.229      -15.563       -2.498       23.409       23.581       15.169      547.996      556.058      230.099        0.442        0.067       86.639       11.615        0.018      331.674       -0.156      862.450
12/26/2014  01:00:00     -120.009      -19.361       -7.914       22.647       31.920       16.188      512.881     1018.891      262.065        0.832        0.090      121.561       11.211        0.009      331.558       -0.350      862.448
12/26/2014  01:01:00     -114.869      -20.541       -8.700       29.974       42.275       19.591      898.453     1787.212      383.797        0.838        0.153      116.691       12.848        0.012      331.477       -0.484      862.444
12/26/2014  01:02:00     -105.159      -32.990      -11.074       39.855       21.433       18.059     1588.424      459.363      326.121        0.732        0.119      110.212       10.604        0.009      331.452       -0.524      862.439
12/26/2014  01:03:00      -70.746      -12.212       -6.236       29.923       20.167       19.157      895.399      406.712      367.009        0.343        0.083       71.792       12.345        0.030      331.498       -0.450      862.439
12/26/2014  01:04:00      -40.146       -5.374      -11.263       43.900       27.036       16.326     1927.170      730.939      266.522        0.235        0.146       40.504       10.507        0.067      331.466       -0.503      862.439
12/26/2014  01:05:00      -30.357       -4.740       -7.566       12.101       11.822        9.858      146.433      139.770       97.186        0.069        0.019       30.724        7.387        0.058      331.467       -0.500      862.437
12/26/2014  01:06:00      -16.804       -4.502        2.936       15.668       15.383       13.828      245.487      236.647      191.203        0.049        0.034       17.396        9.986        0.330      331.509       -0.431      862.422
12/26/2014  01:07:00      -51.737      -16.465       -2.564       23.169       18.440       13.312      536.792      340.037      177.202        0.200        0.053       54.294       10.132        0.035      331.574       -0.326      862.416
12/26/2014  01:08:00      -67.226       58.366      -13.146       33.449       45.987       25.431     1118.854     2114.813      646.740        0.599        0.194       89.028       23.158        0.068      331.576       -0.318      862.401
12/26/2014  01:09:00      -88.581      100.198      -28.730       41.491       31.480       19.308     1721.504      990.992      372.789        1.090        0.154      133.740       23.819        0.032      331.593       -0.293      862.396
12/26/2014  01:10:00      -44.573       16.240       -3.969       17.259       17.942       11.234      297.869      321.933      126.213        0.151        0.037       47.440        4.068        0.007      331.639       -0.215      862.405
12/26/2014  01:11:00      -52.511        6.375        2.710       32.535       30.785       23.333     1058.509      947.694      544.410        0.268        0.128       52.897       22.909        0.188      331.608       -0.266      862.411
12/26/2014  01:12:00      -36.852        9.566       -1.774       34.474       26.822       17.137     1188.429      719.406      293.684        0.183        0.110       38.073       18.329        0.232      331.597       -0.285      862.418
12/26/2014  01:13:00      -51.149       50.111      -15.030       34.854       47.844       20.957     1214.820     2289.001      439.180        0.465        0.197       71.606       20.995        0.086      331.588       -0.299      862.437
12/26/2014  01:14:00      -65.489       84.670       -8.009       32.625       45.487       24.727     1064.392     2069.081      611.408        0.763        0.187      107.041       20.824        0.038      331.541       -0.376      862.439
12/26/2014  01:15:00      -14.725       40.285        3.404       24.509       29.905       17.134      600.701      894.321      293.584        0.182        0.089       42.892       14.663        0.117      331.531       -0.396      862.438
12/26/2014  01:16:00      -31.788       86.584      -13.379       25.319       45.863       17.683      641.040     2103.375      312.697        0.587        0.153       92.235       14.691        0.025      331.558       -0.348      862.438
12/26/2014  01:17:00        0.668       79.041        5.389       31.257       70.665       31.205      976.978     4993.582      973.756        0.661        0.347       79.044       32.289        0.167      331.503       -0.442      862.447
12/26/2014  01:18:00      -34.454       35.930       -0.792       38.876       40.373       28.628     1511.320     1629.962      819.563        0.322        0.198       49.780       28.934        0.338      331.569       -0.332      862.455
12/26/2014  01:19:00      -55.158       22.828       -9.697       48.604       20.512       18.031     2362.319      420.753      325.119        0.338        0.155       59.695       17.206        0.083      331.574       -0.324      862.484
12/26/2014  01:20:00      -53.073       78.312      -20.485       46.503       45.235       18.496     2162.548     2046.244      342.112        0.696        0.228       94.602       19.069        0.041      331.591       -0.294      862.507
12/26/2014  01:21:00        5.735       28.924        5.927       19.633       21.433       15.661      385.437      459.381      245.251        0.100        0.055       29.488       11.760        0.159      331.547       -0.369      862.520
12/26/2014  01:22:00      -41.198       28.649        1.058       29.787       23.879       18.971      887.236      570.221      359.909        0.217        0.091       50.180       16.317        0.106      331.557       -0.351      862.529
12/26/2014  01:23:00      -39.673       -2.091       -1.483       23.973       26.535       11.859      574.709      704.127      140.638        0.150        0.071       39.729        8.954        0.051      331.520       -0.413      862.534
12/26/2014  01:24:00      -68.346      -15.575        2.479       40.469       16.031       15.831     1637.771      256.997      250.606        0.353        0.107       70.098       19.693        0.079      331.482       -0.475      862.548
12/26/2014  01:25:00      -83.279      -32.370       -7.286       30.841       21.746       19.581      951.162      472.878      383.425        0.492        0.090       89.349       18.855        0.045      331.437       -0.551      862.554
12/26/2014  01:26:00      -95.588      -41.181       -4.890       17.973       21.621       11.753      323.046      467.474      138.143        0.589        0.046      104.081        7.042        0.005      331.454       -0.521      862.570
12/26/2014  01:27:00      -42.263      -27.792        2.752       29.683       23.484       18.623      881.058      551.521      346.829        0.217        0.089       50.582       16.417        0.105      331.448       -0.530      862.588
12/26/2014  01:28:00      -52.250      -13.500       -6.086       20.866       18.874       13.740      435.374      356.244      188.783        0.196        0.049       53.966        9.553        0.031      331.450       -0.528      862.609
12/26/2014  01:29:00      -76.319        4.060       -4.641       18.545       19.566       11.370      343.914      382.833      129.269        0.336        0.043       76.427        9.204        0.015      331.457       -0.518      862.626
12/26/2014  01:30:00      -95.803      -16.196      -12.200       27.606       21.572       14.119      762.103      465.340      199.360        0.551        0.071       97.162       12.864        0.018      331.390       -0.625      862.660
12/26/2014  01:31:00      -64.514      -40.916        3.108       40.827       33.908       18.932     1666.842     1149.769      358.426        0.451        0.159       76.395       20.524        0.072      331.383       -0.637      862.675
12/26/2014  01:32:00     -122.735      -57.745       -8.220       32.390       30.982       22.170     1049.116      959.908      491.515        1.048        0.125      135.641       16.358        0.015      331.355       -0.683      862.687
12/26/2014  01:33:00      -86.119      -38.861        2.680       53.682       29.836       17.964     2881.753      890.176      322.711        0.651        0.205       94.481       23.704        0.063      331.337       -0.712      862.675
12/26/2014  01:34:00      -78.990      -59.145       -8.196       16.194       17.759       12.433      262.236      315.394      154.584        0.527        0.037       98.679        9.784        0.010      331.341       -0.706      862.667
12/26/2014  01:35:00      -54.681      -45.348       -0.677       49.096       46.556       18.850     2410.414     2167.473      355.307        0.499        0.247       71.038       25.438        0.128      331.356       -0.682      862.657
12/26/2014  01:36:00      -44.982       34.308       10.464       34.564       53.474       30.155     1194.651     2859.474      909.336        0.414        0.248       56.572       27.432        0.235      331.448       -0.530      862.660
12/26/2014  01:37:00      -20.810       -4.144       12.657       53.475       34.144       34.384     2859.575     1165.827     1182.270        0.291        0.260       21.219       37.123        3.061      331.528       -0.398      862.666
12/26/2014  01:38:00      -39.355       30.351      -19.731       63.500       40.536       26.150     4032.209     1643.200      683.806        0.461        0.318       49.699       28.091        0.319      331.627       -0.236      862.654
12/26/2014  01:39:00      -82.503       -9.181      -10.078       64.726       29.088       28.256     4189.455      846.121      798.408        0.641        0.292       83.013       38.991        0.221      331.574       -0.321      862.664
12/26/2014  01:40:00     -115.993      -57.233      -12.508       33.608       20.052       16.778     1129.495      402.090      281.507        0.935        0.091      129.345        5.697        0.002      331.444       -0.536      862.668
12/26/2014  01:41:00     -107.844      -45.521       -5.143       31.035       30.787       22.308      963.174      947.816      497.634        0.807        0.120      117.058       20.569        0.031      331.396       -0.615      862.682
12/26/2014  01:42:00      -97.892       -5.129       -6.443       48.426       35.731       27.182     2345.076     1276.726      738.851        0.700        0.218       98.026       21.383        0.048      331.430       -0.560      862.677
12/26/2014  01:43:00      -69.272      -17.566        0.656       31.792       24.023       22.088     1010.727      577.098      487.898        0.359        0.104       71.464       17.546        0.060      331.429       -0.561      862.664
12/26/2014  01:44:00      -52.635        1.233        7.147       33.311       30.714       21.915     1109.628      943.333      480.272        0.268        0.127       52.649       14.428        0.075      331.441       -0.542      862.645
12/26/2014  01:45:00      -53.493       12.153       -9.402       33.610       25.779       13.726     1129.645      664.550      188.415        0.254        0.099       54.857        8.729        0.025      331.469       -0.496      862.637
12/26/2014  01:46:00      -44.260       56.472      -10.972       36.784       43.185       19.514     1353.046     1864.908      380.796        0.443        0.180       71.750       14.442        0.041      331.446       -0.535      862.642
12/26/2014  01:47:00     -100.047       43.729      -15.319       33.833       37.746       23.272     1144.653     1424.749      541.608        0.763        0.156      109.186       17.035        0.024      331.422       -0.575      862.647
12/26/2014  01:48:00      -76.107        8.213      -14.018       28.835       24.591       13.473      831.456      604.738      181.518        0.384        0.081       76.548        8.696        0.013      331.413       -0.590      862.651
12/26/2014  01:49:00      -41.457      -21.048       -5.843       15.696       34.372       16.258      246.357     1181.448      264.335        0.194        0.085       46.494       13.006        0.078      331.402       -0.608      862.648
12/26/2014  01:50:00      -72.342      -32.129        8.180       31.719       22.991       17.253     1006.077      528.607      297.663        0.408        0.092       79.155       14.210        0.032      331.412       -0.591      862.646
12/26/2014  01:51:00      -40.912       -9.212        8.574       39.344       27.551       19.631     1547.956      759.074      385.381        0.226        0.135       41.936       20.630        0.242      331.330       -0.726      862.654
12/26/2014  01:52:00      -50.373      -12.831       -1.261       50.939       18.518       13.389     2594.810      342.899      179.257        0.291        0.156       51.981       20.837        0.161      331.320       -0.741      862.673
12/26/2014  01:53:00      -71.931      -14.000       -7.152       22.838       13.314       10.341      521.574      177.250      106.929        0.311        0.040       73.280       11.109        0.023      331.323       -0.735      862.685
12/26/2014  01:54:00      -80.102      -39.458      -14.889       27.411       30.506       18.813      751.359      930.595      353.940        0.512        0.102       89.293       14.031        0.025      331.352       -0.689      862.699
12/26/2014  01:55:00     -123.378      -44.938       -0.482       27.183       22.743       18.825      738.904      517.247      354.367        0.943        0.081      131.307       17.331        0.017      331.198       -0.940      862.725
12/26/2014  01:56:00      -92.039      -53.530        0.273       24.041       22.126       17.254      577.990      489.561      297.696        0.635        0.068      106.474       11.504        0.012      331.260       -0.839      862.748
12/26/2014  01:57:00      -69.021      -37.538        3.264       53.009       27.009       25.198     2809.918      729.499      634.930        0.518        0.209       78.569       25.080        0.102      331.242       -0.869      862.771
12/26/2014  01:58:00      -79.379      -35.407       -2.771       28.934       25.714       18.065      837.179      661.220      326.352        0.469        0.091       86.918       17.206        0.039      331.233       -0.884      862.803
12/26/2014  01:59:00      -77.230      -42.689        0.994       38.723       31.588       22.160     1499.480      997.816      491.061        0.539        0.149       88.243       19.410        0.048      331.170       -0.987      862.824
12/26/2014  02:00:00      -25.368      -21.468       11.652       33.413       27.952       17.229     1116.438      781.300      296.844        0.172        0.110       33.232        7.790        0.055      331.298       -0.776      862.848
12/26/2014  02:01:00      -32.690      -27.778        5.081       50.929       30.233       23.521     2593.805      914.040      553.257        0.296        0.203       42.898       15.848        0.136      331.207       -0.927      862.868
12/26/2014  02:02:00      -95.182      -28.349       -3.903       27.862       24.416       16.791      776.296      596.144      281.952        0.577        0.083       99.314       18.052        0.033      331.197       -0.944      862.888
12/26/2014  02:03:00      -64.544      -14.734       -7.143       26.569       31.350       17.900      705.910      982.802      320.417        0.322        0.100       66.204       12.239        0.034      331.165       -0.996      862.906
12/26/2014  02:04:00      -83.950      -43.359       -6.283       26.133       23.437       15.962      682.934      549.290      254.791        0.523        0.074       94.486       12.851        0.018      331.174       -0.981      862.929
12/26/2014  02:05:00      -58.625      -48.918       -0.544       27.995       19.428       14.388      783.728      377.461      207.003        0.360        0.068       76.354       10.135        0.018      331.238       -0.876      862.946
12/26/2014  02:06:00      -59.965      -23.590       -6.047       20.029       18.618        9.156      401.169      346.612       83.833        0.251        0.042       64.438        9.581        0.022      331.188       -0.961      862.956
12/26/2014  02:07:00      -39.173      -30.870        7.450       31.654       29.272       13.988     1001.945      856.877      195.666        0.230        0.103       49.874       18.328        0.135      331.125       -1.062      862.961
12/26/2014  02:08:00      -71.260        0.955       -4.688       33.518       20.729       14.539     1123.478      429.672      211.370        0.343        0.088       71.266       13.637        0.037      331.111       -1.084      862.974
12/26/2014  02:09:00     -120.418      -25.439      -18.840       21.257       18.527       13.976      451.846      343.233      195.332        0.825        0.050      123.076        8.678        0.005      331.082       -1.131      862.987
12/26/2014  02:10:00     -118.614      -36.569      -24.945       22.139       15.331       12.423      490.113      235.030      154.327        0.845        0.044      124.123        4.262        0.001      331.032       -1.215      863.001
12/26/2014  02:11:00      -57.474      -18.904        2.010       29.478       31.505       20.248      868.945      992.595      409.972        0.297        0.114       60.503       20.658        0.117      331.033       -1.213      863.011
12/26/2014  02:12:00     -111.702      -46.914      -14.706       23.720       25.668       18.139      562.623      658.827      329.039        0.822        0.078      121.154       11.658        0.009      331.026       -1.227      863.024
12/26/2014  02:13:00      -68.628      -38.178      -15.794       39.442       31.904       24.553     1555.677     1017.882      602.853        0.480        0.159       78.533       21.077        0.072      330.970       -1.316      863.041
12/26/2014  02:14:00      -74.606      -22.616        0.254       45.855       31.319       16.640     2102.659      980.891      276.902        0.472        0.168       77.958       11.969        0.024      330.876       -1.470      863.051
12/26/2014  02:15:00     -102.418      -17.009      -16.472       19.010       22.512       13.852      361.379      506.800      191.886        0.605        0.053      103.821        7.835        0.006      330.877       -1.466      863.082
12/26/2014  02:16:00      -52.375      -19.049       -6.635       45.007       28.692       21.977     2025.658      823.214      482.996        0.324        0.167       55.732       17.876        0.103      330.885       -1.453      863.102
12/26/2014  02:17:00      -73.514       14.712      -15.277       34.187       40.671       26.422     1168.771     1654.160      698.106        0.469        0.176       74.972       24.159        0.104      330.904       -1.423      863.125
12/26/2014  02:18:00      -76.581      -17.572        3.999       37.295       42.880       20.734     1390.917     1838.686      429.909        0.492        0.183       78.571       16.917        0.046      330.916       -1.402      863.146
12/26/2014  02:19:00      -86.306        4.830       -9.058       46.155       91.983       28.553     2130.294     8460.920      815.280        0.948        0.570       86.441       36.253        0.176      330.979       -1.301      863.159
12/26/2014  02:20:00     -102.788       83.297      -20.944       27.189       40.268       25.022      739.231     1621.487      626.117        1.046        0.149      132.301       19.687        0.022      330.972       -1.313      863.163
12/26/2014  02:21:00      -70.426       56.983      -10.582       23.362       36.311       16.623      545.801     1318.498      276.340        0.523        0.107       90.592       17.310        0.037      330.993       -1.278      863.160
12/26/2014  02:22:00      -74.386      101.824      -24.905       41.476       48.960       28.570     1720.247     2397.082      816.270        1.073        0.247      126.100       18.666        0.022      331.045       -1.193      863.159
12/26/2014  02:23:00      -89.158       99.728      -15.856       58.146       41.504       33.733     3380.993     1722.563     1137.939        1.219        0.312      133.771       32.136        0.058      331.143       -1.032      863.159
12/26/2014  02:24:00     -121.234      176.520      -32.657       36.896       71.216       33.387     1361.299     5071.652     1114.683        2.723        0.377      214.142       23.476        0.012      331.082       -1.134      863.161
12/26/2014  02:25:00     -100.457      126.770      -23.470       43.490       54.769       28.701     1891.408     2999.695      823.767        1.621        0.286      161.748       26.564        0.027      331.076       -1.142      863.163
12/26/2014  02:26:00     -128.694      123.160      -24.321       52.318       64.060       34.701     2737.207     4103.705     1204.190        2.018        0.402      178.131       35.540        0.040      331.090       -1.121      863.163
12/26/2014  02:27:00     -113.785      142.892      -22.665       58.139       64.828       42.483     3380.194     4202.610     1804.830        2.163        0.469      182.661       35.001        0.037      331.067       -1.159      863.172
12/26/2014  02:28:00     -147.460      172.534      -41.121       45.584       56.087       35.126     2077.888     3145.756     1233.849        2.983        0.323      226.964       31.539        0.019      331.071       -1.153      863.189
12/26/2014  02:29:00     -151.627      114.477      -25.778       57.225       46.522       31.509     3274.672     2164.329      992.791        2.159        0.322      189.989       26.878        0.020      331.103       -1.098      863.199
12/26/2014  02:30:00     -108.458      136.547      -29.530       57.888       49.696       36.872     3351.021     2469.713     1359.529        1.923        0.359      174.379       27.121        0.024      331.065       -1.161      863.209
12/26/2014  02:31:00      -98.667       94.213      -14.614       48.762       63.004       36.973     2377.764     3969.512     1366.969        1.327        0.386      136.423       35.770        0.069      331.074       -1.147      863.214
12/26/2014  02:32:00     -102.882      182.086      -25.847       69.971       65.765       41.133     4895.982     4325.024     1691.937        2.766        0.546      209.141       39.756        0.036      331.039       -1.206      863.227
12/26/2014  02:33:00     -124.884      128.717      -33.401       59.932       73.424       33.882     3591.855     5391.128     1148.011        2.170        0.507      179.343       37.010        0.043      331.033       -1.214      863.220
12/26/2014  02:34:00      -93.413      145.390      -17.303       60.933       73.074       36.166     3712.891     5339.881     1307.953        2.026        0.518      172.813       31.824        0.034      331.059       -1.173      863.201
12/26/2014  02:35:00      -95.800      125.028      -11.678       44.512       60.718       40.783     1981.347     3686.623     1663.257        1.614        0.367      157.511       36.805        0.055      331.020       -1.236      863.194
12/26/2014  02:36:00      -68.545      141.639       -7.740       49.693       68.461       41.223     2469.439     4686.925     1699.329        1.684        0.443      157.353       29.837        0.036      331.062       -1.166      863.181
12/26/2014  02:37:00     -103.695      153.797      -26.488       50.241       83.343       29.818     2524.147     6945.976      889.097        2.273        0.518      185.489       35.988        0.038      330.990       -1.286      863.188
12/26/2014  02:38:00     -153.803      180.065      -30.269       64.295       74.240       39.367     4133.875     5511.504     1549.786        3.409        0.560      236.810       40.037        0.029      330.984       -1.297      863.217
12/26/2014  02:39:00     -148.613      218.377      -46.049       74.750       94.422       47.626     5587.524     8915.468     2268.254        4.433        0.839      264.148       44.062        0.028      330.984       -1.294      863.238
12/26/2014  02:40:00     -122.260      109.784      -15.520       70.069       54.179       32.257     4909.599     2935.352     1040.507        1.806        0.444      164.317       22.677        0.019      330.962       -1.329      863.241
12/26/2014  02:41:00     -157.210      169.815      -37.402       76.787       69.990       42.122     5896.311     4898.539     1774.299        3.376        0.628      231.414       39.710        0.029      331.012       -1.250      863.277
12/26/2014  02:42:00     -167.215      178.214      -39.015       82.876       61.712       51.963     6868.419     3808.341     2700.167        3.731        0.669      244.379       55.375        0.051      330.963       -1.330      863.304
12/26/2014  02:43:00     -149.500      204.199      -44.175      106.329       97.649       64.162    11305.757     9535.283     4116.718        4.547        1.248      253.076       68.730        0.074      330.937       -1.372      863.327
12/26/2014  02:44:00     -171.867      231.791      -37.811       68.596       89.311       51.171     4705.478     7976.432     2618.491        4.999        0.765      288.557       47.408        0.027      330.947       -1.356      863.362
12/26/2014  02:45:00     -168.291      222.462      -42.762       79.819       74.414       60.793     6371.099     5537.391     3695.757        4.762        0.780      278.947       58.500        0.044      330.958       -1.339      863.382
12/26/2014  02:46:00     -174.690      179.544      -37.825       75.457       80.464       52.078     5693.755     6474.534     2712.165        3.953        0.744      250.505       46.295        0.034      330.930       -1.384      863.414
12/26/2014  02:47:00     -153.669      209.584      -37.964       80.028       98.100       44.219     6404.446     9623.650     1955.329        4.348        0.899      259.884       48.733        0.035      330.969       -1.319      863.442
12/26/2014  02:48:00     -150.954      170.166      -26.208       77.496      101.234       43.667     6005.565    10248.300     1906.766        3.529        0.908      227.472       33.785        0.022      330.979       -1.304      863.466
12/26/2014  02:49:00     -152.077      275.930      -36.807       95.941      102.829       57.158     9204.704    10573.754     3267.030        6.183        1.152      315.063       60.465        0.037      331.001       -1.270      863.464
12/26/2014  02:50:00     -179.260      221.470      -51.579       94.407      117.283       49.770     8912.714    13755.280     2477.100        5.449        1.257      284.926       51.258        0.032      330.963       -1.329      863.467
12/26/2014  02:51:00     -166.172      236.167      -42.682       76.280       95.047       48.678     5818.714     9033.948     2369.536        5.121        0.861      288.770       40.464        0.020      330.966       -1.327      863.468
12/26/2014  02:52:00     -173.296      213.305      -41.426       73.110       92.834       55.776     5345.111     8618.193     3110.949        4.716        0.854      274.828       58.145        0.045      330.962       -1.332      863.480
12/26/2014  02:53:00     -101.181      154.787      -25.762       64.646       75.585       41.642     4179.047     5713.166     1734.079        2.324        0.581      184.924       45.034        0.059      331.005       -1.261      863.486
12/26/2014  02:54:00     -151.680      180.893      -37.119       71.035       82.666       48.530     5045.996     6833.606     2355.165        3.567        0.712      236.070       50.541        0.046      330.970       -1.318      863.495
12/26/2014  02:55:00     -135.833      207.436      -29.559       72.096       80.502       53.560     5197.820     6480.534     2868.628        3.845        0.727      247.952       42.324        0.029      330.984       -1.296      863.532
12/26/2014  02:56:00     -100.901      155.108      -20.843       75.111       94.531       54.743     5641.620     8936.138     2996.833        2.612        0.879      185.039       53.931        0.085      330.982       -1.297      863.570
12/26/2014  02:57:00     -144.109      180.166      -30.847      131.666       97.078       63.279    17336.048     9424.164     4004.259        4.247        1.538      230.710       67.096        0.085      331.012       -1.250      863.608
12/26/2014  02:58:00     -116.968      172.798      -21.701       83.433      103.847       53.515     6961.048    10784.155     2863.838        3.231        1.030      208.663       40.003        0.037      330.971       -1.317      863.612
12/26/2014  02:59:00     -179.632      203.944      -41.070       93.291      140.240       56.476     8703.259    19667.214     3189.526        5.355        1.578      271.773       67.426        0.062      330.946       -1.358      863.613
12/26/2014  03:00:00     -158.049      234.173      -41.977       81.862       87.388       40.925     6701.430     7636.647     1674.828        4.879        0.801      282.518       38.224        0.018      330.930       -1.386      863.591
12/26/2014  03:01:00     -136.490      205.371      -29.529       60.473       80.754       44.805     3657.041     6521.144     2007.491        3.693        0.609      246.590       37.117        0.023      330.949       -1.354      863.580
12/26/2014  03:02:00     -153.339      145.535      -36.393      106.540       92.215       43.759    11350.755     8503.611     1914.866        3.389        1.088      211.408       58.677        0.077      330.957       -1.338      863.565
12/26/2014  03:03:00     -156.206      172.856      -37.154       80.742       99.809       44.306     6519.295     9961.826     1963.039        3.705        0.922      232.979       53.503        0.053      330.947       -1.357      863.569
12/26/2014  03:04:00     -134.700      196.812      -36.439       74.694       72.402       49.617     5579.225     5242.010     2461.893        3.574        0.664      238.493       47.506        0.040      330.931       -1.384      863.564
12/26/2014  03:05:00     -131.387      233.957      -32.492       62.195       72.172       45.226     3868.170     5208.859     2045.436        4.209        0.556      268.325       37.808        0.020      330.900       -1.435      863.568
12/26/2014  03:06:00     -133.242      190.617      -33.651       63.382       76.955       37.593     4017.249     5922.050     1413.202        3.328        0.568      232.569       34.034        0.021      330.932       -1.381      863.559
12/26/2014  03:07:00     -140.412      210.192      -41.710       52.376       81.709       41.217     2743.288     6676.358     1698.806        3.838        0.556      252.778       38.769        0.024      330.905       -1.425      863.554
12/26/2014  03:08:00     -161.568      196.855      -42.884       69.963       73.329       41.227     4894.775     5377.106     1699.696        3.933        0.599      254.669       36.813        0.021      330.892       -1.449      863.561
12/26/2014  03:09:00     -190.209      233.921      -46.624       88.599       82.942       52.479     7849.715     6879.434     2754.022        5.527        0.874      301.494       53.155        0.031      330.874       -1.477      863.565
12/26/2014  03:10:00     -178.202      192.476      -49.851       64.410       83.286       38.338     4148.708     6936.501     1469.778        4.192        0.628      262.303       37.826        0.021      330.892       -1.445      863.579
12/26/2014  03:11:00     -150.215      193.256      -29.062       65.341       89.691       50.005     4269.404     8044.399     2500.538        3.778        0.741      244.770       37.073        0.023      330.897       -1.439      863.580
12/26/2014  03:12:00     -139.473      164.315      -31.380       49.864       80.030       40.007     2486.466     6404.794     1600.588        2.896        0.525      215.528       32.859        0.023      330.916       -1.407      863.592
12/26/2014  03:13:00     -117.028      186.365      -26.960       47.844       93.148       39.409     2289.061     8676.592     1553.048        3.083        0.626      220.062       34.373        0.024      330.902       -1.430      863.598
12/26/2014  03:14:00     -144.059      136.648      -27.403       72.308       79.022       45.354     5228.413     6244.406     2057.021        2.685        0.676      198.559       40.537        0.042      330.863       -1.495      863.596
12/26/2014  03:15:00     -132.451      181.871      -31.058       51.423       62.218       38.967     2644.350     3871.072     1518.418        2.981        0.402      224.990       32.594        0.021      330.865       -1.492      863.585
12/26/2014  03:16:00     -122.318      150.329      -26.957       56.007       76.773       41.062     3136.823     5894.077     1686.084        2.450        0.536      193.805       38.366        0.039      330.872       -1.479      863.565
12/26/2014  03:17:00     -158.880      152.889      -39.939       65.167       62.137       35.200     4246.746     3860.997     1239.036        2.978        0.467      220.494       32.126        0.021      330.829       -1.551      863.549
12/26/2014  03:18:00     -124.878      186.914      -30.956       71.631       87.356       44.711     5131.016     7631.007     1999.112        3.312        0.738      224.792       43.081        0.037      330.822       -1.563      863.549
12/26/2014  03:19:00     -134.182      128.703      -24.368       65.534       66.707       41.746     4294.696     4449.806     1742.722        2.282        0.524      185.928       36.391        0.038      330.806       -1.586      863.553
12/26/2014  03:20:00     -158.584      193.891      -39.459       60.313       75.917       42.810     3637.634     5763.322     1832.680        3.776        0.562      250.485       37.540        0.022      330.786       -1.622      863.550
12/26/2014  03:21:00     -144.065      150.091      -18.821       76.832      109.851       53.395     5903.217    12067.242     2851.050        3.222        1.041      208.043       44.134        0.045      330.809       -1.583      863.543
12/26/2014  03:22:00     -152.771      164.880      -33.053       61.914      106.031       48.702     3833.348    11242.548     2371.911        3.453        0.872      224.776       47.762        0.045      330.753       -1.675      863.534
12/26/2014  03:23:00     -128.463      170.826      -37.915       79.051       55.641       42.643     6249.058     3095.953     1818.385        2.914        0.558      213.739       40.464        0.036      330.792       -1.611      863.506
12/26/2014  03:24:00     -130.910      115.318      -19.373       80.428       64.055       45.540     6468.679     4103.040     2073.902        2.173        0.632      174.458       41.285        0.056      330.741       -1.694      863.485
12/26/2014  03:25:00     -141.275      112.678      -27.828       72.040       70.365       39.884     5189.821     4951.184     1590.747        2.258        0.587      180.707       28.617        0.025      330.746       -1.686      863.470
12/26/2014  03:26:00     -116.795       81.717      -13.541       78.326       81.507       49.543     6134.968     6643.390     2454.520        1.786        0.762      142.544       48.980        0.118      330.722       -1.727      863.450
12/26/2014  03:27:00     -111.864      103.478      -22.450       62.642       73.798       36.533     3923.972     5446.196     1334.689        1.721        0.535      152.386       31.620        0.043      330.776       -1.637      863.429
12/26/2014  03:28:00     -120.905      109.361      -13.866       89.552       95.710       42.097     8019.506     9160.378     1772.132        2.286        0.948      163.027       44.434        0.074      330.721       -1.725      863.429
12/26/2014  03:29:00     -122.007      114.158      -15.955       67.178       83.479       43.386     4512.821     6968.661     1882.373        2.077        0.668      167.086       45.291        0.073      330.677       -1.798      863.422
12/26/2014  03:30:00     -125.582      136.307      -31.590       68.788       90.969       42.403     4731.789     8275.439     1798.039        2.507        0.740      185.339       40.798        0.048      330.712       -1.743      863.402
12/26/2014  03:31:00      -96.900      125.174      -18.349       54.478       54.308       35.619     2967.809     2949.405     1268.726        1.629        0.359      158.297       33.953        0.046      330.671       -1.807      863.386
12/26/2014  03:32:00     -107.444      140.240      -24.479       54.279       56.622       36.063     2946.236     3206.015     1300.560        1.963        0.373      176.667       33.398        0.036      330.684       -1.786      863.385
12/26/2014  03:33:00     -153.965      105.203      -22.752       61.593       93.311       36.478     3793.642     8706.946     1330.633        2.456        0.692      186.475       37.827        0.041      330.665       -1.819      863.415
12/26/2014  03:34:00     -140.496      198.568      -39.590       56.878       78.106       43.349     3235.070     6100.610     1879.105        3.597        0.561      243.245       37.201        0.023      330.641       -1.860      863.433
12/26/2014  03:35:00     -158.257      213.359      -29.868       65.613       88.363       53.025     4305.027     7808.081     2811.631        4.319        0.746      265.645       47.958        0.033      330.627       -1.882      863.440
12/26/2014  03:36:00     -120.309      134.280      -18.475       63.852       96.973       43.056     4077.044     9403.726     1853.777        2.409        0.767      180.293       42.294        0.055      330.639       -1.862      863.437
12/26/2014  03:37:00     -197.339      153.562      -35.609       71.320       83.557       41.000     5086.589     6981.781     1680.971        3.877        0.687      250.048       37.079        0.022      330.640       -1.862      863.450
12/26/2014  03:38:00     -147.808      185.039      -34.572       69.927       84.622       41.930     4889.841     7160.952     1758.140        3.554        0.690      236.827       39.466        0.028      330.593       -1.939      863.472
12/26/2014  03:39:00     -179.379      170.580      -36.221       69.993       93.967       50.052     4899.002     8829.787     2505.219        3.941        0.812      247.537       51.253        0.043      330.628       -1.881      863.495
12/26/2014  03:40:00     -127.436      164.955       -9.210       77.257       97.845       60.534     5968.605     9573.626     3664.368        3.137        0.960      208.446       50.826        0.059      330.616       -1.899      863.507
12/26/2014  03:41:00     -164.896      190.086      -39.814       76.870       65.174       54.274     5908.967     4247.611     2945.651        3.900        0.655      251.641       49.675        0.039      330.627       -1.883      863.518
12/26/2014  03:42:00     -167.882      177.729      -41.072       65.999       52.220       37.893     4355.813     2726.969     1435.894        3.499        0.426      244.483       32.080        0.017      330.614       -1.903      863.519
12/26/2014  03:43:00     -108.129      187.556      -24.655       62.174      129.838       43.008     3865.668    16857.823     1849.675        3.502        1.129      216.493       50.184        0.054      330.657       -1.831      863.510
12/26/2014  03:44:00     -137.116      149.122      -27.029       54.422       72.969       37.358     2961.736     5324.426     1395.639        2.572        0.484      202.579       37.058        0.033      330.600       -1.926      863.489
12/26/2014  03:45:00     -154.055      193.209      -43.255       81.595       86.570       46.843     6657.717     7494.352     2194.279        3.964        0.817      247.109       52.748        0.046      330.597       -1.931      863.476
12/26/2014  03:46:00     -170.437      219.934      -37.498       75.168       94.358       49.796     5650.200     8903.467     2479.632        4.793        0.852      278.244       53.243        0.037      330.576       -1.966      863.455
12/26/2014  03:47:00     -115.736      158.818      -27.452       51.430       61.983       36.846     2645.057     3841.909     1357.608        2.361        0.392      196.514       28.300        0.021      330.550       -2.007      863.440
12/26/2014  03:48:00      -91.170      153.202      -20.742       56.745       53.907       38.131     3220.042     2905.989     1453.945        1.989        0.379      178.277       33.252        0.035      330.656       -1.833      863.423
12/26/2014  03:49:00     -118.686      110.188      -24.894       60.776       54.570       35.211     3693.779     2977.938     1239.816        1.738        0.396      161.950       34.511        0.045      330.611       -1.906      863.420
12/26/2014  03:50:00      -91.712      126.683      -24.925       49.561       49.670       31.050     2456.337     2467.087      964.115        1.548        0.294      156.396       32.203        0.042      330.554       -1.999      863.397
12/26/2014  03:51:00      -92.479      140.170      -23.682       42.806       83.138       38.174     1832.317     6911.984     1457.289        1.948        0.510      167.928       35.024        0.043      330.557       -1.995      863.383
12/26/2014  03:52:00     -143.588      184.438      -36.942       51.950       61.812       37.477     2698.788     3820.737     1404.562        3.196        0.396      233.741       33.384        0.020      330.543       -2.021      863.381
12/26/2014  03:53:00     -111.925      168.684      -29.624       45.950       68.367       36.700     2111.430     4674.103     1346.873        2.499        0.407      202.439       28.631        0.020      330.527       -2.045      863.379
12/26/2014  03:54:00     -139.189      175.189      -32.152       54.964       84.405       43.182     3021.040     7124.151     1864.698        3.155        0.600      223.751       44.343        0.039      330.520       -2.057      863.378
12/26/2014  03:55:00     -139.922      191.514      -36.161       59.365       58.319       39.627     3524.231     3401.078     1570.260        3.303        0.425      237.183       36.604        0.024      330.511       -2.073      863.381
12/26/2014  03:56:00     -101.990      133.640      -23.976       45.494       62.383       33.185     2069.674     3891.606     1101.258        1.795        0.353      168.112       18.638        0.012      330.535       -2.031      863.381
12/26/2014  03:57:00     -162.088      159.380      -31.348       63.140       76.224       36.889     3986.646     5810.099     1360.774        3.191        0.558      227.320       39.261        0.030      330.533       -2.037      863.368
12/26/2014  03:58:00     -151.547      174.525      -41.882       73.128       78.629       41.539     5347.633     6182.545     1725.521        3.422        0.663      231.140       49.402        0.046      330.515       -2.066      863.352
12/26/2014  03:59:00     -146.153      175.814      -28.434       57.263       89.576       42.850     3279.018     8023.836     1836.161        3.311        0.657      228.629       34.971        0.023      330.523       -2.052      863.330
12/26/2014  04:00:00     -107.343      195.036      -18.713       62.050       80.909       47.470     3850.249     6546.221     2253.414        3.128        0.632      222.624       45.266        0.041      330.521       -2.056      863.341
12/26/2014  04:01:00      -99.613      162.866      -30.011       40.204       53.788       29.514     1616.372     2893.179      871.069        2.136        0.269      190.914       28.526        0.022      330.692       -1.774      863.353
12/26/2014  04:02:00      -79.126      158.125      -22.887       52.357       55.633       36.577     2741.297     3095.006     1337.891        1.948        0.359      176.817       33.572        0.036      330.550       -2.007      863.359
12/26/2014  04:03:00      -59.009      154.599      -10.688       60.992       65.616       35.504     3720.082     4305.418     1260.560        1.839        0.464      165.478       31.812        0.037      330.574       -1.967      863.363
12/26/2014  04:04:00      -78.385       67.481       -3.666       51.616       63.109       30.219     2664.199     3982.772      913.178        0.913        0.378      103.430       32.412        0.098      330.579       -1.959      863.369
12/26/2014  04:05:00      -56.799       91.178      -17.854       85.757       60.615       30.147     7354.193     3674.134      908.818        1.190        0.597      107.422       32.749        0.093      330.614       -1.902      863.367
12/26/2014  04:06:00      -85.960      175.262      -22.596       61.024       75.384       36.839     3723.896     5682.770     1357.128        2.469        0.538      195.207       29.246        0.022      330.566       -1.981      863.389
12/26/2014  04:07:00      -61.730      159.411      -15.657       61.572       89.430       45.293     3791.158     7997.656     2051.482        2.165        0.692      170.946       39.190        0.053      330.636       -1.866      863.417
12/26/2014  04:08:00     -105.120      153.501      -23.138       40.648       46.581       31.177     1652.254     2169.776      972.028        1.997        0.240      186.045       20.608        0.012      330.588       -1.945      863.437
12/26/2014  04:09:00      -77.065      165.119      -20.272       51.628       52.920       37.988     2665.484     2800.478     1443.072        2.026        0.345      182.218       36.416        0.040      330.647       -1.849      863.436
12/26/2014  04:10:00      -88.704      135.609      -16.379       69.125       56.077       41.876     4778.257     3144.584     1753.592        1.810        0.484      162.044       35.907        0.049      330.497       -2.093      863.433
12/26/2014  04:11:00      -80.459      149.823      -23.880       68.768       66.892       34.684     4728.973     4474.587     1202.975        1.995        0.520      170.060       26.984        0.025      330.569       -1.976      863.422
12/26/2014  04:12:00      -55.523      146.172      -21.951       48.696       67.697       29.557     2371.341     4582.890      873.609        1.638        0.391      156.362       31.433        0.040      330.630       -1.875      863.414
12/26/2014  04:13:00      -42.581      176.050      -18.252       53.654       96.100       41.060     2878.803     9235.228     1685.883        2.347        0.690      181.126       34.363        0.036      330.592       -1.939      863.411
12/26/2014  04:14:00      -79.655      155.187      -22.894       41.689       68.188       34.989     1737.951     4649.599     1224.237        1.928        0.381      174.436       32.835        0.035      330.551       -2.005      863.415
12/26/2014  04:15:00      -46.294      178.657      -22.691       38.107       47.319       27.897     1452.175     2239.072      778.255        1.952        0.223      184.557       22.585        0.015      330.620       -1.891      863.429
12/26/2014  04:16:00      -45.859      151.956       -9.147       52.124       78.966       42.935     2716.954     6235.632     1843.451        1.803        0.540      158.725       42.998        0.073      330.574       -1.966      863.445
12/26/2014  04:17:00      -35.501      104.192       -7.126       47.822       54.114       31.559     2286.900     2928.298      995.959        0.919        0.311      110.074       23.531        0.046      330.626       -1.882      863.449
12/26/2014  04:18:00     -125.380      150.980      -23.263       51.724       55.985       36.558     2675.332     3134.340     1336.509        2.310        0.357      196.253       27.211        0.019      330.545       -2.015      863.453
12/26/2014  04:19:00      -82.591      125.843      -24.052       48.668       53.589       35.461     2368.584     2871.800     1257.476        1.487        0.325      150.524       26.700        0.031      330.562       -1.987      863.450
12/26/2014  04:20:00      -49.465      195.460      -16.302       60.809       66.891       32.418     3697.740     4474.354     1050.923        2.507        0.461      201.622       29.474        0.021      330.566       -1.981      863.455
12/26/2014  04:21:00      -46.273      156.162      -19.330       48.432       91.492       37.490     2345.657     8370.831     1405.486        1.951        0.606      162.873       43.112        0.070      330.627       -1.881      863.442
12/26/2014  04:22:00      -51.638      200.448      -24.498       42.937       51.806       32.823     1843.628     2683.856     1077.358        2.452        0.280      206.992       30.790        0.022      330.551       -2.007      863.429
12/26/2014  04:23:00      -75.941      230.727      -29.548       64.426       71.100       33.563     4150.759     5055.274     1126.480        3.510        0.517      242.903       37.735        0.024      330.556       -2.000      863.427
12/26/2014  04:24:00      -49.100      181.295      -16.246       39.566       56.733       25.601     1565.463     3218.653      655.418        2.049        0.272      187.826       24.003        0.016      330.561       -1.988      863.429
12/26/2014  04:25:00      -35.739      178.499      -24.735       34.365       36.215       22.748     1180.960     1311.492      517.459        1.838        0.150      182.042       15.900        0.008      330.522       -2.052      863.433
12/26/2014  04:26:00      -74.566      156.256      -17.658       59.601       58.425       30.101     3552.280     3413.486      906.048        1.908        0.394      173.136       27.731        0.026      330.540       -2.023      863.436
12/26/2014  04:27:00      -55.424      134.031      -19.938       38.769       53.240       25.166     1503.026     2834.448      633.352        1.320        0.249      145.038       23.038        0.025      330.599       -1.927      863.424
12/26/2014  04:28:00     -114.525      248.822      -35.042       53.595       58.729       33.452     2872.450     3449.090     1119.028        4.185        0.372      273.913       32.961        0.014      330.479       -2.127      863.428
12/26/2014  04:29:00      -80.351      198.932      -29.742       59.750       83.292       35.189     3570.057     6937.538     1238.292        2.933        0.587      214.546       36.807        0.029      330.446       -2.178      863.431
12/26/2014  04:30:00      -89.069      160.220      -23.733       42.222       76.131       30.807     1782.707     5795.893      949.069        2.135        0.426      183.313       26.144        0.020      330.587       -1.946      863.444
12/26/2014  04:31:00      -87.071       87.307      -10.924       52.632       54.970       34.237     2770.123     3021.674     1172.160        1.114        0.348      123.304       27.220        0.049      330.473       -2.133      863.469
12/26/2014  04:32:00     -106.883      126.218      -25.449       54.282       49.522       38.307     2946.534     2452.423     1467.404        1.743        0.343      165.393       31.697        0.037      330.452       -2.167      863.491
12/26/2014  04:33:00      -55.940      168.292      -14.942       44.453       53.655       32.166     1976.078     2878.875     1034.621        1.878        0.294      177.345       27.075        0.023      330.554       -1.999      863.502
12/26/2014  04:34:00      -74.763      116.193      -14.721       44.321       54.435       30.909     1964.350     2963.204      955.382        1.259        0.294      138.167       34.093        0.061      330.443       -2.181      863.493
12/26/2014  04:35:00     -140.371      179.093      -37.265       56.140       53.865       30.371     3151.711     2901.445      922.370        3.007        0.349      227.549       30.782        0.018      330.404       -2.249      863.475
12/26/2014  04:36:00      -83.456      129.124      -19.475       63.787       48.388       31.450     4068.814     2341.403      989.126        1.571        0.370      153.746       35.650        0.054      330.465       -2.146      863.447
12/26/2014  04:37:00      -61.711      146.947      -19.337       49.281       75.894       36.080     2428.615     5759.943     1301.788        1.763        0.475      159.379       41.117        0.067      330.416       -2.226      863.426
12/26/2014  04:38:00      -72.237      101.708      -13.465       45.396       55.108       27.746     2060.792     3036.852      769.859        1.080        0.293      124.750       22.146        0.032      330.494       -2.096      863.417
12/26/2014  04:39:00      -93.602      126.804      -22.807       46.397       54.092       28.353     2152.649     2925.970      803.902        1.562        0.294      157.609       24.760        0.025      330.465       -2.144      863.429
12/26/2014  04:40:00     -136.164      140.893      -28.574       57.359       55.768       36.906     3290.067     3110.103     1362.085        2.348        0.388      195.937       34.562        0.031      330.435       -2.196      863.441
12/26/2014  04:41:00      -85.217      122.912      -24.887       52.018       45.566       30.788     2705.878     2076.234      947.928        1.436        0.287      149.563       26.044        0.030      330.484       -2.114      863.461
12/26/2014  04:42:00      -71.918       70.141       -6.160       48.431       40.690       26.740     2345.547     1655.707      715.008        0.742        0.236      100.459       25.764        0.066      330.473       -2.133      863.456
12/26/2014  04:43:00      -87.547      149.306      -21.524       40.877       56.652       28.478     1670.966     3209.479      810.993        1.805        0.285      173.080       30.192        0.030      330.492       -2.101      863.445
12/26/2014  04:44:00     -113.569       96.988      -16.178       50.294       54.695       28.974     2529.491     2991.583      839.510        1.446        0.318      149.347       24.259        0.026      330.516       -2.061      863.438
12/26/2014  04:45:00      -82.295       78.127      -10.492       52.799       39.674       29.087     2787.775     1574.030      846.057        0.910        0.260      113.474       27.651        0.059      330.484       -2.112      863.418
12/26/2014  04:46:00      -83.257       82.354      -10.733       33.788       69.487       25.010     1141.641     4828.432      625.514        1.021        0.330      117.107       27.116        0.054      330.544       -2.015      863.406
12/26/2014  04:47:00      -94.839       83.037      -13.020       34.183       55.244       32.835     1168.485     3051.927     1078.115        1.068        0.265      126.054       26.872        0.045      330.427       -2.206      863.409
12/26/2014  04:48:00      -64.472      144.857      -20.426       52.211       50.847       28.710     2725.967     2585.435      824.283        1.585        0.307      158.557       24.867        0.025      330.469       -2.138      863.428
12/26/2014  04:49:00      -90.655      133.405      -20.910       47.940       44.325       32.836     2298.264     1964.705     1078.230        1.590        0.267      161.292       25.093        0.024      330.505       -2.080      863.453
12/26/2014  04:50:00      -75.958      147.306      -15.816       44.278       82.426       28.557     1960.552     6794.024      815.480        1.864        0.479      165.737       29.513        0.032      330.391       -2.268      863.479
12/26/2014  04:51:00      -57.352      134.786      -14.347       45.640       63.737       26.764     2083.021     4062.458      716.304        1.426        0.343      146.480       29.022        0.039      330.435       -2.194      863.506
12/26/2014  04:52:00      -79.788      102.483      -24.236       49.298       42.950       30.358     2430.315     1844.720      921.584        1.133        0.260      129.880       18.422        0.020      330.460       -2.154      863.538
12/26/2014  04:53:00      -99.010      111.803      -28.982       42.037       50.490       26.061     1767.142     2549.232      679.201        1.407        0.250      149.341       25.448        0.029      330.351       -2.333      863.563
12/26/2014  04:54:00      -88.178      118.808      -24.535       40.021       47.680       28.502     1601.714     2273.365      812.392        1.359        0.234      147.955       27.698        0.035      330.309       -2.401      863.564
12/26/2014  04:55:00      -98.823       46.823      -13.069       43.047       56.463       24.682     1853.010     3188.086      609.187        0.889        0.283      109.354       23.341        0.046      330.440       -2.187      863.563
12/26/2014  04:56:00      -83.612      100.463      -23.446       47.049       53.778       26.951     2213.642     2892.105      726.368        1.173        0.292      130.705       29.567        0.051      330.348       -2.337      863.567
12/26/2014  04:57:00     -110.816       86.363      -14.911       52.605       63.678       36.502     2767.241     4054.852     1332.366        1.406        0.408      140.495       38.746        0.076      330.377       -2.291      863.572
12/26/2014  04:58:00      -94.099       96.218      -18.428       41.452       66.586       28.782     1718.251     4433.675      828.402        1.271        0.349      134.582       26.777        0.040      330.434       -2.196      863.575
12/26/2014  04:59:00     -130.970      156.200      -37.925       47.589       60.022       32.593     2264.696     3602.631     1062.317        2.496        0.346      203.842       32.944        0.026      330.444       -2.182      863.565
12/26/2014  05:00:00     -108.622       78.166      -12.740       61.446       43.083       34.727     3775.632     1856.181     1205.939        1.245        0.342      133.823       27.483        0.042      330.469       -2.139      863.560
12/26/2014  05:01:00     -114.596      143.731      -26.017       55.273       62.050       38.236     3055.119     3850.153     1462.020        2.142        0.418      183.823       42.843        0.054      330.376       -2.292      863.571
12/26/2014  05:02:00      -93.836      153.771      -21.552       40.411       56.127       29.072     1633.065     3150.294      845.173        1.927        0.281      180.141       27.919        0.024      330.348       -2.338      863.593
12/26/2014  05:03:00      -75.077      153.790      -29.447       45.784       40.212       19.148     2096.175     1617.008      366.656        1.712        0.204      171.137       10.614        0.004      330.349       -2.333      863.618
12/26/2014  05:04:00      -52.041       96.559       -8.257       29.583       47.874       25.526      875.162     2291.920      651.566        0.796        0.191      109.690       26.157        0.057      330.456       -2.158      863.638
12/26/2014  05:05:00      -41.768      109.117      -16.431       38.622       61.530       23.483     1491.639     3785.895      551.446        0.987        0.291      116.838       20.478        0.031      330.477       -2.126      863.660
12/26/2014  05:06:00       -6.921      161.981      -23.611       22.426       31.953       18.876      502.924     1020.979      356.320        1.436        0.094      162.129       15.993        0.010      330.318       -2.385      863.666
12/26/2014  05:07:00      -23.906      171.732      -24.155       18.429       29.747       15.702      339.646      884.879      246.541        1.606        0.074      173.388        8.926        0.003      330.249       -2.500      863.664
12/26/2014  05:08:00       -6.696      104.938      -13.889       19.440       42.133       17.929      377.904     1775.188      321.454        0.686        0.124      105.151       20.151        0.037      330.303       -2.411      863.653
12/26/2014  05:09:00      -20.009       81.498       -9.939       25.026       32.256       14.547      626.301     1040.473      211.619        0.451        0.094       83.918       12.248        0.021      330.417       -2.224      863.652
12/26/2014  05:10:00      -25.931       38.996       -1.787       20.702       31.468       16.806      428.577      990.218      282.434        0.195        0.085       46.830       13.801        0.087      330.353       -2.327      863.668
12/26/2014  05:11:00      -53.810       36.191      -13.889       37.437       29.117       16.757     1401.514      847.827      280.806        0.346        0.127       64.848       16.491        0.065      330.313       -2.394      863.691
12/26/2014  05:12:00      -60.927       33.646      -16.298       30.177       34.811       19.700      910.675     1211.815      388.078        0.381        0.126       69.600       12.851        0.034      330.465       -2.143      863.714
12/26/2014  05:13:00      -71.492       17.553       -9.184       33.193       37.111       19.319     1101.747     1377.233      373.232        0.418        0.143       73.615       20.078        0.074      330.379       -2.286      863.741
12/26/2014  05:14:00      -85.461       47.892      -20.923       32.277       44.517       26.746     1041.813     1981.769      715.325        0.689        0.187       97.966       16.628        0.029      330.434       -2.196      863.767
12/26/2014  05:15:00      -94.650       76.732      -19.554       42.862       58.700       28.566     1837.163     3445.682      816.029        1.066        0.305      121.845       24.694        0.041      330.429       -2.205      863.786
12/26/2014  05:16:00     -120.518      142.559      -29.537       34.796       53.624       28.120     1210.769     2875.565      790.724        2.030        0.244      186.675       24.163        0.017      330.449       -2.172      863.807
12/26/2014  05:17:00     -106.547      111.797      -29.090       39.524       45.283       25.402     1562.108     2050.586      645.266        1.448        0.213      154.437       18.208        0.014      330.429       -2.204      863.833
12/26/2014  05:18:00      -89.982       81.203      -21.951       28.987       66.589       20.391      840.239     4434.147      415.788        1.043        0.285      121.205       17.054        0.020      330.386       -2.276      863.846
12/26/2014  05:19:00      -73.014       44.117      -15.203       33.101       50.848       24.874     1095.675     2585.547      618.697        0.590        0.215       85.308       25.409        0.089      330.377       -2.290      863.850
12/26/2014  05:20:00      -87.417       46.519      -17.732       31.264       60.040       24.358      977.414     3604.861      593.326        0.765        0.259       99.024       27.929        0.080      330.453       -2.165      863.826
12/26/2014  05:21:00      -68.565       -4.529       -6.343       26.232       33.147       11.907      688.125     1098.739      141.766        0.334        0.096       68.715        4.388        0.004      330.372       -2.298      863.812
12/26/2014  05:22:00      -92.110       53.981      -17.164       37.334       28.272       27.522     1393.856      799.286      757.454        0.732        0.148      106.763       26.570        0.062      330.404       -2.246      863.843
12/26/2014  05:23:00     -101.720       75.419      -18.454       34.749       48.495       24.073     1207.459     2351.788      579.526        1.026        0.207      126.629       24.800        0.038      330.328       -2.369      863.910
12/26/2014  05:24:00     -103.250       44.643      -15.150       42.702       35.119       22.291     1823.420     1233.333      496.870        0.822        0.178      112.488       17.411        0.024      330.315       -2.388      863.988
12/26/2014  05:25:00      -88.309       18.878      -13.864       33.832       41.121       24.896     1144.603     1690.939      619.806        0.590        0.173       90.304       16.700        0.034      330.349       -2.336      864.026
12/26/2014  05:26:00     -110.864       84.479      -23.893       43.439       32.643       25.321     1886.936     1065.571      641.172        1.180        0.180      139.382       14.964        0.012      330.322       -2.380      864.036
12/26/2014  05:27:00     -104.032       72.167      -28.385       44.795       31.890       24.414     2006.560     1016.975      596.046        1.023        0.181      126.613       20.087        0.025      330.281       -2.446      864.036
12/26/2014  05:28:00      -90.107       47.454      -21.286       30.574       42.782       21.870      934.779     1830.335      478.318        0.703        0.162      101.839       21.244        0.044      330.209       -2.564      864.024
12/26/2014  05:29:00      -73.556       57.537      -22.059       43.359       67.073       22.292     1880.009     4498.774      496.952        0.804        0.344       93.387       29.751        0.101      330.253       -2.493      864.003
12/26/2014  05:30:00      -91.361       37.983       -3.047       46.022       37.199       24.410     2118.065     1383.767      595.871        0.695        0.205       98.942       25.110        0.064      330.251       -2.494      863.984
12/26/2014  05:31:00      -81.166        7.614       -6.915       38.629       35.628       19.990     1492.197     1269.343      399.592        0.493        0.158       81.523       13.590        0.028      330.234       -2.524      863.974
12/26/2014  05:32:00      -96.475       39.352      -13.895       41.590       30.753       18.954     1729.742      945.759      359.257        0.704        0.152      104.192        8.359        0.006      330.226       -2.537      863.992
12/26/2014  05:33:00      -63.420       39.363      -14.451       27.756       28.012       21.242      770.395      784.692      451.229        0.389        0.100       74.643       18.113        0.059      330.292       -2.428      864.010
12/26/2014  05:34:00      -97.288      109.912      -31.452       34.888       51.285       28.440     1217.149     2630.104      808.846        1.359        0.233      146.785       26.391        0.032      330.271       -2.462      864.022
12/26/2014  05:35:00      -45.693       67.161       -6.062       33.853       34.174       19.741     1146.019     1167.853      389.726        0.467        0.135       81.231       17.592        0.047      330.281       -2.446      864.021
12/26/2014  05:36:00      -50.506       70.685       -0.432       39.435       42.155       27.288     1555.119     1777.022      744.622        0.581        0.204       86.875       19.522        0.050      330.274       -2.458      864.024
12/26/2014  05:37:00      -45.116       71.011      -16.196       30.969       30.038       22.744      959.066      902.291      517.276        0.486        0.119       84.131       21.263        0.064      330.325       -2.373      864.025
12/26/2014  05:38:00      -35.922       31.977       -6.747       25.809       33.719       21.138      666.095     1136.983      446.798        0.230        0.112       48.093       14.851        0.095      330.275       -2.457      864.036
12/26/2014  05:39:00      -15.253       22.088       -3.102       13.991       26.102       11.855      195.750      681.310      140.544        0.087        0.051       26.842       13.552        0.255      330.297       -2.418      864.045
12/26/2014  05:40:00        8.038       20.988      -10.783       19.990       21.731        9.278      399.586      472.225       86.085        0.079        0.048       22.474        7.332        0.106      330.249       -2.498      864.047
12/26/2014  05:41:00       22.437       30.472        0.871       20.268       22.227       22.177      410.791      494.029      491.809        0.141        0.070       37.841       10.894        0.083      330.277       -2.453      864.054
12/26/2014  05:42:00      -56.736       74.295      -12.745       37.981       38.874       23.793     1442.592     1511.208      566.119        0.621        0.176       93.481       19.597        0.044      330.249       -2.499      864.070
12/26/2014  05:43:00      -47.578       69.813      -16.854       35.434       60.238       22.657     1255.570     3628.672      513.353        0.641        0.270       84.484        6.478        0.006      330.359       -2.318      864.082
12/26/2014  05:44:00      -48.604      106.269      -14.189       39.954       58.778       20.168     1596.331     3454.859      406.733        0.966        0.273      116.856       15.831        0.018      330.406       -2.241      864.109
12/26/2014  05:45:00      -47.018      108.055      -13.142       38.196       62.657       29.617     1458.957     3925.926      877.193        1.016        0.313      117.841       32.931        0.078      330.325       -2.375      864.144
12/26/2014  05:46:00      -39.813      105.508      -20.698       41.253       86.276       28.442     1701.817     7443.602      808.972        1.155        0.498      112.770       30.279        0.072      330.331       -2.366      864.161
12/26/2014  05:47:00      -81.965      135.897      -16.914       52.338       71.231       33.129     2739.257     5073.900     1097.522        1.719        0.446      158.702       28.201        0.032      330.290       -2.434      864.171
12/26/2014  05:48:00      -96.218       89.004      -27.409       42.255       45.668       21.844     1785.460     2085.600      477.181        1.114        0.217      131.071       23.961        0.033      330.272       -2.460      864.181
12/26/2014  05:49:00      -82.616       74.905       -9.446       55.750       40.036       35.587     3108.088     1602.851     1266.462        0.925        0.299      111.518       35.340        0.100      330.249       -2.500      864.188
12/26/2014  05:50:00      -54.643      147.852      -12.652       54.718       70.980       31.760     2994.088     5038.157     1008.716        1.702        0.452      157.626       28.412        0.032      330.237       -2.520      864.210
12/26/2014  05:51:00     -118.082      113.443      -32.175       59.249       69.985       34.643     3510.483     4897.903     1200.170        1.873        0.480      163.746       29.392        0.032      330.263       -2.476      864.239
12/26/2014  05:52:00      -84.961       87.911      -11.092       38.930       55.674       27.265     1515.529     3099.645      743.399        1.021        0.268      122.256       21.361        0.031      330.240       -2.515      864.256
12/26/2014  05:53:00      -76.278       83.535       -5.793       43.799       67.095       35.019     1918.345     4501.749     1226.332        1.024        0.382      113.121       39.176        0.120      330.279       -2.450      864.277
12/26/2014  05:54:00     -104.513      136.206      -31.326       44.250       69.291       33.301     1958.054     4801.231     1108.953        1.916        0.393      171.683       28.079        0.027      330.273       -2.461      864.314
12/26/2014  05:55:00     -104.122      113.360      -16.701       50.263       86.480       42.299     2526.334     7478.844     1789.194        1.788        0.590      153.922       33.497        0.047      330.217       -2.553      864.336
12/26/2014  05:56:00     -136.873      104.665      -35.809       48.942       41.096       29.176     2395.292     1688.912      851.214        1.795        0.247      172.304       29.005        0.028      330.239       -2.517      864.359
12/26/2014  05:57:00     -127.939      135.006      -39.649       47.633       66.986       32.378     2268.947     4487.059     1048.357        2.198        0.390      185.997       34.917        0.035      330.209       -2.567      864.373
12/26/2014  05:58:00      -99.535      109.231      -22.102       41.643       56.585       29.060     1734.135     3201.821      844.506        1.405        0.289      147.779       29.342        0.039      330.182       -2.611      864.382
12/26/2014  05:59:00      -89.834       67.913      -16.408       33.834       37.666       24.866     1144.772     1418.761      618.339        0.807        0.159      112.616       19.532        0.030      330.162       -2.642      864.392
12/26/2014  06:00:00     -114.522      115.152      -39.084       37.938       60.368       25.386     1439.261     3644.300      644.427        1.681        0.286      162.405       19.695        0.015      330.200       -2.580      864.381
12/26/2014  06:01:00     -102.495      132.913      -21.688       47.240       53.421       36.063     2231.665     2853.835     1300.551        1.751        0.319      167.842       32.402        0.037      330.136       -2.686      864.376
12/26/2014  06:02:00      -93.881      125.004      -22.667       27.837       63.506       24.943      774.902     4033.014      622.138        1.519        0.272      156.332       12.534        0.006      330.167       -2.635      864.373
12/26/2014  06:03:00     -102.496       90.478      -22.975       48.618       84.484       34.742     2363.698     7137.596     1206.991        1.496        0.535      136.718       40.357        0.087      330.163       -2.640      864.374
12/26/2014  06:04:00     -116.731      108.773      -23.838       53.638       64.903       29.197     2877.060     4212.339      852.457        1.698        0.397      159.555       29.996        0.035      330.143       -2.674      864.396
12/26/2014  06:05:00     -101.743       51.870       -5.997       36.945       36.185       26.197     1364.969     1309.377      686.286        0.822        0.168      114.202        5.273        0.002      330.133       -2.690      864.422
12/26/2014  06:06:00     -114.635       68.096      -19.693       45.558       44.209       25.565     2075.514     1954.479      653.577        1.142        0.234      133.335       22.915        0.030      330.127       -2.700      864.443
12/26/2014  06:07:00      -79.735       35.932       -8.540       58.386       34.115       25.791     3408.912     1163.827      665.166        0.648        0.262       87.457       22.463        0.066      330.138       -2.681      864.455
12/26/2014  06:08:00     -109.326       73.656      -20.501       25.369       42.080       22.478      643.583     1770.717      505.268        1.036        0.146      131.823       18.575        0.020      330.155       -2.653      864.460
12/26/2014  06:09:00     -119.917       38.741      -18.976       38.479       50.365       23.192     1480.652     2536.647      537.874        1.040        0.228      126.019       17.285        0.019      330.110       -2.728      864.471
12/26/2014  06:10:00      -84.630       50.763      -11.711       33.662       52.318       27.204     1133.129     2737.198      740.080        0.724        0.231       98.687       17.446        0.031      330.161       -2.641      864.493
12/26/2014  06:11:00      -57.194       45.178       -5.935       35.962       30.563       19.655     1293.252      934.097      386.308        0.398        0.131       72.884        8.764        0.014      330.129       -2.697      864.512
12/26/2014  06:12:00      -99.684       58.660      -23.832       37.346       73.160       33.648     1394.722     5352.342     1132.203        1.091        0.394      115.663       32.656        0.080      330.156       -2.653      864.529
12/26/2014  06:13:00      -89.427       59.547      -10.855       35.186       36.705       20.367     1238.024     1347.250      414.830        0.733        0.150      107.439       19.287        0.032      330.164       -2.638      864.543
12/26/2014  06:14:00     -103.289       27.616      -17.464       52.217       34.047       25.444     2726.595     1159.223      647.420        0.813        0.227      106.917       21.826        0.042      330.156       -2.651      864.570
12/26/2014  06:15:00      -93.027       53.062      -13.763       56.493       55.605       31.173     3191.426     3091.926      971.742        0.946        0.363      107.097       29.120        0.074      330.158       -2.650      864.600
12/26/2014  06:16:00      -81.845       85.684      -18.847       38.269       94.562       28.792     1464.543     8941.933      828.980        1.281        0.562      118.491       36.061        0.093      330.183       -2.609      864.622
12/26/2014  06:17:00     -159.244       65.530      -21.498       64.147       45.593       30.771     4114.891     2078.685      946.855        1.863        0.357      172.200       16.810        0.010      330.184       -2.607      864.641
12/26/2014  06:18:00      -97.626       28.646       -7.059       48.019       47.118       25.958     2305.862     2220.083      673.800        0.780        0.260      101.742       20.445        0.040      330.142       -2.674      864.665
12/26/2014  06:19:00      -84.760       88.909      -21.338       38.437       52.542       31.522     1477.427     2760.683      993.667        1.039        0.262      122.837       19.588        0.025      330.214       -2.555      864.687
12/26/2014  06:20:00      -92.605       97.292      -25.361       37.700       49.871       34.707     1421.265     2487.127     1204.575        1.190        0.256      134.318       29.632        0.049      330.199       -2.582      864.715
12/26/2014  06:21:00      -86.041       56.170      -15.500       32.202       44.786       16.784     1036.946     2005.758      281.687        0.706        0.166      102.753       13.457        0.017      330.222       -2.543      864.731
12/26/2014  06:22:00      -70.427       33.981      -14.146       31.902       48.687       14.644     1017.749     2370.440      214.440        0.496        0.180       78.196        9.961        0.016      330.252       -2.495      864.733
12/26/2014  06:23:00      -52.520        3.856      -25.359       38.947       51.409       26.190     1516.849     2642.885      685.911        0.413        0.242       52.661        7.901        0.023      330.225       -2.538      864.737
12/26/2014  06:24:00      -59.358       46.209       -8.992       35.122       44.282       22.368     1233.552     1960.892      500.326        0.472        0.185       75.225       22.481        0.089      330.228       -2.533      864.737
12/26/2014  06:25:00     -103.171      -27.663      -11.389       45.179       41.591       28.928     2041.104     1729.833      836.851        0.807        0.230      106.816       19.393        0.033      330.213       -2.559      864.736
12/26/2014  06:26:00      -50.047       18.376      -22.381       26.192       58.936       22.183      686.028     3473.440      492.079        0.400        0.233       53.314       11.599        0.047      330.154       -2.655      864.741
12/26/2014  06:27:00      -45.638       16.105       -5.274       28.509       39.799       19.864      812.760     1583.985      394.583        0.258        0.140       48.396       19.257        0.158      330.192       -2.593      864.740
12/26/2014  06:28:00     -147.224        8.501      -22.361       59.548       51.328       20.816     3545.982     2634.588      433.301        1.443        0.331      147.469       17.161        0.014      330.165       -2.637      864.745
12/26/2014  06:29:00     -146.084      -24.625      -12.574       56.294       30.964       33.700     3169.037      958.798     1135.672        1.368        0.263      148.145       33.758        0.052      330.105       -2.736      864.737
12/26/2014  06:30:00      -67.489       55.815      -15.414       25.599       56.560       26.261      655.320     3198.991      689.630        0.622        0.227       87.579       23.730        0.073      330.178       -2.617      864.718
12/26/2014  06:31:00     -102.094       -0.185       -5.431       50.069       39.557       30.205     2506.874     1564.755      912.347        0.772        0.249      102.094       30.757        0.091      330.147       -2.668      864.709
12/26/2014  06:32:00     -100.103      -12.410      -11.087       53.637       35.704       27.726     2876.941     1274.802      768.750        0.761        0.246      100.869       29.311        0.084      330.124       -2.705      864.706
12/26/2014  06:33:00      -88.947      -18.887      -12.768       31.758       32.103       18.317     1008.571     1030.572      335.517        0.540        0.119       90.930       12.846        0.020      330.104       -2.737      864.711
12/26/2014  06:34:00      -94.835      -61.346      -10.327       24.172       26.267       16.595      584.274      689.931      275.396        0.721        0.077      112.947        6.644        0.003      330.088       -2.764      864.729
12/26/2014  06:35:00      -60.670      -20.770       -2.361       43.654       31.217       17.930     1905.669      974.501      321.478        0.366        0.160       64.127       22.360        0.122      329.987       -2.928      864.754
12/26/2014  06:36:00      -44.787      -21.157        6.651       37.088       28.515       19.883     1375.484      813.126      395.328        0.254        0.129       49.532       16.750        0.114      329.900       -3.071      864.780
12/26/2014  06:37:00      -80.754      -17.008       -4.418       40.526       23.034       16.609     1642.385      530.557      275.847        0.464        0.122       82.526        8.687        0.011      330.084       -2.770      864.788
12/26/2014  06:38:00      -91.035      -58.072      -13.898       52.486       26.155       17.960     2754.765      684.107      322.564        0.781        0.188      107.980        4.899        0.002      330.018       -2.879      864.800
12/26/2014  06:39:00     -102.125      -55.875      -10.331       42.637       30.801       22.052     1817.903      948.722      486.288        0.845        0.163      116.411       18.522        0.025      329.966       -2.961      864.797
12/26/2014  06:40:00      -93.264      -75.286       -8.637       46.110       43.161       37.069     2126.116     1862.877     1374.077        0.990        0.268      119.859       19.264        0.026      329.963       -2.967      864.791
12/26/2014  06:41:00     -136.129      -81.961       -4.093       39.632       39.110       28.407     1570.723     1529.583      806.932        1.459        0.195      158.898       15.313        0.009      329.908       -3.057      864.789
12/26/2014  06:42:00      -68.957      -58.894        2.799       61.199       38.021       28.978     3745.361     1445.568      839.728        0.713        0.302       90.684       31.925        0.124      329.887       -3.092      864.788
12/26/2014  06:43:00     -126.073      -85.360       -3.177       35.338       37.554       23.105     1248.807     1410.329      533.857        1.319        0.160      152.253       15.249        0.010      329.864       -3.130      864.801
12/26/2014  06:44:00     -130.211      -90.329       -3.443       50.199       47.891       31.790     2519.911     2293.559     1010.582        1.547        0.291      158.475       28.736        0.033      329.813       -3.214      864.811
12/26/2014  06:45:00     -102.238     -100.226       -8.370       53.874       47.322       25.114     2902.430     2239.385      630.707        1.317        0.289      143.171       25.929        0.033      329.763       -3.296      864.829
12/26/2014  06:46:00     -140.670      -79.852      -10.954       40.038       28.075       23.403     1603.060      788.228      547.708        1.461        0.147      161.754       17.548        0.012      329.814       -3.212      864.847
12/26/2014  06:47:00      -94.122      -86.513        3.200       61.555       46.265       29.798     3789.017     2140.488      887.949        1.158        0.341      127.841       33.610        0.069      329.863       -3.131      864.850
12/26/2014  06:48:00     -101.672      -80.923       -0.365       58.905       55.027       37.001     3469.777     3027.994     1369.066        1.237        0.393      129.945       36.753        0.080      329.894       -3.082      864.827
12/26/2014  06:49:00      -86.721      -65.761        4.510       53.980       43.337       27.851     2913.807     1878.063      775.666        0.872        0.278      108.835       32.678        0.090      329.895       -3.079      864.809
12/26/2014  06:50:00     -100.040      -45.037       -1.539       46.240       45.449       25.408     2138.175     2065.581      645.587        0.844        0.242      109.710       29.428        0.072      329.885       -3.096      864.798
12/26/2014  06:51:00      -96.466      -73.473       -7.241       46.069       33.354       23.276     2122.319     1112.463      541.782        0.927        0.189      121.260       20.026        0.027      329.876       -3.111      864.808
12/26/2014  06:52:00      -92.488      -36.754        4.886       37.420       40.706       24.771     1400.230     1656.960      613.588        0.680        0.184       99.523       23.571        0.056      329.865       -3.129      864.828
12/26/2014  06:53:00     -118.554      -61.773       -2.495       40.028       26.604       20.208     1602.211      707.778      408.360        1.030        0.136      133.682       20.386        0.023      329.847       -3.159      864.851
12/26/2014  06:54:00     -104.254      -37.037       -1.792       47.555       40.348       24.026     2261.457     1627.963      577.265        0.835        0.223      110.638       22.400        0.041      329.863       -3.132      864.876
12/26/2014  06:55:00      -96.445      -42.169       -2.163       45.567       35.407       23.344     2076.313     1253.662      544.925        0.748        0.194      105.261       24.444        0.054      329.921       -3.036      864.897
12/26/2014  06:56:00     -120.806      -58.980      -16.100       38.283       24.229       18.655     1465.623      587.066      347.999        1.037        0.120      134.435       15.697        0.014      329.947       -2.994      864.908
12/26/2014  06:57:00      -96.939      -35.560       -8.188       38.216       24.341       18.646     1460.466      592.507      347.685        0.656        0.120      103.256       15.439        0.022      329.938       -3.008      864.913
12/26/2014  06:58:00      -54.713      -38.944       -3.630       30.793       23.237       16.832      948.198      539.975      283.322        0.315        0.089       67.158       14.798        0.049      329.963       -2.967      864.908
12/26/2014  06:59:00      -80.616      -35.785       -0.246       21.945       26.418       18.612      481.586      697.908      346.415        0.465        0.076       88.202       14.375        0.027      329.905       -3.062      864.911
12/26/2014  07:00:00     -121.893      -33.679       -4.725       37.310       27.029       24.174     1392.068      730.573      584.406        0.936        0.135      126.460       20.336        0.026      329.916       -3.044      864.913
12/26/2014  07:01:00     -119.352      -42.283       -1.102       47.697       26.345       23.426     2274.969      694.066      548.762        0.978        0.176      126.620       25.408        0.040      329.931       -3.021      864.916
12/26/2014  07:02:00     -156.113       -7.443      -10.945       44.594       32.678       25.496     1988.594     1067.848      650.056        1.413        0.185      156.291       21.711        0.019      329.947       -2.993      864.905
12/26/2014  07:03:00     -174.931       -1.086      -16.130       42.274       45.681       21.517     1787.128     2086.797      462.983        1.760        0.217      174.934       12.301        0.005      329.966       -2.964      864.893
12/26/2014  07:04:00     -138.461       13.493      -10.328       55.719       39.045       24.415     3104.620     1524.529      596.077        1.234        0.261      139.117       29.305        0.044      329.942       -3.002      864.885
12/26/2014  07:05:00      -90.495      -25.548       -2.258       31.872       37.780       21.011     1015.831     1427.356      441.445        0.587        0.144       94.032       15.755        0.028      329.889       -3.089      864.880
12/26/2014  07:06:00      -48.963      -39.824        3.874       42.077       30.587       19.511     1770.506      935.537      380.678        0.354        0.154       63.113       19.561        0.096      329.846       -3.160      864.883
12/26/2014  07:07:00      -79.278      -34.957       -0.659       27.432       23.010       16.159      752.535      529.471      261.120        0.452        0.077       86.642       12.156        0.020      329.870       -3.119      864.881
12/26/2014  07:08:00      -50.951      -47.144        0.850       45.706       26.765       19.250     2089.000      716.368      370.547        0.400        0.159       69.416       22.179        0.102      329.859       -3.139      864.877
12/26/2014  07:09:00      -95.787      -13.413       -5.495       31.027       22.739       14.914      962.663      517.059      222.422        0.554        0.085       96.721       12.478        0.017      329.813       -3.214      864.876
12/26/2014  07:10:00      -89.333      -18.676       -7.222       30.510       22.253       17.133      930.830      495.210      293.529        0.505        0.086       91.264       17.621        0.037      329.798       -3.238      864.877
12/26/2014  07:11:00      -86.067      -11.270       -6.338       24.357       22.467       15.687      593.246      504.787      246.073        0.446        0.067       86.801       12.920        0.022      329.743       -3.328      864.884
12/26/2014  07:12:00      -94.860      -34.737       -5.446       17.942       19.589       11.341      321.932      383.713      128.626        0.553        0.042      101.020        9.925        0.010      329.789       -3.254      864.896
12/26/2014  07:13:00      -44.561      -19.681       -0.645       24.762       21.639       17.876      613.156      468.234      319.545        0.189        0.070       48.713       13.886        0.081      329.711       -3.381      864.900
12/26/2014  07:14:00      -95.563        2.396       -9.263       21.348       25.139       15.356      455.753      631.991      235.809        0.527        0.066       95.593        7.626        0.006      329.735       -3.340      864.900
12/26/2014  07:15:00      -66.050      -16.510       -1.467       24.866       20.680       12.533      618.337      427.670      157.084        0.292        0.060       68.083       12.307        0.033      329.684       -3.424      864.896
12/26/2014  07:16:00      -81.372      -14.831       -7.507       20.843       22.728       11.629      434.423      516.548      135.228        0.399        0.054       82.713        3.766        0.002      329.715       -3.374      864.889
12/26/2014  07:17:00      -94.643      -13.260       -9.463       15.726       21.775       11.408      247.302      474.148      130.147        0.504        0.043       95.567        6.749        0.005      329.718       -3.366      864.901
12/26/2014  07:18:00      -95.515      -25.572      -11.744       21.029       24.050       12.857      442.201      578.411      165.315        0.555        0.059       98.879       12.832        0.017      329.676       -3.439      864.926
12/26/2014  07:19:00      -77.237      -11.882       -9.087       18.804       24.895       12.832      353.605      619.757      164.663        0.366        0.057       78.145        9.165        0.014      329.712       -3.379      864.941
12/26/2014  07:20:00      -55.326      -22.035        1.105       27.926       26.529       14.964      779.868      703.786      223.924        0.263        0.085       59.553       10.773        0.033      329.648       -3.483      864.944
12/26/2014  07:21:00      -42.430      -22.650        1.571       37.870       16.185       11.143     1434.127      261.941      124.169        0.207        0.091       48.097       14.947        0.097      329.681       -3.428      864.941
12/26/2014  07:22:00      -37.923      -30.918       -6.495       35.450       22.878       11.418     1256.737      523.389      130.368        0.217        0.096       48.929        6.506        0.018      329.763       -3.294      864.945
12/26/2014  07:23:00       -3.309      -44.864        6.702       25.707       19.115       17.335      660.826      365.393      300.517        0.170        0.066       44.986       15.411        0.117      329.783       -3.262      864.941
12/26/2014  07:24:00      -28.092      -33.887        8.734       35.445       37.748       21.615     1256.351     1424.891      467.191        0.258        0.157       44.017       25.286        0.330      329.773       -3.279      864.937
12/26/2014  07:25:00      -24.999      -19.767        6.120       41.556       36.032       22.718     1726.860     1298.287      516.088        0.230        0.177       31.870       15.122        0.225      329.783       -3.261      864.924
12/26/2014  07:26:00      -34.565      -33.421       10.077       47.184       40.394       30.668     2226.302     1631.657      940.501        0.360        0.240       48.080       25.291        0.277      329.836       -3.175      864.906
12/26/2014  07:27:00      -42.877      -74.879        7.513       63.196       41.150       26.952     3993.756     1693.328      726.417        0.696        0.321       86.286       21.599        0.063      329.627       -3.518      864.897
12/26/2014  07:28:00      -77.265      -66.971        8.915       64.143       56.289       31.360     4114.374     3168.456      983.424        0.940        0.413      102.250       29.131        0.081      329.528       -3.678      864.889
12/26/2014  07:29:00     -103.557      -93.265       12.066       66.205       50.212       37.084     4383.081     2521.214     1375.213        1.392        0.414      139.364       35.676        0.066      329.385       -3.914      864.876
12/26/2014  07:30:00      -73.832      -59.922       10.871       48.403       43.363       28.850     2342.830     1880.315      832.309        0.711        0.253       95.089       19.995        0.044      329.351       -3.969      864.875
12/26/2014  07:31:00      -86.298      -81.285       12.214       64.589       56.888       36.339     4171.765     3236.239     1320.529        1.146        0.436      118.552       37.293        0.099      329.375       -3.930      864.869
12/26/2014  07:32:00     -108.829      -88.747        1.027       47.455       40.823       29.527     2251.937     1666.557      871.872        1.225        0.240      140.427       30.058        0.046      329.442       -3.822      864.880
12/26/2014  07:33:00     -134.161      -83.557       -4.030       32.455       30.567       19.498     1053.331      934.330      380.167        1.368        0.118      158.053       18.399        0.014      329.441       -3.823      864.886
12/26/2014  07:34:00     -101.271      -31.436       -0.231       49.680       37.847       25.158     2468.130     1432.397      632.917        0.789        0.227      106.037       23.571        0.049      329.355       -3.963      864.871
12/26/2014  07:35:00     -103.663      -16.389       -7.756       30.002       20.340       15.349      900.093      413.733      235.597        0.631        0.077      104.951       13.810        0.017      329.333       -3.998      864.853
12/26/2014  07:36:00      -85.731        6.919        1.561       25.792       20.293       15.798      665.236      411.793      249.585        0.436        0.066       86.010       15.628        0.033      329.357       -3.961      864.847
12/26/2014  07:37:00      -63.166       26.936        1.571       22.976       20.072       15.560      527.887      402.869      242.116        0.295        0.059       68.669       12.382        0.033      329.239       -4.152      864.858
12/26/2014  07:38:00      -40.043       31.825       -2.130       18.441       18.340       16.487      340.074      336.348      271.809        0.178        0.047       51.149       12.519        0.060      329.183       -4.245      864.872
12/26/2014  07:39:00      -74.145       62.579      -20.465       12.881       16.258       10.863      165.928      264.334      118.015        0.519        0.027       97.024        5.480        0.003      329.104       -4.375      864.884
12/26/2014  07:40:00      -70.254       54.000      -14.519       15.433       23.643       12.249      238.173      558.996      150.047        0.450        0.047       88.609        9.039        0.010      329.233       -4.162      864.887
12/26/2014  07:41:00      -79.129       43.371      -18.638       18.330       21.467       12.491      335.985      460.819      156.018        0.472        0.048       90.235       10.203        0.013      329.207       -4.204      864.889
12/26/2014  07:42:00      -83.121       11.399      -12.849       17.396       18.690       13.306      302.636      349.300      177.059        0.402        0.041       83.899        9.026        0.012      329.201       -4.214      864.884
12/26/2014  07:43:00      -83.936       -9.310      -12.026       20.077       15.377       11.236      403.092      236.448      126.256        0.402        0.038       84.451        8.838        0.011      329.190       -4.231      864.879
12/26/2014  07:44:00      -67.492       -3.475      -11.077       19.059       25.510       11.028      363.232      650.774      121.609        0.291        0.057       67.581        4.203        0.004      329.250       -4.134      864.889
12/26/2014  07:45:00      -39.628       -6.002       -6.226       22.995       11.838        8.319      528.762      140.140       69.207        0.119        0.037       40.080        8.404        0.044      329.318       -4.024      864.903
12/26/2014  07:46:00      -37.825       -6.954      -10.412       12.030       11.317        7.780      144.715      128.072       60.535        0.096        0.017       38.459        3.733        0.009      329.367       -3.942      864.930
12/26/2014  07:47:00      -32.630       -5.433       -4.814        9.621       12.646        8.719       92.569      159.918       76.016        0.072        0.016       33.079        5.960        0.032      329.465       -3.783      864.958
12/26/2014  07:48:00      -38.014      -15.936       -4.147       13.115       13.829        7.220      172.011      191.246       52.125        0.107        0.021       41.220        5.626        0.019      329.438       -3.828      864.993
12/26/2014  07:49:00      -22.288      -11.537       -1.950        9.868        9.878        8.027       97.386       97.568       64.437        0.045        0.013       25.097        5.709        0.052      329.516       -3.698      865.028
12/26/2014  07:50:00      -31.679       -5.288       -5.352        8.587        6.379        6.091       73.740       40.697       37.096        0.061        0.008       32.117        3.770        0.014      329.544       -3.654      865.063
12/26/2014  07:51:00      -41.661      -10.727       -5.475       10.921       11.080        7.543      119.260      122.770       56.890        0.109        0.015       43.019        4.673        0.012      329.525       -3.685      865.086
12/26/2014  07:52:00      -33.646      -16.787       -1.447       16.502       12.344        7.591      272.331      152.376       57.617        0.095        0.024       37.601        4.205        0.013      329.496       -3.730      865.107
12/26/2014  07:53:00      -37.296       -7.153       -8.606        9.668       10.139        8.155       93.463      102.794       66.508        0.089        0.013       37.976        2.994        0.006      329.470       -3.773      865.126
12/26/2014  07:54:00      -61.080        4.821       -9.770       13.016       10.118        7.976      169.413      102.376       63.613        0.209        0.017       61.270        6.042        0.010      329.439       -3.826      865.122
12/26/2014  07:55:00      -75.108       21.163      -10.102        8.600        8.116        7.987       73.965       65.871       63.790        0.320        0.010       78.033        5.935        0.006      329.394       -3.898      865.114
12/26/2014  07:56:00      -70.437       10.000      -16.111       14.461        8.661        7.663      209.119       75.006       58.715        0.283        0.017       71.143        5.664        0.006      329.431       -3.838      865.109
12/26/2014  07:57:00      -70.464        1.909      -12.505       11.252       14.814        9.265      126.603      219.448       85.832        0.278        0.022       70.490        6.175        0.008      329.476       -3.763      865.099
12/26/2014  07:58:00      -87.023      -29.158       -8.593       21.102       19.706       12.149      445.300      388.334      147.592        0.474        0.049       91.778        8.165        0.008      329.396       -3.895      865.110
12/26/2014  07:59:00      -74.231      -11.084       -7.902       37.911       25.459       20.792     1437.268      648.143      432.301        0.411        0.126       75.054       18.923        0.064      329.340       -3.987      865.111
12/26/2014  08:00:00     -107.769      -12.542       -9.141       38.190       31.457       20.846     1458.504      989.571      434.539        0.737        0.144      108.496       18.192        0.028      329.283       -4.080      865.124
12/26/2014  08:01:00      -98.778       -6.774       -7.839       45.064       37.524       23.516     2030.724     1408.068      553.018        0.693        0.200       99.010       22.334        0.051      329.251       -4.133      865.112
12/26/2014  08:02:00      -98.652        6.685       -5.482       36.460       32.366       20.253     1329.337     1047.572      410.189        0.630        0.139       98.878       12.638        0.016      329.261       -4.115      865.117
12/26/2014  08:03:00     -134.715       13.973      -10.088       33.873       26.489       24.917     1147.353      701.668      620.848        1.046        0.123      135.438       21.555        0.025      329.405       -3.881      865.128
12/26/2014  08:04:00     -126.836       -0.948      -12.979       29.869       26.843       14.326      892.131      720.571      205.248        0.904        0.091      126.840       13.597        0.011      329.418       -3.861      865.140
12/26/2014  08:05:00     -138.894        9.888      -14.879       37.746       26.495       21.833     1424.725      702.001      476.692        1.111        0.130      139.246       24.127        0.030      329.424       -3.850      865.149
12/26/2014  08:06:00     -115.406       13.350      -10.630       41.238       29.320       16.156     1700.578      859.674      261.001        0.821        0.141      116.175       15.194        0.017      329.447       -3.813      865.151
12/26/2014  08:07:00     -130.684       13.939      -14.070       30.573       23.287       15.520      934.700      542.297      240.880        0.959        0.086      131.425        9.935        0.006      329.490       -3.742      865.153
12/26/2014  08:08:00     -119.262       20.906      -10.579       19.974       21.539       15.203      398.956      463.937      231.118        0.793        0.055      121.081       10.150        0.007      329.496       -3.731      865.147
12/26/2014  08:09:00     -114.294       17.009      -16.420       18.838       25.262       13.315      354.883      638.151      177.288        0.740        0.059      115.553        4.825        0.002      329.516       -3.700      865.159
12/26/2014  08:10:00     -101.728       17.193      -13.925       23.061       26.825       20.627      531.812      719.568      425.459        0.626        0.084      103.171        7.841        0.006      329.522       -3.689      865.181
12/26/2014  08:11:00      -96.657      -16.353       -7.376       48.908       38.409       25.117     2392.009     1475.272      630.844        0.708        0.225       98.031       22.688        0.054      329.546       -3.651      865.192
12/26/2014  08:12:00      -95.253      -36.143       -5.677       35.858       34.195       17.467     1285.774     1169.266      305.113        0.659        0.138      101.880       14.967        0.022      329.562       -3.625      865.190
12/26/2014  08:13:00     -120.914       -4.670       -9.055       40.937       35.656       24.780     1675.832     1271.347      614.061        0.914        0.178      121.004       25.089        0.043      329.543       -3.656      865.169
12/26/2014  08:14:00     -127.884        9.666      -13.503       36.481       36.156       30.220     1330.868     1307.268      913.270        1.009        0.178      128.248       29.219        0.052      329.547       -3.649      865.141
12/26/2014  08:15:00     -143.625       -9.451      -16.955       36.183       49.870       22.734     1309.214     2487.015      516.828        1.266        0.216      143.935       10.467        0.005      329.601       -3.559      865.114
12/26/2014  08:16:00     -150.791        6.940      -16.305       31.443       52.597       15.906      988.633     2766.496      252.999        1.353        0.200      150.950       14.661        0.009      329.586       -3.583      865.102
12/26/2014  08:17:00     -129.731        5.563      -16.382       49.439       38.744       25.162     2444.259     1501.068      633.135        1.085        0.229      129.850       27.118        0.044      329.625       -3.522      865.101
12/26/2014  08:18:00     -155.019        0.470      -22.190       25.146       34.038       17.502      632.336     1158.614      306.316        1.331        0.105      155.020        9.513        0.004      329.682       -3.428      865.107
12/26/2014  08:19:00     -131.036       10.434      -12.978       35.604       37.448       17.947     1267.659     1402.350      322.107        1.022        0.150      131.451       16.054        0.015      329.694       -3.409      865.119
12/26/2014  08:20:00     -107.457       -2.488      -15.807       28.071       18.975       12.260      787.996      360.065      150.307        0.655        0.065      107.486        5.286        0.002      329.758       -3.303      865.121
12/26/2014  08:21:00      -89.193      -20.419      -13.698       34.032       27.395       22.037     1158.185      750.466      485.631        0.548        0.120       91.501       19.356        0.045      329.820       -3.201      865.119
12/26/2014  08:22:00      -97.864      -15.447       -9.144       29.257       32.142       20.949      855.989     1033.119      438.866        0.611        0.116       99.075       14.131        0.020      329.844       -3.163      865.135
12/26/2014  08:23:00     -103.238      -11.861       -6.061       48.730       30.503       21.112     2374.572      930.437      445.737        0.729        0.188      103.917       25.935        0.062      329.888       -3.092      865.159
12/26/2014  08:24:00      -92.311       -0.394       -5.328       35.692       38.565       24.621     1273.921     1487.282      606.180        0.596        0.168       92.312       19.460        0.044      329.901       -3.070      865.175
12/26/2014  08:25:00     -141.156       14.834      -13.652       23.554       21.231       17.389      554.782      450.748      302.384        1.082        0.065      141.933       12.274        0.007      329.926       -3.029      865.194
12/26/2014  08:26:00     -143.339        0.989       -9.670       39.962       34.837       27.058     1596.936     1213.638      732.137        1.209        0.177      143.342       20.812        0.021      329.988       -2.927      865.209
12/26/2014  08:27:00     -134.038       35.097      -11.988       33.258       23.323       16.672     1106.111      543.953      277.949        1.063        0.096      138.557       12.991        0.009      330.054       -2.819      865.210
12/26/2014  08:28:00      -85.017       10.607       -8.835       43.809       20.235       11.816     1919.222      409.469      139.613        0.494        0.123       85.676       11.497        0.018      330.114       -2.722      865.207
12/26/2014  08:29:00      -41.329       17.470       -9.284       20.403       19.078       12.268      416.262      363.976      150.513        0.151        0.047       44.870        6.952        0.024      330.169       -2.630      865.201
12/26/2014  08:30:00      -43.271       42.383       -6.907       17.173       21.531       14.564      294.906      463.594      212.101        0.234        0.049       60.570       11.069        0.033      330.265       -2.472      865.202
12/26/2014  08:31:00      -43.127       36.115       -8.316       19.424       21.518       14.993      377.290      463.005      224.781        0.215        0.053       56.251        8.650        0.024      330.326       -2.372      865.207
12/26/2014  08:32:00      -31.315       27.777       -0.126       13.761       15.857       13.640      189.359      251.454      186.043        0.119        0.031       41.859        7.699        0.034      330.480       -2.119      865.208
12/26/2014  08:33:00      -38.696       35.965       -7.823       17.964       15.632       10.572      322.714      244.374      111.760        0.177        0.034       52.829        9.551        0.033      330.430       -2.203      865.211
12/26/2014  08:34:00      -37.196        7.145       -6.294       16.103        9.587       11.208      259.321       91.913      125.611        0.098        0.024       37.876        9.632        0.065      330.489       -2.106      865.233
12/26/2014  08:35:00      -29.843       -0.142       -3.133       17.543        7.910        8.055      307.746       62.562       64.878        0.067        0.022       29.843        5.948        0.040      330.522       -2.051      865.261
12/26/2014  08:36:00      -24.441      -16.540       -2.201        6.117        8.334        6.450       37.423       69.452       41.602        0.051        0.007       29.512        4.776        0.026      330.536       -2.027      865.295
12/26/2014  08:37:00      -30.009       -9.827       -5.390       14.486        9.969        9.009      209.842       99.380       81.163        0.071        0.020       31.577        7.078        0.050      330.613       -1.902      865.312
12/26/2014  08:38:00      -49.102      -21.137       -8.777       27.964       22.453       12.837      782.003      504.145      164.784        0.219        0.073       53.458       13.724        0.066      330.542       -2.019      865.320
12/26/2014  08:39:00      -60.347      -16.677       -0.201       28.750       15.426       12.130      826.553      237.964      147.142        0.257        0.061       62.609       10.770        0.030      330.553       -2.000      865.322
12/26/2014  08:40:00      -45.657      -21.294        9.148       28.694       17.310       13.594      823.368      299.634      184.808        0.196        0.065       50.378       10.000        0.039      330.630       -1.875      865.323
12/26/2014  08:41:00      -70.220       -4.958       -4.404       24.787       22.809       13.653      614.388      520.253      186.415        0.315        0.066       70.395       12.990        0.034      330.596       -1.930      865.338
12/26/2014  08:42:00      -66.239      -27.438       -6.841       15.021       13.534       10.861      225.618      183.166      117.963        0.286        0.026       71.697        5.151        0.005      330.632       -1.871      865.351
12/26/2014  08:43:00      -35.077        0.816       -4.691       18.236       26.141       13.194      332.540      683.346      174.077        0.122        0.059       35.086        9.748        0.077      330.644       -1.851      865.349
12/26/2014  08:44:00      -32.899       -0.769       -9.176       20.237        9.680       13.479      409.532       93.707      181.689        0.093        0.034       32.908        5.600        0.029      330.767       -1.649      865.357
12/26/2014  08:45:00      -31.071       -3.422       -6.573       17.470       10.721       10.990      305.199      114.944      120.785        0.078        0.027       31.258        6.263        0.040      330.779       -1.631      865.364
12/26/2014  08:46:00      -26.583       -4.244       -1.241        9.259        9.495        7.874       85.722       90.154       61.996        0.048        0.012       26.919        6.462        0.058      330.777       -1.633      865.379
12/26/2014  08:47:00      -21.793        6.630       -0.251       15.138       12.365        8.676      229.167      152.901       75.275        0.049        0.023       22.779        5.810        0.065      330.943       -1.361      865.409
12/26/2014  08:48:00       13.994        6.446        4.637       22.835       17.392       10.072      521.431      302.477      101.442        0.059        0.046       15.407        8.568        0.309      331.171       -0.985      865.422
12/26/2014  08:49:00       22.726       33.810       43.889       28.569       22.372       26.276      816.213      500.489      690.410        0.280        0.100       40.738       18.114        0.198      331.259       -0.841      865.417
12/26/2014  08:50:00       12.820       22.487       52.170       23.925       35.117       17.233      572.426     1233.187      296.962        0.275        0.105       25.885       15.250        0.347      331.382       -0.639      865.394
12/26/2014  08:51:00       -3.760       45.578       75.235       28.399       39.776       25.138      806.501     1582.098      631.900        0.539        0.151       45.733       23.676        0.268      331.495       -0.452      865.379
12/26/2014  08:52:00        3.423      -21.898       36.449       27.820       37.608       37.680      773.951     1414.332     1419.745        0.271        0.180       22.164       25.670        1.341      331.331       -0.725      865.384
12/26/2014  08:53:00       -3.049       -2.532       55.906       20.415       40.081       18.594      416.771     1606.524      345.747        0.275        0.118        3.963       20.057       25.608      331.447       -0.532      865.382
12/26/2014  08:54:00       10.698        9.103       49.917       24.612       35.583       17.896      605.738     1266.169      320.279        0.244        0.110       14.047       12.770        0.826      331.486       -0.468      865.390
12/26/2014  08:55:00       -9.651       27.720       63.253        9.361       27.263       17.280       87.627      743.259      298.600        0.300        0.056       29.352       17.782        0.367      331.589       -0.298      865.410
12/26/2014  08:56:00       19.058       16.207       39.968       24.694       22.524       25.313      609.785      507.346      640.763        0.199        0.088       25.017       13.043        0.272      331.409       -0.594      865.432
12/26/2014  08:57:00       -0.132       24.963       59.379       18.048       37.411       22.099      325.739     1399.620      488.357        0.318        0.111       24.963       24.141        0.935      331.578       -0.316      865.436
12/26/2014  08:58:00       18.755       31.599       69.501       46.648       33.491       24.769     2176.045     1121.640      613.480        0.505        0.196       36.746       21.638        0.347      331.424       -0.571      865.462
12/26/2014  08:59:00       86.301       77.719       63.105       49.321       43.498       39.346     2432.539     1892.054     1548.113        1.167        0.294      116.138       30.508        0.069      330.967       -1.322      865.486
12/26/2014  09:00:00       33.829       50.745       49.239       43.840       65.206       37.640     1921.962     4251.776     1416.802        0.687        0.380       60.988       38.310        0.395      331.074       -1.145      865.487
12/26/2014  09:01:00        5.869       41.620       54.634       29.498       33.160       25.773      870.122     1099.617      664.271        0.369        0.132       42.032        9.114        0.047      331.430       -0.559      865.486
12/26/2014  09:02:00       47.359       62.322       46.823       40.907       40.040       32.186     1673.416     1603.231     1035.921        0.632        0.216       78.275       20.804        0.071      331.136       -1.043      865.473
12/26/2014  09:03:00       67.715       71.544       30.580       24.131       21.937       23.053      582.309      481.222      531.457        0.612        0.080       98.509       13.000        0.017      330.890       -1.447      865.461
12/26/2014  09:04:00       50.020       34.204       25.377       40.800       27.120       34.834     1664.608      735.495     1213.390        0.396        0.181       60.596       31.789        0.275      331.109       -1.087      865.465
12/26/2014  09:05:00       38.907       53.311       39.709       30.462       29.961       28.361      927.931      897.681      804.354        0.428        0.131       65.999       11.028        0.028      331.371       -0.657      865.495
12/26/2014  09:06:00       -3.314       -4.986       34.603       30.569       41.081       28.306      934.481     1687.675      801.215        0.233        0.171        5.987       25.506       18.148      331.523       -0.406      865.523
12/26/2014  09:07:00       11.255       45.934       62.330       26.817       34.141       28.381      719.148     1165.604      805.489        0.441        0.135       47.293       25.449        0.290      331.431       -0.558      865.540
12/26/2014  09:08:00        2.090       24.974       30.457       21.864       28.587       23.557      478.027      817.224      554.910        0.170        0.093       25.061       13.236        0.279      331.621       -0.246      865.535
12/26/2014  09:09:00       39.198       48.965       29.375       50.366       35.274       25.570     2536.730     1244.237      653.845        0.462        0.222       62.722       18.653        0.088      331.420       -0.577      865.523
12/26/2014  09:10:00       86.957       72.940       -1.374       28.745       33.687       28.605      826.290     1134.811      818.231        0.783        0.139      113.498       23.737        0.044      331.201       -0.936      865.509
12/26/2014  09:11:00       84.577       95.460       -8.752       34.690       24.246       28.640     1203.416      587.845      820.249        0.948        0.131      127.538       14.728        0.013      331.118       -1.073      865.508
12/26/2014  09:12:00       45.810       75.060       -5.936       28.473       31.750       32.093      810.700     1008.066     1029.977        0.531        0.142       87.935       16.968        0.037      331.210       -0.921      865.507
12/26/2014  09:13:00       56.740       54.915        8.074       15.251       22.038       25.944      232.598      485.669      673.090        0.385        0.070       78.963       18.139        0.053      331.288       -0.793      865.498
12/26/2014  09:14:00       95.817       47.908        7.548       29.523       18.189       22.645      871.610      330.826      512.813        0.662        0.086      107.127        9.526        0.008      331.139       -1.039      865.499
12/26/2014  09:15:00      130.709       87.785       11.953       58.391       33.158       41.282     3409.529     1099.453     1704.211        1.557        0.311      157.452       35.701        0.051      331.088       -1.122      865.483
12/26/2014  09:16:00       95.022       76.413       46.382       48.939       46.226       42.260     2394.983     2136.803     1785.866        1.167        0.316      121.935       22.360        0.034      331.253       -0.851      865.499
12/26/2014  09:17:00       82.004       45.121       33.166       42.606       33.499       38.186     1815.312     1122.180     1458.133        0.713        0.220       93.598       26.236        0.079      331.256       -0.846      865.530
12/26/2014  09:18:00      107.065       68.540       42.980       55.778       35.614       42.220     3111.190     1268.333     1782.566        1.208        0.308      127.125       30.777        0.059      331.194       -0.949      865.562
12/26/2014  09:19:00       71.299       56.049       35.322       35.604       42.039       35.442     1267.671     1767.289     1256.150        0.688        0.215       90.692       20.101        0.049      331.413       -0.587      865.595
12/26/2014  09:20:00       95.927       64.651        5.708       31.075       22.131       26.465      965.672      489.768      700.378        0.778        0.108      115.679        9.411        0.007      331.233       -0.884      865.610
12/26/2014  09:21:00       92.421       81.988       -9.249       34.693       26.322       27.991     1203.628      692.830      783.520        0.901        0.134      123.546       17.763        0.021      331.123       -1.064      865.625
12/26/2014  09:22:00       63.563       65.144        9.679       32.481       35.382       26.818     1055.039     1251.904      719.182        0.570        0.151       91.016       23.929        0.069      331.201       -0.936      865.658
12/26/2014  09:23:00      107.262       68.044       11.103       28.849       30.632       30.164      832.244      938.341      909.875        0.947        0.134      127.024       22.193        0.031      331.026       -1.224      865.701
12/26/2014  09:24:00      102.158       68.776        6.481       35.615       27.946       29.165     1268.440      780.975      850.597        0.905        0.145      123.152       19.577        0.025      331.124       -1.063      865.728
12/26/2014  09:25:00      109.408       31.446        2.090       24.759       26.972       31.168      613.002      727.489      971.425        0.764        0.116      113.837       18.598        0.027      331.049       -1.185      865.756
12/26/2014  09:26:00       43.440       44.544       35.000       44.041       43.187       36.477     1939.569     1865.149     1330.548        0.511        0.257       62.219       30.332        0.238      331.374       -0.652      865.780
12/26/2014  09:27:00       59.686       66.240       10.298       29.494       24.387       23.071      869.907      594.713      532.283        0.503        0.100       89.164       14.210        0.025      331.228       -0.891      865.801
12/26/2014  09:28:00       53.568       46.657        7.216       18.552       18.966       20.651      344.177      359.694      426.468        0.311        0.057       71.037       10.483        0.022      331.171       -0.985      865.827
12/26/2014  09:29:00       40.275       37.735        8.290       37.244       25.658       26.001     1387.103      658.317      676.064        0.292        0.136       55.191       18.835        0.116      331.370       -0.658      865.844
12/26/2014  09:30:00       58.153       86.999       65.221       43.410       45.914       45.112     1884.431     2108.126     2035.050        1.061        0.301      104.645       41.596        0.158      331.354       -0.686      865.861
12/26/2014  09:31:00       47.446       38.625       45.681       46.854       43.582       30.764     2195.287     1899.389      946.432        0.543        0.252       61.180       27.487        0.202      331.329       -0.727      865.887
12/26/2014  09:32:00        6.063       33.196       47.419       20.233       22.075       19.458      409.358      487.316      378.615        0.233        0.064       33.745       10.677        0.100      331.556       -0.352      865.911
12/26/2014  09:33:00       15.758       59.234       12.208       32.978       41.254       30.325     1087.521     1701.931      919.598        0.381        0.185       61.294       28.645        0.218      331.487       -0.467      865.937
12/26/2014  09:34:00       37.371       26.624       12.892       39.837       29.983       24.309     1586.996      898.953      590.920        0.267        0.154       45.885       13.351        0.085      331.514       -0.422      865.953
12/26/2014  09:35:00       25.581       40.051       -0.405       28.702       31.095       27.206      823.779      966.909      740.142        0.239        0.127       47.524       19.160        0.163      331.511       -0.426      865.958
12/26/2014  09:36:00       44.163       32.496        9.837       25.193       33.288       29.679      634.693     1108.086      880.858        0.286        0.131       54.830       20.651        0.142      331.507       -0.432      865.967
12/26/2014  09:37:00       25.021       22.430       15.461       47.836       29.605       29.663     2288.322      876.477      879.872        0.271        0.202       33.603       14.616        0.189      331.651       -0.194      865.972
12/26/2014  09:38:00      103.952       70.698        1.220       40.053       35.441       31.283     1604.270     1256.031      978.614        0.982        0.192      125.715       16.930        0.018      331.301       -0.772      865.987
12/26/2014  09:39:00       94.795       73.217        7.073       34.429       21.084       22.316     1185.353      444.521      497.984        0.826        0.106      119.778       14.246        0.014      331.198       -0.942      866.003
12/26/2014  09:40:00       48.548       54.449        7.458       31.303       22.770       19.536      979.907      518.454      381.637        0.363        0.094       72.949       12.431        0.029      331.213       -0.918      866.026
12/26/2014  09:41:00      -10.733       27.761       -0.792       17.818       20.164       17.575      317.498      406.605      308.863        0.096        0.052       29.763        7.150        0.058      331.409       -0.593      866.043
12/26/2014  09:42:00       27.067       65.939       -1.237       28.787       36.978       19.362      828.703     1367.337      374.879        0.383        0.129       71.278       17.601        0.061      331.508       -0.433      866.062
12/26/2014  09:43:00       65.898       64.557      -16.919       23.805       23.060       19.889      566.687      531.746      395.556        0.514        0.075       92.251       15.853        0.030      331.327       -0.729      866.066
12/26/2014  09:44:00       49.179       26.889        1.535       14.876       23.779       15.206      221.296      565.462      231.228        0.208        0.051       56.050       11.791        0.044      331.181       -0.969      866.075
12/26/2014  09:45:00       78.567       47.350       12.473       19.593       14.145       18.795      383.890      200.083      353.244        0.475        0.047       91.732        5.306        0.003      331.246       -0.862      866.077
12/26/2014  09:46:00      133.199       65.130        1.869       32.917       26.177       27.274     1083.539      685.252      743.851        1.225        0.126      148.269        8.000        0.003      331.209       -0.922      866.096
12/26/2014  09:47:00      116.125       83.242        4.037       25.365       22.519       28.197      643.392      507.088      795.097        1.119        0.097      142.878       13.156        0.008      331.228       -0.892      866.096
12/26/2014  09:48:00       81.741       49.627        1.350       22.348       26.325       24.811      499.451      693.025      615.577        0.548        0.090       95.627        9.291        0.009      331.269       -0.824      866.100
12/26/2014  09:49:00       50.389       32.276        0.605       20.975       19.879       14.922      439.969      395.178      222.681        0.232        0.053       59.840        3.905        0.004      331.324       -0.735      866.091
12/26/2014  09:50:00       19.195       17.063       -0.479       10.759       15.427       12.374      115.763      238.007      153.111        0.058        0.025       25.682       10.209        0.158      331.309       -0.758      866.086
12/26/2014  09:51:00       29.318       34.210       24.290       21.600       18.367       22.786      466.557      337.341      519.187        0.197        0.066       45.054       10.826        0.058      331.481       -0.477      866.075
12/26/2014  09:52:00       22.329       18.039       26.183       11.933       11.916       19.812      142.401      141.987      392.496        0.109        0.034       28.705        5.839        0.041      331.541       -0.378      866.058
12/26/2014  09:53:00       66.286       61.145        9.091       44.364       35.899       26.567     1968.162     1288.741      705.801        0.609        0.198       90.181       16.986        0.035      331.511       -0.427      866.058
12/26/2014  09:54:00       74.774       56.481       10.470       50.677       24.165       29.650     2568.122      583.941      879.098        0.646        0.202       93.708       23.694        0.064      331.376       -0.648      866.072
12/26/2014  09:55:00       42.503       56.441       38.627       36.859       32.787       32.457     1358.613     1075.009     1053.487        0.498        0.174       70.655       23.418        0.110      331.596       -0.288      866.100
12/26/2014  09:56:00      100.195       59.409       20.940       45.008       34.149       39.350     2025.701     1166.172     1548.418        0.937        0.237      116.484       20.989        0.032      331.428       -0.562      866.123
12/26/2014  09:57:00       48.300       48.403       40.174       26.047       31.463       24.311      678.438      989.946      591.030        0.427        0.113       68.379       18.933        0.077      331.475       -0.485      866.127
12/26/2014  09:58:00       63.571       44.748       21.458       36.636       30.109       32.195     1342.177      906.522     1036.532        0.489        0.164       77.741       24.348        0.098      331.482       -0.474      866.121
12/26/2014  09:59:00       -0.978      -20.193      -11.471       28.105       14.479       18.073      789.888      209.652      326.621        0.093        0.066       20.217       16.112        0.635      331.369       -0.660      866.125
12/26/2014  10:00:00       11.511       16.242       21.039       13.678       12.937       13.223      187.091      167.373      174.840        0.068        0.026       19.908        7.617        0.146      331.648       -0.202      866.117
12/26/2014  10:01:00        8.794      -10.550       11.167       18.271       33.722       18.816      333.838     1137.188      354.037        0.107        0.091       13.735       20.671        2.265      331.730       -0.067      866.096
12/26/2014  10:02:00       16.685      -18.351      -17.637       30.176       21.498       13.344      910.593      462.148      178.052        0.124        0.078       24.802        4.861        0.038      331.668       -0.168      866.102
12/26/2014  10:03:00      -33.442      -21.376       -4.603       18.747       11.711       12.881      351.457      137.155      165.928        0.113        0.033       39.690        7.702        0.038      331.582       -0.310      866.112
12/26/2014  10:04:00      -31.666      -19.945       -9.069       13.892       10.292       11.740      192.989      105.924      137.820        0.096        0.022       37.424        7.726        0.043      331.517       -0.418      866.119
12/26/2014  10:05:00      -21.702      -14.340        5.422       23.890       10.617       11.426      570.746      112.723      130.560        0.076        0.041       26.012        6.466        0.062      331.836        0.108      866.102
12/26/2014  10:06:00      -36.165      -10.649        5.580       26.276       21.844       11.545      690.425      477.139      133.297        0.138        0.065       37.700        7.536        0.040      331.794        0.040      866.106
12/26/2014  10:07:00      -10.172      -18.121        4.711       34.072       21.594       20.869     1160.905      466.279      435.530        0.126        0.103       20.780       12.783        0.378      331.909        0.228      866.115
12/26/2014  10:08:00        1.941        3.171       19.493       12.524       14.977       12.141      156.854      224.313      147.409        0.046        0.026        3.718        7.233        3.784      332.409        1.053      866.133
12/26/2014  10:09:00       17.799        6.422       14.665       15.202       11.304       18.484      231.092      127.771      341.667        0.064        0.035       18.922       12.556        0.440      332.253        0.796      866.128
12/26/2014  10:10:00       41.634       30.631       16.264       36.396       21.915       26.883     1324.691      480.260      722.712        0.273        0.126       51.688       18.499        0.128      331.931        0.265      866.123
12/26/2014  10:11:00       -0.257       58.659        3.888       28.645       48.033       23.424      820.543     2307.160      548.681        0.357        0.184       58.660       22.562        0.148      332.187        0.688      866.118
12/26/2014  10:12:00       37.614       78.840        6.934       35.224       43.114       32.190     1240.762     1858.818     1036.177        0.591        0.207       87.353       25.366        0.084      332.020        0.412      866.116
12/26/2014  10:13:00       49.531       41.502        2.086       39.859       20.957       25.264     1588.752      439.187      638.268        0.342        0.133       64.620       15.933        0.061      331.877        0.176      866.115
12/26/2014  10:14:00       11.137       18.154       19.180       29.274       25.642       23.872      856.968      657.492      569.884        0.145        0.104       21.298       20.045        0.886      332.280        0.841      866.100
12/26/2014  10:15:00       46.143       46.638       44.115       60.687       47.491       31.966     3682.928     2255.370     1021.852        0.660        0.348       65.607       11.546        0.031      332.349        0.954      866.088
12/26/2014  10:16:00      118.384       86.958       49.347       47.692       38.670       39.992     2274.573     1495.354     1599.395        1.469        0.268      146.889       29.017        0.039      331.880        0.181      866.089
12/26/2014  10:17:00      154.143      148.363       81.748       60.023       47.419       47.617     3602.819     2248.551     2267.358        3.029        0.406      213.944       36.809        0.030      331.723       -0.080      866.065
12/26/2014  10:18:00       87.958       66.556       12.537       57.765       33.433       31.715     3336.745     1117.764     1005.870        0.889        0.273      110.301       23.173        0.044      331.802        0.051      866.077
12/26/2014  10:19:00        2.862       51.097       80.090       46.963       55.021       59.102     2205.506     3027.282     3492.999        0.888        0.436       51.178       47.144        0.849      332.374        0.995      866.059
12/26/2014  10:20:00      134.689       86.383       -2.009       51.935       35.233       32.691     2697.261     1241.374     1068.731        1.531        0.250      160.010       10.541        0.004      331.675       -0.157      866.095
12/26/2014  10:21:00      103.785       91.265       -4.820       45.766       35.524       30.247     2094.494     1261.959      914.885        1.170        0.214      138.206       14.684        0.011      331.673       -0.160      866.120
12/26/2014  10:22:00       72.779       90.828        1.447       48.465       40.944       32.914     2348.848     1676.402     1083.354        0.933        0.255      116.389       19.975        0.029      331.801        0.052      866.133
12/26/2014  10:23:00      116.622       84.118       52.241       48.936       37.870       33.271     2394.709     1434.127     1106.938        1.417        0.247      143.793       24.821        0.030      331.836        0.108      866.117
12/26/2014  10:24:00       79.928       80.251       59.544       71.064       42.491       33.600     5050.157     1805.495     1128.992        1.218        0.399      113.264       34.336        0.092      331.830        0.098      866.120
12/26/2014  10:25:00       36.381       36.682       51.118       52.307       53.929       35.695     2735.990     2908.329     1274.158        0.610        0.346       51.663       27.922        0.292      332.108        0.557      866.136
12/26/2014  10:26:00       97.924      -74.439       22.868       62.672      100.073       59.766     3927.764    10014.583     3571.917        1.658        0.876      123.005       61.634        0.251      332.038        0.442      866.154
12/26/2014  10:27:00       33.088       56.537       61.593       36.121       69.606       43.008     1304.709     4844.970     1849.705        0.804        0.400       65.507       38.885        0.352      331.804        0.055      866.173
12/26/2014  10:28:00       15.759      -19.624       30.833       21.832       57.278       22.093      476.630     3280.727      488.080        0.291        0.212       25.168       16.285        0.419      332.076        0.504      866.177
12/26/2014  10:29:00       15.668       14.180       48.862       26.878       64.682       32.612      722.451     4183.792     1063.572        0.440        0.298       21.132       39.156        3.433      332.128        0.591      866.175
12/26/2014  10:30:00        0.388      -12.846        8.356       20.902       28.467       29.674      436.876      810.357      880.560        0.118        0.106       12.852       20.351        2.507      332.101        0.544      866.171
12/26/2014  10:31:00        2.142       25.720       41.795       17.167       41.185       43.961      294.705     1696.222     1932.589        0.317        0.196       25.809       38.574        2.234      332.218        0.737      866.161
12/26/2014  10:32:00        0.592       40.037       63.782       19.169       24.180       13.216      367.464      584.656      174.667        0.340        0.056       40.041        9.191        0.053      332.294        0.864      866.144
12/26/2014  10:33:00       83.824      101.360       64.573       79.966       38.541       52.167     6394.619     1485.376     2721.399        1.603        0.530      131.531       51.946        0.156      331.930        0.265      866.139
12/26/2014  10:34:00       58.571       58.798       41.267       41.034       29.726       40.942     1683.776      883.629     1676.232        0.642        0.212       82.993       24.101        0.084      331.854        0.138      866.151
12/26/2014  10:35:00      111.093       82.129       21.446       47.399       31.867       33.691     2246.695     1015.495     1135.105        1.197        0.220      138.155       25.131        0.033      331.626       -0.238      866.153
12/26/2014  10:36:00       94.615       55.971       14.604       25.094       23.658       22.699      629.723      559.706      515.237        0.700        0.085      109.931        9.874        0.008      331.729       -0.068      866.157
12/26/2014  10:37:00       60.717       54.425       31.867       46.430       31.101       29.787     2155.775      967.275      887.240        0.584        0.201       81.539       12.226        0.022      331.951        0.298      866.145
12/26/2014  10:38:00       28.794        8.815       14.343       42.388       25.293       24.451     1796.775      639.760      597.835        0.207        0.152       30.113       25.285        0.705      332.182        0.679      866.155
12/26/2014  10:39:00       31.131        8.569       25.182       26.108       45.668       22.535      681.647     2085.527      507.811        0.248        0.164       32.289       13.703        0.180      332.056        0.471      866.135
12/26/2014  10:40:00       28.211       42.789       40.160       29.501       27.635       22.303      870.288      763.674      497.415        0.319        0.107       51.252       15.411        0.090      332.086        0.521      866.089
12/26/2014  10:41:00      -35.042       -7.003        5.638       25.254       31.713       16.722      637.754     1005.699      279.614        0.162        0.096       35.735       10.142        0.081      332.088        0.524      866.058
12/26/2014  10:42:00      -26.991      -36.535       -5.429       40.289       35.380       20.526     1623.204     1251.759      421.322        0.269        0.165       45.424       12.642        0.077      332.209        0.723      866.019
12/26/2014  10:43:00      -14.691      -24.818       12.150       31.511       43.933       23.878      992.928     1930.122      570.169        0.224        0.175       28.840       25.382        0.775      332.458        1.135      866.011
12/26/2014  10:44:00       -1.968      -19.148       34.953       19.352       36.238       19.690      374.482     1313.192      387.679        0.183        0.104       19.249       18.161        0.890      332.687        1.512      865.999
12/26/2014  10:45:00      -24.097       -2.009       14.314       34.916       32.436       20.335     1219.106     1052.077      413.530        0.174        0.134       24.181       11.939        0.244      332.523        1.241      866.001
12/26/2014  10:46:00      -39.307       22.265       35.054       30.866       27.968       23.373      952.727      782.232      546.291        0.277        0.114       45.174       19.315        0.183      332.488        1.185      866.017
12/26/2014  10:47:00       89.202       81.953       53.459       80.389       68.210       54.238     6462.359     4652.641     2941.717        1.579        0.703      121.133       57.942        0.229      332.012        0.398      866.030
12/26/2014  10:48:00       41.742      -37.808        7.120       66.668       73.732       29.032     4444.583     5436.398      842.877        0.697        0.536       56.319       32.415        0.331      331.730       -0.065      866.018
12/26/2014  10:49:00        3.721       -7.551       32.268       18.205       48.906       26.935      331.410     2391.817      725.506        0.228        0.172        8.418       31.921       14.379      332.203        0.714      866.017
12/26/2014  10:50:00      -31.182       -5.203        9.202       20.747       18.221       23.543      430.435      332.012      554.285        0.120        0.066       31.613       16.338        0.267      332.173        0.664      866.013
12/26/2014  10:51:00       -4.311       21.975        7.777       22.519       30.513       19.034      507.111      931.029      362.285        0.118        0.090       22.394       16.882        0.568      332.336        0.933      865.986
12/26/2014  10:52:00       10.591       21.153       37.241       19.587       15.780       15.876      383.663      249.024      252.063        0.142        0.044       23.656       10.252        0.188      332.467        1.149      865.980
12/26/2014  10:53:00        0.593       10.197        1.282       31.720       42.222       20.801     1006.174     1782.664      432.676        0.166        0.161       10.215       13.710        1.802      332.165        0.650      865.972
12/26/2014  10:54:00      -69.535      -87.190        2.269       35.854       45.891       25.662     1285.543     2105.962      658.561        0.825        0.203      111.522       13.973        0.016      331.956        0.305      865.963
12/26/2014  10:55:00      -56.501      -73.421       -4.765       69.120       57.379       32.933     4777.642     3292.319     1084.585        0.888        0.458       92.644       16.723        0.033      332.072        0.496      865.962
12/26/2014  10:56:00        2.238      -66.907        3.476       35.987       54.950       34.014     1295.030     3019.462     1156.921        0.498        0.274       66.945       22.086        0.109      332.354        0.961      865.942
12/26/2014  10:57:00       -1.250      -63.857       30.780       28.689       35.919       28.261      823.052     1290.202      798.658        0.397        0.146       63.869        9.862        0.024      332.365        0.980      865.932
12/26/2014  10:58:00       -0.518      -76.698       10.677       44.987       74.052       37.617     2023.851     5483.763     1415.048        0.746        0.446       76.700       30.308        0.156      332.269        0.821      865.942
12/26/2014  10:59:00       66.021      -39.760       32.573       61.491       87.457       50.636     3781.153     7648.673     2564.016        1.049        0.700       77.069       60.151        0.609      332.290        0.856      865.927
12/26/2014  11:00:00       58.838      -78.054        1.656       62.634       67.603       39.852     3923.071     4570.165     1588.187        0.982        0.504       97.746       47.464        0.236      332.320        0.906      865.923
12/26/2014  11:01:00      151.474     -134.454       -4.497      128.192      157.544       90.151    16433.238    24820.178     8127.137        4.520        2.469      202.539      116.507        0.331      331.948        0.291      865.905
12/26/2014  11:02:00       26.966       25.527       84.599       74.719      156.712      102.502     5582.873    24558.798    10506.561        2.458        2.032       37.132      121.110       10.638      331.999        0.375      865.912
12/26/2014  11:03:00      133.276     -152.099      -42.497       94.296      111.206       58.963     8891.672    12366.817     3476.604        3.371        1.237      202.229       66.228        0.107      331.995        0.367      865.916
12/26/2014  11:04:00       71.473     -123.819      -11.652       70.525       63.082       51.307     4973.771     3979.327     2632.422        1.608        0.579      142.967       42.459        0.088      332.004        0.384      865.967
12/26/2014  11:05:00       59.458      -42.485       21.365       59.258       91.482       60.055     3511.538     8368.991     3606.545        1.064        0.774       73.077       65.087        0.793      332.038        0.442      865.980
12/26/2014  11:06:00       92.812     -116.723      -26.293       35.024       49.619       36.635     1226.677     2462.034     1342.110        1.398        0.252      149.125       15.345        0.011      331.961        0.313      865.984
12/26/2014  11:07:00       17.621      -14.865       37.720       41.233       53.617       46.215     1700.137     2874.795     2135.867        0.433        0.336       23.053       41.842        3.294      332.121        0.579      865.975
12/26/2014  11:08:00      -13.941       -0.204       51.743       20.347       39.272       20.688      413.993     1542.307      427.983        0.263        0.119       13.943       18.027        1.672      332.292        0.860      865.960
12/26/2014  11:09:00       28.376      -53.248       20.304       51.107       57.294       41.963     2611.913     3282.558     1760.920        0.585        0.383       60.337       26.058        0.187      332.110        0.560      865.965
12/26/2014  11:10:00       10.133       30.069       19.948       42.967       34.958       31.793     1846.195     1222.054     1010.803        0.274        0.204       31.731       25.152        0.628      331.932        0.266      865.963
12/26/2014  11:11:00      -46.352      -23.110        8.238       46.520       39.732       29.551     2164.145     1578.634      873.278        0.368        0.231       51.794       29.837        0.332      332.229        0.755      865.939
12/26/2014  11:12:00      -17.167      -12.831        8.472       48.372       34.762       21.190     2339.891     1208.424      449.005        0.226        0.200       21.432       26.340        1.511      332.187        0.686      865.921
12/26/2014  11:13:00       -4.203      -54.871        8.622       34.899       45.349       27.728     1217.915     2056.499      768.863        0.357        0.202       55.032       14.463        0.069      332.053        0.466      865.896
12/26/2014  11:14:00      -30.918      -23.997        9.160       55.228       37.829       29.082     3050.123     1431.047      845.768        0.347        0.266       39.138       25.817        0.435      332.083        0.516      865.865
12/26/2014  11:15:00       -1.705      -10.804        9.616       25.638       30.531       25.716      657.297      932.115      661.308        0.123        0.113       10.938       19.800        3.277      332.335        0.930      865.836
12/26/2014  11:16:00       -0.435      -17.178       18.309       18.564       32.633       21.536      344.607     1064.941      463.800        0.125        0.094       17.184       17.706        1.062      332.508        1.217      865.818
12/26/2014  11:17:00       56.263       57.985       52.424       52.724       33.620       29.079     2779.814     1130.277      845.573        0.701        0.238       80.795       18.380        0.052      332.298        0.869      865.809
12/26/2014  11:18:00       85.280       62.772       56.318       52.011       43.138       24.333     2705.144     1860.875      592.082        0.977        0.258      105.892        8.767        0.007      332.139        0.607      865.793
12/26/2014  11:19:00        0.718      -26.840       -3.623       51.634       61.983       21.835     2666.042     3841.883      476.759        0.386        0.349       26.850       19.141        0.508      332.231        0.759      865.798
12/26/2014  11:20:00      -30.826      -47.519        7.449       31.718       34.591       20.201     1006.002     1196.503      408.093        0.294        0.131       56.642        9.755        0.030      332.490        1.187      865.796
12/26/2014  11:21:00       21.459       30.771       67.070       32.165       65.761       33.023     1034.579     4324.568     1090.526        0.618        0.322       37.515       34.760        0.859      332.620        1.402      865.796
12/26/2014  11:22:00       53.186       10.361       48.271       57.174       66.883       44.317     3268.869     4473.301     1963.976        0.748        0.485       54.185       36.023        0.442      332.603        1.372      865.798
12/26/2014  11:23:00       45.612      -92.857       -3.401       52.039       86.863       46.668     2708.038     7545.241     2177.942        1.157        0.622      103.455       37.154        0.129      332.467        1.148      865.793
12/26/2014  11:24:00       79.867       94.725       80.847       66.365       50.771       44.891     4404.289     2577.726     2015.201        1.544        0.450      123.901       38.660        0.097      332.445        1.113      865.791
12/26/2014  11:25:00        9.540       58.451       -0.203       32.243       48.934       29.241     1039.609     2394.565      855.058        0.390        0.214       59.224       16.113        0.074      332.402        1.042      865.767
12/26/2014  11:26:00      102.392      -84.578       10.752       78.919       89.288       58.097     6228.229     7972.260     3375.280        1.766        0.879      132.807       67.227        0.256      332.383        1.010      865.738
12/26/2014  11:27:00       58.611      -30.794       22.148       44.704      107.223       67.479     1998.425    11496.776     4553.415        1.146        0.902       66.208       78.082        1.391      332.545        1.276      865.716
12/26/2014  11:28:00       18.730       58.845       90.769       49.171       99.707       56.850     2417.788     9941.500     3231.915        1.382        0.780       61.754       64.620        1.095      332.522        1.240      865.699
12/26/2014  11:29:00       70.331       10.082       63.116       67.056       99.341       64.829     4496.494     9868.675     4202.828        1.380        0.928       71.050       74.994        1.114      332.449        1.119      865.695
12/26/2014  11:30:00       94.220       57.504       59.416       93.754       78.044       53.764     8789.770     6090.903     2890.523        1.674        0.889      110.381       48.047        0.189      332.533        1.257      865.680
12/26/2014  11:31:00       87.119     -132.625       -1.688       49.817       53.144       40.063     2481.781     2824.322     1605.046        1.605        0.346      158.679       37.574        0.056      332.391        1.022      865.684
12/26/2014  11:32:00       39.611       37.146       75.242       47.282       49.591       26.141     2235.628     2459.224      683.328        0.699        0.269       54.303       24.916        0.211      332.623        1.406      865.690
12/26/2014  11:33:00       94.498       66.411       63.600       28.231       28.882       40.475      797.003      834.155     1638.264        1.033        0.163      115.501       17.363        0.023      332.175        0.668      865.697
12/26/2014  11:34:00       26.793      -28.081       -0.220       24.935       32.456       25.375      621.741     1053.424      643.902        0.191        0.116       38.812       18.896        0.237      332.089        0.525      865.716
12/26/2014  11:35:00        9.724      -15.202       21.898       22.425       36.554       26.783      502.894     1336.230      717.325        0.168        0.128       18.046       22.553        1.562      332.561        1.304      865.695
12/26/2014  11:36:00       45.492      -65.653        1.047       39.216       56.587       35.226     1537.882     3202.057     1240.868        0.618        0.299       79.874       36.646        0.210      332.465        1.145      865.679
12/26/2014  11:37:00       12.922       36.634       65.426       30.121       53.533       29.105      907.300     2865.812      847.094        0.520        0.231       38.846       30.376        0.611      332.600        1.369      865.679
12/26/2014  11:38:00       82.602       68.424       46.097       47.665       44.371       41.533     2271.937     1968.771     1725.021        0.980        0.298      107.261       32.978        0.095      332.282        0.844      865.679
12/26/2014  11:39:00      100.466       41.261       34.290       53.610       50.780       41.162     2874.048     2578.609     1694.336        1.006        0.357      108.608       40.284        0.138      332.190        0.692      865.688
12/26/2014  11:40:00       32.098       53.944       56.497       40.727       36.822       33.347     1658.687     1355.848     1112.040        0.563        0.206       62.772       21.128        0.113      332.548        1.282      865.681
12/26/2014  11:41:00       42.822       60.596       92.083       45.445       83.214       51.141     2065.248     6924.512     2615.420        1.279        0.580       74.199       58.425        0.620      332.497        1.197      865.649
12/26/2014  11:42:00       86.749       51.950       52.091       79.320       90.686       51.882     6291.634     8223.860     2691.757        1.507        0.860      101.115       48.397        0.229      332.570        1.319      865.616
12/26/2014  11:43:00      186.608      105.684       35.397       67.199       57.243       61.445     4515.681     3276.726     3775.500        2.940        0.578      214.456       37.523        0.031      332.401        1.037      865.606
12/26/2014  11:44:00      124.768      102.765       16.369       76.949       62.117       59.766     5921.175     3858.471     3571.968        1.987        0.668      161.641       37.335        0.053      332.281        0.841      865.601
12/26/2014  11:45:00      128.947       68.764       11.695      110.037       70.714       38.746    12108.077     5000.500     1501.231        2.005        0.930      146.137       28.472        0.038      332.322        0.907      865.598
12/26/2014  11:46:00       70.738       64.460        7.291       55.080       31.362       40.162     3033.840      983.558     1612.954        0.742        0.282       95.703       28.453        0.088      332.184        0.681      865.612
12/26/2014  11:47:00       56.173       41.335      -17.383       39.056       36.315       30.726     1525.408     1318.771      944.091        0.448        0.189       69.742       21.685        0.097      332.194        0.700      865.607
12/26/2014  11:48:00       53.103       50.962        4.101       41.146       32.031       26.730     1693.026     1025.961      714.476        0.443        0.172       73.601       20.599        0.078      332.240        0.774      865.605
12/26/2014  11:49:00       42.608       41.475        2.010       41.595       34.916       20.584     1730.106     1219.108      423.684        0.346        0.169       59.461       13.036        0.048      332.479        1.168      865.607
12/26/2014  11:50:00       29.767       83.662      -12.336       36.939       66.602       27.639     1364.516     4435.862      763.922        0.730        0.328       88.800       34.579        0.152      332.615        1.395      865.602
12/26/2014  11:51:00       46.053       93.394       -0.521       26.841       56.897       37.904      720.460     3237.306     1436.734        0.812        0.270      104.131       33.598        0.104      332.386        1.014      865.591
12/26/2014  11:52:00       31.304       82.703       69.950       52.203       54.931       86.593     2725.120     3017.445     7498.292        1.297        0.662       88.429       66.535        0.566      332.548        1.280      865.582
12/26/2014  11:53:00      100.669       91.519       55.717       44.329       46.490       52.015     1965.069     2161.274     2705.514        1.422        0.342      136.052       33.988        0.062      332.264        0.813      865.563
12/26/2014  11:54:00       83.690      152.969      126.568       66.947       68.701       72.864     4481.932     4719.769     5309.100        3.046        0.726      174.366       64.916        0.139      332.416        1.062      865.531
12/26/2014  11:55:00       38.706       84.595       74.034       77.757       70.864       37.425     6046.096     5021.707     1400.631        1.330        0.623       93.029       36.799        0.156      332.503        1.207      865.508
12/26/2014  11:56:00       46.161     -117.139      -15.957       72.865       74.892       50.197     5309.290     5608.845     2519.745        1.477        0.672      125.906       52.618        0.175      332.570        1.318      865.500
12/26/2014  11:57:00       93.337     -123.437      -11.597       79.990       77.755       50.064     6398.384     6045.799     2506.365        1.951        0.748      154.753       56.575        0.134      332.550        1.285      865.499
12/26/2014  11:58:00       29.708      -93.013       -7.378       55.556       69.315       41.602     3086.425     4804.630     1730.738        0.960        0.481       97.642       48.003        0.242      332.684        1.506      865.495
12/26/2014  11:59:00       72.807     -132.780      -28.983       78.706       71.200       38.719     6194.603     5069.504     1499.180        1.826        0.638      151.431       38.707        0.065      332.528        1.246      865.469
12/26/2014  12:00:00       90.476      -96.833       -8.865       69.927       70.220       35.493     4889.798     4930.843     1259.763        1.436        0.554      132.524       41.426        0.098      332.430        1.087      865.476
12/26/2014  12:01:00       26.521        0.450       32.708       33.211       70.508       45.189     1102.991     4971.396     2042.056        0.494        0.406       26.525       46.319        3.049      332.623        1.405      865.479
12/26/2014  12:02:00       62.072      -79.357       -3.140       53.607       53.098       37.151     2873.682     2819.437     1380.231        0.862        0.354      100.749       37.422        0.138      332.699        1.532      865.480
12/26/2014  12:03:00       63.506     -154.416      -14.570       83.902       69.699       48.244     7039.548     4857.882     2327.469        2.115        0.711      166.965       34.205        0.042      332.775        1.655      865.463
12/26/2014  12:04:00       72.553       15.264       65.388       74.870      102.241       65.502     5605.481    10453.215     4290.533        1.506        1.017       74.141       69.503        0.879      332.757        1.627      865.471
12/26/2014  12:05:00       82.211     -116.475       -2.521       44.225       54.915       33.757     1955.826     3015.691     1139.553        1.322        0.306      142.566       31.111        0.048      332.473        1.157      865.474
12/26/2014  12:06:00       33.010      -67.841       14.057       38.270       47.119       27.446     1464.601     2220.217      753.275        0.516        0.222       75.445       26.822        0.126      332.646        1.443      865.484
12/26/2014  12:07:00      -49.306       18.930       17.043       49.270       36.083       29.168     2427.519     1302.013      850.764        0.383        0.229       52.815       29.894        0.320      332.787        1.676      865.496
12/26/2014  12:08:00       11.287       18.631       19.645       29.737       31.026       22.631      884.267      962.642      512.182        0.161        0.118       21.784       14.150        0.422      332.854        1.788      865.484
12/26/2014  12:09:00        8.043       11.764        7.189       31.598       29.578       37.041      998.433      874.849     1372.022        0.175        0.162       14.250       21.382        2.251      332.880        1.832      865.456
12/26/2014  12:10:00      -83.374       -2.594       -5.491       56.634       34.060       23.777     3207.398     1160.102      565.327        0.596        0.247       83.415       19.963        0.057      332.626        1.411      865.439
12/26/2014  12:11:00      -86.426      -42.875        5.902       45.956       39.134       27.383     2111.919     1531.458      749.849        0.687        0.220       96.477       29.377        0.093      332.576        1.329      865.422
12/26/2014  12:12:00      -38.937      -28.336        3.323       32.891       29.257       18.074     1081.837      856.000      326.663        0.230        0.113       48.156       14.766        0.094      332.691        1.519      865.410
12/26/2014  12:13:00      -63.424        1.264       -0.689       43.661       39.373       24.491     1906.316     1550.241      599.817        0.404        0.203       63.437       21.573        0.116      332.617        1.396      865.404
12/26/2014  12:14:00     -108.369      -16.428        3.960       53.050       45.751       28.156     2814.350     2093.168      792.765        0.886        0.285      109.607       29.780        0.074      332.591        1.353      865.404
12/26/2014  12:15:00      -96.768       -9.754       -6.711       42.538       38.134       22.603     1809.501     1454.210      510.907        0.664        0.189       97.258       16.722        0.030      332.500        1.204      865.417
12/26/2014  12:16:00      -93.112      -13.879       -4.661       44.490       42.782       19.013     1979.346     1830.341      361.505        0.653        0.209       94.141       23.501        0.062      332.541        1.271      865.434
12/26/2014  12:17:00       17.003       28.588        2.837       26.186       30.277       23.022      685.695      916.714      530.012        0.162        0.107       33.262       14.324        0.185      332.746        1.611      865.439
12/26/2014  12:18:00        7.752       -2.454       11.338       27.101       29.896       21.815      734.467      893.784      475.878        0.115        0.105        8.131       17.525        4.645      332.758        1.630      865.437
12/26/2014  12:19:00        0.018      -26.452       17.114       33.452       36.334       27.451     1119.050     1320.179      753.564        0.209        0.160       26.452       21.137        0.639      332.721        1.568      865.433
12/26/2014  12:20:00      -19.825       26.234       -7.557       46.276       28.412       17.127     2141.447      807.216      293.321        0.219        0.162       32.882        8.786        0.071      332.645        1.444      865.422
12/26/2014  12:21:00       26.123       25.326       14.861       37.339       18.328       21.149     1394.206      335.929      447.262        0.186        0.109       36.384       18.942        0.271      332.820        1.731      865.396
12/26/2014  12:22:00       47.375       39.313       11.161       40.740       25.744       22.102     1659.761      662.763      488.479        0.336        0.141       61.562       16.375        0.071      332.652        1.454      865.375
12/26/2014  12:23:00       61.620       45.316       -0.394       51.410       38.011       28.234     2643.025     1444.826      797.162        0.537        0.244       76.489       12.807        0.028      332.642        1.436      865.377
12/26/2014  12:24:00       12.381       65.275        5.451       35.404       65.071       33.780     1253.457     4234.175     1141.089        0.553        0.331       66.439       36.675        0.305      332.717        1.560      865.396
12/26/2014  12:25:00      -48.246      139.325       -9.175       39.355       69.628       33.530     1548.833     4848.100     1124.264        1.467        0.376      147.442       38.271        0.067      332.693        1.521      865.422
12/26/2014  12:26:00      -43.065      179.386      -20.102       45.810       42.532       30.677     2098.601     1808.947      941.062        1.964        0.242      184.483       18.184        0.010      332.554        1.291      865.434
12/26/2014  12:27:00      -39.563      253.339      -33.378       48.924       59.143       31.391     2393.553     3497.888      985.369        3.687        0.344      256.410       29.728        0.013      332.482        1.169      865.427
12/26/2014  12:28:00      -72.114      120.334      -25.241       37.066       59.437       27.072     1373.923     3532.766      732.882        1.298        0.282      140.288       24.548        0.031      332.467        1.149      865.438
12/26/2014  12:29:00      -10.180       93.131       -8.446       17.738       40.831       19.198      314.638     1667.148      368.555        0.560        0.118       93.686       20.652        0.049      332.411        1.057      865.421
12/26/2014  12:30:00       46.968       34.929       16.764       44.145       30.459       22.488     1948.817      927.741      505.721        0.354        0.169       58.532       23.798        0.165      332.580        1.335      865.409
12/26/2014  12:31:00       49.048       12.481        9.597       44.236       53.354       38.252     1956.864     2846.660     1463.199        0.446        0.313       50.611       24.806        0.240      332.622        1.404      865.399
12/26/2014  12:32:00        6.883       26.252        2.542       34.393       33.190       25.308     1182.889     1101.601      640.478        0.183        0.146       27.139       18.145        0.447      332.848        1.778      865.388
12/26/2014  12:33:00       -8.734       50.972        5.324       28.236       70.861       28.503      797.273     5021.331      812.400        0.467        0.332       51.715       26.698        0.267      332.808        1.711      865.388
12/26/2014  12:34:00        6.322      -13.286       -5.176       33.423       49.203       21.589     1117.078     2420.969      466.090        0.212        0.200       14.714       25.486        3.000      332.468        1.150      865.385
12/26/2014  12:35:00        4.735      -19.796      -14.207       43.496       47.431       31.362     1891.910     2249.659      983.550        0.287        0.256       20.355       24.553        1.455      332.467        1.149      865.372
12/26/2014  12:36:00       15.550       86.637        1.138       36.279       77.605       31.636     1316.197     6022.556     1000.863        0.804        0.417       88.021       40.715        0.214      332.589        1.349      865.373
12/26/2014  12:37:00       31.588      139.814      -14.744       65.620       59.548       37.415     4305.990     3545.983     1399.857        1.501        0.463      143.338       34.493        0.058      332.642        1.437      865.393
12/26/2014  12:38:00     -141.123      176.172      -38.366       68.277       84.848       49.917     4661.694     7199.123     2491.756        3.339        0.718      225.726       55.930        0.061      332.611        1.384      865.427
12/26/2014  12:39:00      -87.915      195.242      -15.621       57.951       71.881       47.509     3358.356     5166.855     2257.151        2.844        0.539      214.123       43.999        0.042      332.683        1.504      865.433
12/26/2014  12:40:00      -81.256      158.758      -22.028       75.381       65.189       47.163     5682.353     4249.604     2224.347        2.222        0.608      178.344       48.776        0.075      332.668        1.478      865.417
12/26/2014  12:41:00      -36.864      121.398       -1.665       48.330       49.409       28.892     2335.834     2441.217      834.747        1.085        0.281      126.872       25.709        0.041      332.786        1.675      865.400
12/26/2014  12:42:00      -36.784       39.212       21.501       55.494       48.751       34.628     3079.589     2376.623     1199.115        0.500        0.333       53.765       21.802        0.164      332.940        1.930      865.373
12/26/2014  12:43:00       -9.394      218.188      -33.145       53.427      110.230       31.679     2854.395    12150.605     1003.543        3.240        0.800      218.390       45.265        0.043      332.719        1.562      865.363
12/26/2014  12:44:00       10.817      202.854      -30.721       35.744       53.866       28.055     1277.648     2901.508      787.059        2.359        0.248      203.142       25.871        0.016      332.496        1.195      865.354
12/26/2014  12:45:00      -22.004      172.822      -27.234       22.138       36.004       19.083      490.071     1296.261      364.180        1.662        0.108      174.217       17.673        0.010      332.485        1.178      865.341
12/26/2014  12:46:00       28.665      201.335      -16.694       67.632       91.265       56.725     4574.030     8329.376     3217.697        2.888        0.806      203.366       62.152        0.093      332.694        1.518      865.325
12/26/2014  12:47:00       28.176      303.130      -38.113       57.272      110.777       49.172     3280.092    12271.486     2417.905        5.605        0.898      304.437       57.253        0.035      332.504        1.208      865.316
12/26/2014  12:48:00       27.133       90.918       10.500       60.033       76.779       36.717     3603.908     5895.071     1348.123        0.998        0.542       94.881       36.880        0.151      332.628        1.414      865.321
12/26/2014  12:49:00       41.540      122.642       -5.110       48.637       74.338       41.796     2365.596     5526.170     1746.902        1.321        0.482      129.486       41.953        0.105      332.659        1.465      865.345
12/26/2014  12:50:00      100.540       63.216       10.677       72.202       47.861       48.733     5213.090     2290.689     2374.871        1.205        0.494      118.763       24.236        0.042      332.670        1.483      865.369
12/26/2014  12:51:00      106.592      114.533       -1.613       85.004       47.591       32.549     7225.752     2264.856     1059.460        1.751        0.528      156.459       27.556        0.031      332.584        1.340      865.375
12/26/2014  12:52:00       61.299       76.575       -6.168       45.665       37.099       32.669     2085.303     1376.356     1067.276        0.709        0.226       98.088       20.221        0.042      332.567        1.313      865.346
12/26/2014  12:53:00       63.145       98.504       -1.252       62.278       60.104       39.645     3878.581     3612.483     1571.695        1.138        0.453      117.006       37.163        0.101      332.508        1.217      865.290
12/26/2014  12:54:00       25.780      107.281       -4.340       52.715       57.862       43.608     2778.902     3348.042     1901.683        1.011        0.401      110.335       34.253        0.096      332.519        1.233      865.252
12/26/2014  12:55:00      -51.932      179.853      -30.903       72.875       62.693       30.685     5310.721     3930.428      941.599        2.309        0.509      187.200       19.391        0.011      332.501        1.202      865.269
12/26/2014  12:56:00      -48.772       98.386      -12.235       31.202       39.714       27.401      973.577     1577.187      750.815        0.775        0.165      109.811       27.601        0.063      332.588        1.347      865.307
12/26/2014  12:57:00        7.180       82.129       -0.252       28.450       46.548       29.487      809.392     2166.670      869.480        0.532        0.192       82.442       25.651        0.097      332.676        1.495      865.351
12/26/2014  12:58:00       23.915       85.595       -2.596       26.669       40.465       28.593      711.231     1637.421      817.532        0.554        0.158       88.873       26.279        0.087      332.486        1.180      865.375
12/26/2014  12:59:00       90.251       24.178       -6.551       29.995       46.845       23.968      899.675     2194.482      574.468        0.622        0.183       93.433       12.305        0.017      332.419        1.068      865.375
12/26/2014  13:00:00       -9.723       -0.979       13.839       26.810       20.657       13.507      718.769      426.692      182.428        0.081        0.066        9.773        7.680        0.618      332.616        1.395      865.341
12/26/2014  13:01:00        5.362       19.928       47.219       34.592       56.259       37.517     1196.617     3165.116     1407.554        0.421        0.288       20.636       28.897        1.961      332.766        1.643      865.329
12/26/2014  13:02:00       58.187       -6.167       42.569       55.760       54.222       33.259     3109.126     2940.046     1106.149        0.619        0.358       58.513       28.020        0.229      332.714        1.556      865.322
12/26/2014  13:03:00       55.850       39.520       44.417       29.515       25.952       27.705      871.107      673.511      767.591        0.448        0.116       68.418       14.770        0.047      332.634        1.425      865.325
12/26/2014  13:04:00       46.481       28.019       46.340       40.380       51.835       31.794     1630.504     2686.881     1010.879        0.521        0.266       54.273       33.673        0.385      332.656        1.461      865.326
12/26/2014  13:05:00      135.608      121.372      109.076       92.142       73.449       72.306     8490.100     5394.697     5228.213        3.206        0.956      181.991       58.611        0.104      332.647        1.444      865.340
12/26/2014  13:06:00      185.259      120.713       70.926      119.648       90.218       64.378    14315.562     8139.287     4144.575        4.026        1.330      221.116       40.563        0.034      332.619        1.397      865.331
12/26/2014  13:07:00      258.893      165.436       39.748       91.526       84.656       61.776     8377.009     7166.585     3816.329        5.766        0.968      307.237       43.236        0.020      332.579        1.329      865.344
12/26/2014  13:08:00      136.800      101.071       26.064      100.983       57.952       58.370    10197.466     3358.476     3407.031        2.328        0.848      170.087       37.303        0.048      332.558        1.296      865.352
12/26/2014  13:09:00      136.583      101.960       73.166       97.201       73.938       75.400     9447.986     5466.828     5685.109        2.750        1.030      170.443       53.894        0.100      332.640        1.432      865.342
12/26/2014  13:10:00      205.483      101.523       69.826      107.660       64.724       69.343    11590.697     4189.177     4808.457        3.899        1.029      229.195       60.421        0.069      332.665        1.473      865.327
12/26/2014  13:11:00      138.460       99.819       62.808       86.273       70.771       76.145     7443.082     5008.595     5798.006        2.566        0.912      170.690       50.814        0.089      332.730        1.581      865.309
12/26/2014  13:12:00       57.286       56.891       59.483       72.483       62.106       51.830     5253.832     3857.203     2686.385        1.092        0.590       80.736       48.792        0.365      333.012        2.048      865.281
12/26/2014  13:13:00      151.920       84.693       45.083       93.188       57.304       54.902     8684.067     3283.695     3014.242        2.363        0.749      173.933       42.776        0.060      332.813        1.719      865.273
12/26/2014  13:14:00      115.572       79.047       64.148       57.458       72.134       52.926     3301.444     5203.328     2801.137        1.751        0.565      140.019       44.668        0.102      332.852        1.783      865.279
12/26/2014  13:15:00       38.570      103.294      111.368       66.246       49.129       34.762     4388.473     2413.651     1208.413        1.628        0.401      110.260       34.266        0.097      332.798        1.695      865.275
12/26/2014  13:16:00       34.459       73.526       95.059       48.792       51.764       32.598     2380.701     2679.544     1062.628        1.088        0.306       81.201       29.665        0.133      332.689        1.515      865.268
12/26/2014  13:17:00       51.041       43.997       75.081       64.052       35.453       31.391     4102.604     1256.946      985.412        0.826        0.317       67.386       22.114        0.108      332.652        1.453      865.270
12/26/2014  13:18:00       95.588       40.878       38.549       76.996       52.400       44.418     5928.398     2745.716     1972.922        1.147        0.532      103.962       37.124        0.128      332.763        1.635      865.301
12/26/2014  13:19:00      146.201      107.637       10.604       80.660       68.512       55.131     6506.113     4693.888     3039.461        2.365        0.712      181.550       38.238        0.044      332.674        1.487      865.321
12/26/2014  13:20:00       40.493      107.298       -5.241       78.433       88.011       39.938     6151.812     7746.022     1595.071        1.433        0.775      114.684       36.853        0.103      332.626        1.409      865.306
12/26/2014  13:21:00      127.077       78.515       33.396       46.951       40.790       42.630     2204.378     1663.830     1817.303        1.456        0.284      149.376       30.289        0.041      332.751        1.617      865.291
12/26/2014  13:22:00       95.174       40.826       74.933      100.393      100.719       68.897    10078.663    10144.319     4746.745        2.065        1.248      103.561       69.278        0.448      332.813        1.719      865.278
12/26/2014  13:23:00       47.708       36.079       50.684       78.815       80.165       52.888     6211.767     6426.419     2797.181        1.079        0.772       59.814       45.507        0.579      332.821        1.732      865.282
12/26/2014  13:24:00       47.464       69.140       -2.575       59.280       53.040       37.476     3514.175     2813.226     1404.431        0.738        0.387       83.864       27.749        0.109      332.791        1.684      865.315
12/26/2014  13:25:00       64.039       53.058        0.015       38.278       44.115       22.140     1465.240     1946.093      490.162        0.541        0.195       83.164       25.897        0.097      332.594        1.355      865.327
12/26/2014  13:26:00       96.651       59.977       19.516       40.387       46.211       31.666     1631.147     2135.472     1002.748        0.904        0.238      113.748       21.561        0.036      332.674        1.489      865.311
12/26/2014  13:27:00       42.146       44.982       -4.688       35.960       21.306       22.128     1293.146      453.944      489.651        0.303        0.112       61.642       12.743        0.043      332.848        1.779      865.296
12/26/2014  13:28:00       93.776       48.112       15.851       41.602       27.266       26.630     1730.753      743.429      709.144        0.727        0.159      105.398       10.799        0.010      332.802        1.703      865.296
12/26/2014  13:29:00      161.759      121.760       73.430      110.267       92.554      102.774    12158.840     8566.220    10562.536        3.883        1.564      202.463       89.266        0.194      332.768        1.642      865.276
12/26/2014  13:30:00       66.565      117.530       92.529       89.407       72.308       63.100     7993.623     5228.377     3981.550        2.200        0.860      135.071       49.303        0.133      332.901        1.863      865.258
12/26/2014  13:31:00      189.853      131.258       13.372       58.950       45.889       40.256     3475.101     2105.804     1620.539        3.033        0.360      230.809       23.895        0.011      332.717        1.556      865.256
12/26/2014  13:32:00       86.966       47.751       10.009       73.979       52.591       36.343     5472.842     2765.848     1320.828        0.975        0.478       99.213       22.911        0.053      332.771        1.650      865.252
12/26/2014  13:33:00       45.192       74.956        4.652       51.864       57.575       39.531     2689.826     3314.923     1562.679        0.762        0.378       87.526       37.633        0.185      332.852        1.785      865.256
12/26/2014  13:34:00       73.157      101.268       -4.701       87.032       60.629       43.760     7574.648     3675.911     1914.909        1.439        0.658      124.929       35.336        0.080      332.973        1.984      865.266
12/26/2014  13:35:00      146.123      130.476       24.803      133.736       91.602       66.277    17885.317     8391.007     4392.655        3.482        1.533      195.898       52.160        0.071      332.807        1.707      865.275
12/26/2014  13:36:00       81.029      162.174      -14.955       76.619       93.286       64.490     5870.512     8702.321     4158.939        2.591        0.937      181.290       55.261        0.093      332.731        1.583      865.282
12/26/2014  13:37:00      165.627      179.103       -2.498      129.732      111.650       86.125    16830.382    12465.727     7417.527        4.811        1.836      243.947       75.201        0.095      332.665        1.473      865.274
12/26/2014  13:38:00      176.927      142.691       12.619       97.043       78.772       70.131     9417.426     6204.957     4918.427        3.618        1.027      227.297       50.732        0.050      332.687        1.510      865.279
12/26/2014  13:39:00      202.187      156.916       14.010       92.646       78.645       74.789     8583.282     6184.999     5593.385        4.303        1.018      255.934       41.087        0.026      332.625        1.406      865.274
12/26/2014  13:40:00      246.309      147.445       37.886       76.776       56.642       61.963     5894.628     3208.361     3839.474        4.839        0.647      287.068       38.922        0.018      332.603        1.368      865.255
12/26/2014  13:41:00      284.028      195.351       24.994       96.795       83.846       64.866     9369.349     7030.074     4207.650        7.003        1.030      344.723       47.671        0.019      332.536        1.260      865.259
12/26/2014  13:42:00      159.208      125.741       -9.601       89.069       63.483       47.768     7933.343     4030.137     2281.781        2.774        0.712      202.874       32.295        0.025      332.583        1.338      865.261
12/26/2014  13:43:00       80.014      110.424      -18.707       47.628       71.199       36.962     2268.450     5069.271     1366.198        1.382        0.435      136.365       38.959        0.082      332.593        1.357      865.254
12/26/2014  13:44:00       84.087       95.989        3.429       73.172       66.356       50.733     5354.099     4403.064     2573.816        1.431        0.617      127.611       35.836        0.079      332.579        1.332      865.239
12/26/2014  13:45:00       50.478      123.425        1.208       60.421       87.274       55.859     3650.758     7616.737     3120.199        1.608        0.719      133.348       54.463        0.167      332.637        1.427      865.244
12/26/2014  13:46:00       28.448       97.552        9.619       63.665       72.992       58.718     4053.220     5327.839     3447.748        1.162        0.641      101.616       51.392        0.256      332.626        1.411      865.261
12/26/2014  13:47:00        3.258      128.029       -4.483       46.308       78.836       37.746     2144.390     6215.037     1424.761        1.310        0.489      128.070       37.008        0.084      332.770        1.647      865.251
12/26/2014  13:48:00       80.540       84.711       -6.149       66.863       52.567       34.624     4470.630     2763.266     1198.817        1.106        0.422      116.887       29.769        0.065      332.656        1.460      865.258
12/26/2014  13:49:00       53.495      120.113      -17.918       38.271       58.066       35.384     1464.665     3371.630     1252.005        1.185        0.304      131.487       26.540        0.041      332.665        1.475      865.261
12/26/2014  13:50:00       83.362       48.507        7.086       53.419       31.980       31.922     2853.586     1022.749     1018.988        0.712        0.245       96.448       22.911        0.056      332.661        1.468      865.264
12/26/2014  13:51:00      133.368       92.960       16.405       55.345       44.388       33.060     3063.084     1970.275     1092.968        1.641        0.306      162.569       12.562        0.006      332.687        1.511      865.277
12/26/2014  13:52:00      155.395       83.089       13.657       83.951       59.282       45.123     7047.690     3514.386     2036.126        2.192        0.630      176.214       25.054        0.020      332.754        1.621      865.273
12/26/2014  13:53:00       77.922      120.064       -1.488      101.932       69.738       46.903    10390.156     4863.396     2199.894        1.897        0.873      143.133       47.054        0.108      332.896        1.857      865.253
12/26/2014  13:54:00      -12.125      192.769      -17.079       38.305       48.874       36.659     1467.305     2388.620     1343.876        2.140        0.260      193.150       28.775        0.022      332.996        2.022      865.264
12/26/2014  13:55:00       57.513      107.592      -14.267       46.301       75.401       43.369     2143.778     5685.316     1880.905        1.240        0.485      121.999       41.154        0.114      333.122        2.230      865.262
12/26/2014  13:56:00       71.718       56.043        8.331       73.188       45.833       39.898     5356.500     2100.645     1591.839        0.870        0.452       91.018       33.207        0.133      333.072        2.148      865.272
12/26/2014  13:57:00       99.837       21.226       14.446       94.691       80.018       58.680     8966.444     6402.853     3443.341        1.472        0.941      102.069       36.045        0.125      332.865        1.805      865.279
12/26/2014  13:58:00      107.804       24.946       46.240       98.829       73.517       45.942     9767.235     5404.692     2110.696        1.583        0.864      110.653       41.725        0.142      332.892        1.849      865.276
12/26/2014  13:59:00      311.257      153.926       54.883      149.707      108.783       91.058    22412.317    11833.795     8291.571        8.305        2.127      347.238       73.562        0.045      332.763        1.634      865.285
12/26/2014  14:00:00      273.198      173.274       49.378      163.934      113.547      107.411    26874.397    12892.906    11537.144        7.919        2.565      323.514       76.648        0.056      332.711        1.549      865.286
12/26/2014  14:01:00      226.475      110.497       84.621      106.030       81.853       75.935    11242.397     6699.952     5766.094        4.718        1.185      251.993       52.932        0.044      332.824        1.733      865.312
12/26/2014  14:02:00       76.232       95.428      118.841      100.832       94.686       77.131    10167.037     8965.398     5949.130        2.706        1.254      122.138       73.451        0.362      332.965        1.969      865.315
12/26/2014  14:03:00       68.878       66.106        5.876       76.131       63.928       42.805     5795.938     4086.797     1832.309        1.043        0.586       95.468       32.217        0.114      332.990        2.012      865.344
12/26/2014  14:04:00      101.803       71.607       63.966      115.217       80.957       73.938    13274.913     6554.056     5466.898        2.243        1.265      124.465       52.431        0.177      332.914        1.885      865.360
12/26/2014  14:05:00      102.404       53.397       58.838       89.368       66.108       62.349     7986.709     4370.250     3887.378        1.652        0.812      115.490       34.449        0.089      332.964        1.968      865.374
12/26/2014  14:06:00      150.260       78.051       53.966       91.663       81.365       60.254     8402.086     6620.330     3630.534        2.511        0.933      169.322       46.353        0.075      332.890        1.843      865.388
12/26/2014  14:07:00       84.187       89.755       17.222       73.971       60.545       48.716     5471.645     3665.749     2373.246        1.347        0.576      123.059       32.816        0.071      333.099        2.193      865.419
12/26/2014  14:08:00       87.216      141.160      -10.060       86.804       77.337       52.744     7534.865     5980.993     2781.901        2.196        0.815      165.930       45.189        0.074      332.935        1.919      865.433
12/26/2014  14:09:00       63.459      123.287        7.525      102.086       77.975       54.472    10421.479     6080.161     2967.206        1.937        0.973      138.661       54.245        0.153      333.015        2.052      865.420
12/26/2014  14:10:00       29.038      203.186       -4.207       72.020      122.109       77.889     5186.845    14910.664     6066.690        3.415        1.308      205.250       75.274        0.135      333.029        2.074      865.425
12/26/2014  14:11:00       54.950      110.346       -1.208       61.592       99.063       42.936     3793.598     9813.403     1843.500        1.532        0.773      123.271       48.883        0.157      333.059        2.126      865.445
12/26/2014  14:12:00       12.429      201.357      -11.606       62.662      107.543       48.709     3926.529    11565.600     2372.540        2.935        0.893      201.740       56.581        0.079      332.831        1.747      865.468
12/26/2014  14:13:00       60.074       80.200        4.525       62.577       67.987       40.696     3915.911     4622.165     1656.189        1.013        0.510      100.204       33.752        0.113      332.928        1.909      865.486
12/26/2014  14:14:00       27.203      134.471        1.167       56.787       92.990       49.916     3224.791     8647.070     2491.559        1.659        0.718      137.195       53.060        0.150      333.044        2.100      865.490
12/26/2014  14:15:00       58.355       94.903       10.421       76.796       58.238       45.067     5897.570     3391.620     2031.079        1.192        0.566      111.409       35.011        0.099      333.106        2.203      865.507
12/26/2014  14:16:00      194.383      153.295        4.373       95.488       53.709       58.874     9117.964     2884.653     3466.138        3.838        0.773      247.556       39.413        0.025      332.844        1.768      865.516
12/26/2014  14:17:00       68.366       55.853       22.252       69.130       75.391       64.038     4778.948     5683.865     4100.882        1.142        0.728       88.281       32.066        0.132      332.933        1.917      865.484
12/26/2014  14:18:00       27.008      175.409      -24.331       54.841       58.218       35.767     3007.530     3389.358     1279.266        1.988        0.384      177.476       30.234        0.029      332.882        1.833      865.472
12/26/2014  14:19:00       46.011      163.587       -4.882       62.199      109.724       61.062     3868.745    12039.419     3728.525        2.427        0.982      169.935       68.779        0.164      333.053        2.115      865.479
12/26/2014  14:20:00       10.335      196.974      -26.008       56.295       60.096       39.639     3169.151     3611.549     1571.255        2.397        0.418      197.245       33.897        0.030      332.996        2.022      865.494
12/26/2014  14:21:00       68.456       93.995        6.629       71.472       58.176       50.318     5108.230     3384.405     2531.866        1.229        0.551      116.281       36.165        0.097      333.120        2.225      865.512
12/26/2014  14:22:00      105.274       93.131        5.380       97.114       52.793       41.205     9431.205     2787.077     1697.867        1.685        0.696      140.556       29.874        0.045      333.076        2.154      865.528
12/26/2014  14:23:00       51.628       50.996        0.027       60.758       39.275       29.175     3691.542     1542.515      851.173        0.567        0.304       72.567       27.739        0.146      333.218        2.388      865.531
12/26/2014  14:24:00      192.439      137.190       17.790       70.481       69.255       57.670     4967.520     4796.301     3325.822        3.463        0.654      236.334       42.751        0.033      333.041        2.093      865.539
12/26/2014  14:25:00      229.193      101.842       20.503      118.639       81.026       84.585    14075.133     6565.173     7154.685        4.555        1.390      250.801       42.028        0.028      332.873        1.815      865.553
12/26/2014  14:26:00      215.123      155.300       36.614      131.891       93.115       78.780    17395.186     8670.417     6206.223        5.200        1.614      265.322       70.579        0.071      332.916        1.887      865.577
12/26/2014  14:27:00       23.923      234.511      -24.749      114.731      145.644       47.776    13163.208    21212.069     2282.592        4.641        1.833      235.728       67.334        0.082      332.837        1.757      865.624
12/26/2014  14:28:00       20.145      368.300      -49.897       65.241       68.831       38.212     4256.367     4737.717     1460.146        7.450        0.523      368.851       22.913        0.004      332.655        1.456      865.631
12/26/2014  14:29:00       23.087      239.502      -21.907       61.194      135.292       71.319     3744.760    18304.033     5086.434        4.275        1.357      240.612       82.979        0.119      332.794        1.686      865.644
12/26/2014  14:30:00      -57.585      241.808      -18.873       51.273       86.521       45.064     2628.946     7485.852     2030.726        3.714        0.607      248.570       55.186        0.049      332.924        1.900      865.638
12/26/2014  14:31:00      -37.923      219.783      -18.213       60.648       83.882       49.988     3678.142     7036.173     2498.847        3.164        0.661      223.030       48.706        0.048      333.030        2.075      865.643
12/26/2014  14:32:00        4.251      200.316      -10.616       67.727      148.899       59.546     4586.970    22170.828     3545.769        3.527        1.515      200.361       80.832        0.163      333.048        2.105      865.642
12/26/2014  14:33:00        1.771      234.089      -17.200       74.395       91.727       56.596     5534.547     8413.780     3203.130        3.612        0.858      234.096       55.655        0.057      333.008        2.040      865.646
12/26/2014  14:34:00       25.689      152.006        2.566       64.085      115.216       59.845     4106.875    13274.710     3581.448        2.236        1.048      154.162       60.644        0.155      333.002        2.031      865.644
12/26/2014  14:35:00       62.873       98.716       -5.740       89.202       71.431       58.109     7956.917     5102.318     3376.692        1.508        0.822      117.038       48.496        0.172      332.936        1.921      865.635
12/26/2014  14:36:00       95.686      108.070        7.994       64.326       96.689       50.302     4137.877     9348.715     2530.297        1.845        0.801      144.343       59.093        0.168      332.910        1.879      865.626
12/26/2014  14:37:00       36.711       76.172        8.535       54.806       57.700       43.421     3003.748     3329.270     1885.403        0.772        0.411       84.557       37.486        0.197      332.932        1.916      865.634
12/26/2014  14:38:00       -2.591      135.475       -9.008       36.008       88.311       35.667     1296.575     7798.761     1272.163        1.440        0.518      135.500       41.924        0.096      332.936        1.923      865.663
12/26/2014  14:39:00       12.480      135.741        5.950       69.086      116.203       52.230     4772.895    13503.145     2727.985        1.981        1.050      136.314       66.983        0.241      333.081        2.161      865.665
12/26/2014  14:40:00       22.169      245.074      -11.663       73.961      110.855       71.062     5470.261    12288.846     5049.819        4.174        1.140      246.074       64.249        0.068      332.855        1.786      865.664
12/26/2014  14:41:00      165.428      114.027       33.390      101.584       71.243       72.237    10319.297     5075.526     5218.154        3.104        1.031      200.919       53.136        0.070      332.871        1.813      865.681
12/26/2014  14:42:00      149.002      136.873       30.124      111.669       96.889       85.782    12469.999     9387.416     7358.480        3.552        1.461      202.326       58.864        0.085      332.928        1.906      865.706
12/26/2014  14:43:00      189.394      123.791       26.377       79.856       66.133       54.049     6376.957     4373.595     2921.302        3.278        0.684      226.261       36.158        0.026      332.883        1.833      865.723
12/26/2014  14:44:00      136.436      112.595       48.283       74.660       74.307       71.135     5574.171     5521.584     5060.205        2.489        0.808      176.897       36.109        0.042      332.968        1.974      865.735
12/26/2014  14:45:00      148.109       63.402        8.569       80.600       62.199       44.308     6496.385     3868.747     1963.231        1.918        0.616      161.109       28.969        0.032      333.009        2.042      865.746
12/26/2014  14:46:00      135.701       66.650       39.249       89.916       68.358       52.029     8084.927     4672.773     2707.001        1.993        0.773      151.185       39.732        0.069      333.045        2.103      865.758
12/26/2014  14:47:00      140.951       33.887       27.194      101.050       66.608       57.742    10211.121     4436.654     3334.105        1.986        0.899      144.967       42.995        0.088      332.979        1.993      865.769
12/26/2014  14:48:00       82.524       79.307       84.304      101.080       64.458       75.959    10217.103     4154.856     5769.700        2.017        1.007      114.455       60.986        0.284      333.084        2.167      865.778
12/26/2014  14:49:00      100.767       90.110       66.284       77.782       69.054       62.210     6050.058     4768.503     3870.108        1.867        0.734      135.180       51.479        0.145      332.918        1.891      865.795
12/26/2014  14:50:00      105.296       80.125       57.462       84.122       55.331       59.671     7076.436     3061.558     3560.589        1.725        0.685      132.315       50.533        0.146      332.903        1.868      865.805
12/26/2014  14:51:00      158.847      112.296       79.349       90.505       79.502       56.079     8191.097     6320.622     3144.853        3.089        0.883      194.532       37.853        0.038      332.884        1.835      865.830
12/26/2014  14:52:00      194.692      139.164       33.269      121.934       87.130       74.176    14867.885     7591.562     5502.055        4.316        1.398      239.315       50.033        0.044      332.804        1.703      865.842
12/26/2014  14:53:00      145.930      144.524        6.460       94.147       90.440       84.086     8863.641     8179.387     7070.395        3.316        1.206      205.384       61.358        0.089      332.745        1.605      865.854
12/26/2014  14:54:00       90.698      130.366        2.601       99.152      105.141       85.386     9831.124    11054.709     7290.845        2.670        1.409      158.812       70.087        0.195      332.715        1.555      865.857
12/26/2014  14:55:00       62.088      121.846        3.329       61.064       88.209       59.438     3728.761     7780.889     3532.845        1.687        0.752      136.753       56.558        0.171      332.768        1.644      865.876
12/26/2014  14:56:00       51.931      144.120      -10.974       65.615       86.014       49.044     4305.328     7398.420     2405.311        1.885        0.705      153.190       52.530        0.118      332.762        1.633      865.890
12/26/2014  14:57:00       74.225      185.281      -13.531       74.268      100.300       55.861     5515.700    10060.012     3120.473        2.936        0.935      199.596       60.171        0.091      332.701        1.533      865.882
12/26/2014  14:58:00       63.569       68.657        2.177       60.786       55.101       41.583     3694.895     3036.087     1729.129        0.861        0.423       93.567       28.890        0.095      332.741        1.601      865.860
12/26/2014  14:59:00       48.933       80.197       -5.874       61.678       68.184       33.360     3804.182     4649.005     1112.872        0.921        0.478       93.947       26.915        0.082      332.768        1.646      865.847
12/26/2014  15:00:00      107.715      193.853       -2.383      127.801      117.964       79.880    16332.974    13915.565     6380.795        4.290        1.831      221.769       75.617        0.116      332.698        1.527      865.849
12/26/2014  15:01:00      161.948      178.525       11.452      126.729       94.587       89.832    16060.163     8946.792     8069.800        4.565        1.654      241.036       62.029        0.066      332.656        1.458      865.861
12/26/2014  15:02:00      178.776      123.915       30.217       84.277       79.842       57.986     7102.616     6374.681     3362.360        3.253        0.842      217.522       28.389        0.017      332.602        1.370      865.877
12/26/2014  15:03:00      141.447      103.819       27.021       81.753       81.888       54.508     6683.605     6705.593     2971.114        2.393        0.818      175.458       42.364        0.058      332.670        1.480      865.879
12/26/2014  15:04:00      169.848      112.261       17.284       95.531       62.188       62.203     9126.126     3867.329     3869.220        2.930        0.843      203.595       33.726        0.027      332.659        1.464      865.900
12/26/2014  15:05:00       70.257       44.249       21.282       63.605       41.200       35.979     4045.656     1697.462     1294.464        0.719        0.352       83.030       26.959        0.105      332.749        1.615      865.915
12/26/2014  15:06:00       85.777       84.063        8.943       77.867       46.737       42.399     6063.267     2184.366     1797.667        1.227        0.502      120.102       24.714        0.042      332.727        1.578      865.932
12/26/2014  15:07:00      104.887       84.623        3.648       70.402       44.369       42.352     4956.458     1968.601     1793.732        1.345        0.436      134.768       39.508        0.086      332.636        1.427      865.940
12/26/2014  15:08:00       15.011      142.897      -11.686       55.383       74.516       35.158     3067.295     5552.623     1236.106        1.532        0.493      143.684       33.885        0.056      332.682        1.503      865.949
12/26/2014  15:09:00        2.027      150.262      -19.103       48.804       82.771       34.090     2381.799     6851.098     1162.128        1.667        0.520      150.276       40.830        0.074      332.727        1.575      865.959
12/26/2014  15:10:00      -32.119      138.282       -4.451       54.759       78.994       40.016     2998.575     6240.095     1601.285        1.550        0.542      141.963       45.413        0.102      332.675        1.489      865.962
12/26/2014  15:11:00      -28.988      251.839      -25.509       66.773       84.100       36.000     4458.589     7072.761     1295.985        3.887        0.641      253.502       40.533        0.026      332.580        1.333      865.958
12/26/2014  15:12:00       23.617      165.780      -17.740       41.793       75.072       33.760     1746.646     5635.847     1139.756        1.844        0.426      167.454       41.741        0.062      332.588        1.347      865.986
12/26/2014  15:13:00        1.631      167.224      -21.069       13.463       45.126       21.510      181.252     2036.342      462.695        1.554        0.134      167.232       27.015        0.026      332.521        1.236      866.006
12/26/2014  15:14:00       12.235       89.815      -11.685       20.267       50.705       22.662      410.755     2571.014      513.552        0.592        0.175       90.644       29.832        0.108      332.557        1.297      866.027
12/26/2014  15:15:00       45.827       69.893       -5.663       35.348       44.696       35.369     1249.488     1997.713     1251.001        0.576        0.225       83.577       26.267        0.099      332.578        1.332      866.028
12/26/2014  15:16:00       77.000       36.485       16.858       49.819       33.769       30.817     2481.963     1140.375      949.692        0.606        0.229       85.206       22.490        0.070      332.711        1.551      866.028
12/26/2014  15:17:00       62.797       60.167       19.708       46.948       57.906       38.129     2204.070     3353.090     1453.835        0.748        0.351       86.969       34.389        0.156      332.713        1.555      866.031
12/26/2014  15:18:00      111.121       53.255       16.138       60.725       38.413       42.280     3687.477     1475.522     1787.604        1.120        0.348      123.223       20.675        0.028      332.656        1.460      866.045
12/26/2014  15:19:00       92.313      109.724       -0.662       67.644       58.053       45.252     4575.708     3370.147     2047.731        1.528        0.500      143.391       38.936        0.074      332.600        1.367      866.042
12/26/2014  15:20:00      126.981       64.548       21.781       68.078       41.404       43.124     4634.563     1714.293     1859.711        1.449        0.410      142.445       34.434        0.058      332.630        1.417      866.043
12/26/2014  15:21:00      125.350       86.507        8.613       65.786       51.943       40.248     4327.778     2698.040     1619.890        1.596        0.432      152.303       21.710        0.020      332.595        1.357      866.050
12/26/2014  15:22:00       94.215       74.103        0.079       46.993       49.750       32.301     2208.300     2475.022     1043.359        1.005        0.286      119.866       22.732        0.036      332.590        1.349      866.063
12/26/2014  15:23:00       63.765       69.980        9.096       57.174       53.452       36.083     3268.849     2857.134     1301.971        0.824        0.371       94.674       27.400        0.084      332.576        1.328      866.079
12/26/2014  15:24:00      117.414       85.192       21.676       57.347       40.599       36.690     3288.709     1648.261     1346.149        1.390        0.314      145.065       19.193        0.018      332.615        1.391      866.108
12/26/2014  15:25:00      216.226      111.763       26.206       89.519       60.703       56.266     8013.738     3684.824     3165.898        3.739        0.743      243.402       41.638        0.029      332.603        1.369      866.126
12/26/2014  15:26:00      108.916       72.134       20.033       91.979       51.742       52.527     8460.110     2677.242     2759.064        1.568        0.695      130.637       33.067        0.064      332.663        1.471      866.137
12/26/2014  15:27:00      218.510      149.515       19.273      100.232       75.326       67.592    10046.430     5674.074     4568.657        4.538        1.014      264.766       46.213        0.030      332.677        1.492      866.155
12/26/2014  15:28:00      160.163      137.349       11.581       76.401       64.843       57.851     5837.105     4204.619     3346.789        2.902        0.669      210.990       37.959        0.032      332.698        1.525      866.175
12/26/2014  15:29:00      194.323      113.602       26.828       69.300       65.446       51.037     4802.497     4283.218     2604.750        3.154        0.585      225.093       25.196        0.013      332.697        1.525      866.192
12/26/2014  15:30:00      169.808      114.025       25.840       84.031       72.676       51.423     7061.237     5281.814     2644.332        2.874        0.749      204.540       28.044        0.019      332.694        1.520      866.205
12/26/2014  15:31:00      135.153       69.003       22.977       93.876       62.754       37.669     8812.676     3938.025     1418.937        1.886        0.708      151.749       15.860        0.011      332.687        1.509      866.227
12/26/2014  15:32:00       94.067       49.670       13.224       51.690       30.860       32.078     2671.818      952.326     1029.019        0.807        0.233      106.376       17.153        0.026      332.781        1.668      866.223
12/26/2014  15:33:00       70.152       47.066       19.731       65.471       56.517       31.929     4286.406     3194.221     1019.492        0.801        0.425       84.478       17.710        0.044      332.807        1.710      866.240
12/26/2014  15:34:00      115.943       81.343       13.449       85.032       49.481       44.516     7230.404     2448.389     1981.692        1.595        0.583      141.631       23.811        0.028      332.722        1.568      866.241
12/26/2014  15:35:00      138.389       80.495       14.407       80.420       53.601       50.042     6467.410     2873.119     2504.185        1.884        0.592      160.096       16.676        0.011      332.738        1.594      866.251
12/26/2014  15:36:00      168.189      127.552       20.609       61.871       42.948       37.131     3827.996     1844.543     1378.682        2.602        0.353      211.085       23.733        0.013      332.641        1.432      866.252
12/26/2014  15:37:00      130.982       70.047        3.392       37.969       44.507       29.351     1441.626     1980.904      861.486        1.318        0.214      148.536       13.532        0.008      332.614        1.391      866.247
12/26/2014  15:38:00       77.281       39.016       10.176       39.085       34.532       24.046     1527.662     1192.460      578.230        0.545        0.165       86.571       12.944        0.022      332.661        1.469      866.244
12/26/2014  15:39:00       77.820       62.013       13.073       47.263       38.522       33.957     2233.821     1483.959     1153.099        0.747        0.244       99.506       16.824        0.029      332.668        1.482      866.256
12/26/2014  15:40:00      111.017       70.190       10.656       45.600       41.827       31.903     2079.383     1749.531     1017.776        1.110        0.242      131.345       17.058        0.017      332.646        1.444      866.265
12/26/2014  15:41:00       67.564       47.133       28.177       57.191       28.553       35.860     3270.788      815.287     1285.944        0.648        0.269       82.379       35.695        0.188      332.701        1.534      866.253
12/26/2014  15:42:00       76.004       51.723       55.829       63.723       43.902       38.804     4060.559     1927.395     1505.761        0.953        0.375       91.935       26.633        0.084      332.719        1.566      866.242
12/26/2014  15:43:00      102.781       86.787       28.836       69.879       37.681       39.403     4883.049     1419.835     1552.633        1.339        0.393      134.521       36.310        0.073      332.648        1.447      866.249
12/26/2014  15:44:00       24.803       41.043       30.984       26.113       37.345       25.224      681.884     1394.648      636.235        0.299        0.136       47.956       19.726        0.169      332.664        1.474      866.255
12/26/2014  15:45:00       83.323       69.748       58.828       69.332       42.891       46.412     4806.905     1839.638     2154.031        1.203        0.440      108.662       41.789        0.148      332.705        1.541      866.261
12/26/2014  15:46:00       79.594       87.853       65.450       90.323       44.020       43.869     8158.236     1937.728     1924.474        1.518        0.601      118.547       51.184        0.186      332.730        1.583      866.269
12/26/2014  15:47:00       10.450       42.173       52.148       27.370       31.686       33.025      749.102     1003.989     1090.619        0.372        0.142       43.449       24.082        0.307      332.787        1.678      866.299
12/26/2014  15:48:00       88.254       63.358       27.798       42.722       31.225       26.571     1825.163      975.001      706.015        0.804        0.175      108.642        9.988        0.008      332.656        1.460      866.335
12/26/2014  15:49:00       84.282       64.777       23.814       33.068       26.561       21.234     1093.475      705.490      450.884        0.706        0.112      106.300       13.442        0.016      332.664        1.474      866.364
12/26/2014  15:50:00       63.441       45.238       35.044       39.300       26.765       22.443     1544.507      716.351      503.666        0.503        0.138       77.918       16.893        0.047      332.627        1.413      866.379
12/26/2014  15:51:00       93.443       51.939       20.249       25.803       22.191       20.025      665.815      492.445      400.996        0.670        0.078      106.908       16.042        0.023      332.646        1.443      866.380
12/26/2014  15:52:00       82.246       40.428        5.298       37.287       18.979       15.550     1390.319      360.213      241.791        0.521        0.100       91.645       11.394        0.015      332.631        1.421      866.383
12/26/2014  15:53:00       87.878       54.258       12.498       22.354       23.401       17.074      499.688      547.596      291.508        0.608        0.067      103.279        4.012        0.002      332.623        1.407      866.383
12/26/2014  15:54:00      107.245       39.452        3.895       34.519       29.443       25.327     1191.587      866.899      641.469        0.789        0.135      114.271        5.002        0.002      332.626        1.410      866.385
12/26/2014  15:55:00       61.694       44.808       18.271       44.154       27.244       25.573     1949.615      742.261      653.990        0.475        0.167       76.249       22.497        0.087      332.658        1.464      866.387
12/26/2014  15:56:00       16.913       50.414       73.218       34.788       31.298       22.232     1210.175      979.588      494.244        0.544        0.134       53.176       17.869        0.113      332.689        1.515      866.390
12/26/2014  15:57:00       18.631       47.646       65.360       36.735       35.141       20.332     1349.492     1234.903      413.393        0.494        0.150       51.159       20.267        0.157      332.670        1.484      866.384
12/26/2014  15:58:00        9.207       27.990       23.027       24.475       27.289       26.571      599.042      744.664      706.030        0.172        0.102       29.465       21.764        0.546      332.645        1.443      866.372
12/26/2014  15:59:00      -12.605       17.363        0.640       21.107       21.405       16.530      445.510      458.180      273.228        0.082        0.059       21.456        6.180        0.083      332.600        1.369      866.355
12/26/2014  16:00:00       11.248      114.743      -19.858       25.459       38.051       20.983      648.171     1447.881      440.268        0.811        0.127      115.293       23.849        0.043      332.674        1.489      866.345
12/26/2014  16:01:00       16.067      119.254      -12.427       30.476       72.398       29.305      928.783     5241.529      858.755        1.083        0.351      120.331       37.564        0.097      332.607        1.380      866.348
12/26/2014  16:02:00       17.005      148.237      -16.097       31.928       36.896       26.552     1019.405     1361.297      705.016        1.280        0.154      149.210       23.699        0.025      332.599        1.367      866.365
12/26/2014  16:03:00       21.315       93.972        2.686       29.443       55.249       29.520      866.894     3052.437      871.430        0.704        0.240       96.359       35.348        0.135      332.609        1.383      866.374
12/26/2014  16:04:00        3.676      100.325      -16.444       21.968       33.138       18.808      482.611     1098.159      353.752        0.614        0.097      100.392       11.946        0.014      332.635        1.426      866.391
12/26/2014  16:05:00       64.260       87.033       -1.966       43.136       35.313       26.748     1860.678     1246.994      715.459        0.776        0.191      108.185       25.949        0.058      332.606        1.377      866.384
12/26/2014  16:06:00        4.008      158.514      -19.711       52.513       59.669       36.712     2757.642     3560.336     1347.774        1.660        0.383      158.564       27.403        0.030      332.608        1.380      866.385
12/26/2014  16:07:00       86.460       74.605       -2.968       42.979       60.790       31.288     1847.237     3695.482      978.961        0.978        0.326      114.198       29.549        0.067      332.624        1.407      866.379
12/26/2014  16:08:00       49.920       76.055        3.247       37.610       50.817       35.051     1414.537     2582.379     1228.540        0.676        0.261       90.974       35.149        0.149      332.617        1.395      866.369
12/26/2014  16:09:00       62.086       85.178        3.833       49.066       38.308       30.175     2407.468     1467.477      910.546        0.795        0.239      105.404       25.267        0.057      332.614        1.390      866.356
12/26/2014  16:10:00       46.526       64.506       -0.523       38.553       35.563       21.719     1486.337     1264.745      471.736        0.477        0.161       79.535       14.094        0.031      332.620        1.401      866.337
12/26/2014  16:11:00       23.796       70.572       -5.621       36.839       61.664       31.442     1357.142     3802.413      988.628        0.586        0.307       74.476       25.648        0.119      332.620        1.401      866.313
12/26/2014  16:12:00       69.226      100.232       -2.253       72.897       71.333       37.655     5314.041     5088.442     1417.919        1.333        0.591      121.814       35.907        0.087      332.615        1.391      866.304
12/26/2014  16:13:00       50.975       53.766        9.497       68.638       41.786       46.454     4711.202     1746.070     2158.007        0.710        0.431       74.089       33.066        0.199      332.603        1.372      866.292
12/26/2014  16:14:00       17.464      143.998      -12.926       51.814       74.253       41.516     2684.717     5513.481     1723.556        1.556        0.496      145.054       36.152        0.062      332.589        1.348      866.295
12/26/2014  16:15:00       34.977      127.158       -2.577       50.764       71.966       46.785     2576.955     5179.138     2188.879        1.367        0.497      131.880       46.217        0.123      332.574        1.324      866.301
12/26/2014  16:16:00       47.371       98.814       -4.149       44.994       69.749       46.680     2024.457     4864.984     2179.018        1.055        0.453      109.582       43.421        0.157      332.561        1.303      866.292
12/26/2014  16:17:00       45.143       73.100       -3.059       61.755       54.662       40.176     3813.724     2987.941     1614.126        0.790        0.421       85.915       27.956        0.106      332.539        1.266      866.285
12/26/2014  16:18:00       26.742       63.143        6.102       49.412       53.744       38.093     2441.525     2888.447     1451.046        0.576        0.339       68.573       32.091        0.219      332.525        1.244      866.282
12/26/2014  16:19:00       40.501      116.520       -6.581       51.521       82.406       38.928     2654.421     6790.807     1515.419        1.311        0.548      123.358       44.391        0.129      332.489        1.183      866.270
12/26/2014  16:20:00       49.244      100.813        7.917       48.636       99.679       51.844     2365.460     9935.967     2687.793        1.382        0.749      112.197       59.648        0.283      332.528        1.248      866.262
12/26/2014  16:21:00       18.222      117.732      -14.523       46.367       51.800       34.286     2149.930     2683.271     1175.529        1.021        0.300      119.134       30.669        0.066      332.531        1.254      866.259
12/26/2014  16:22:00       31.052       84.677       -4.433       39.350       52.615       29.521     1548.407     2768.310      871.493        0.667        0.259       90.191       34.650        0.148      332.509        1.217      866.265
12/26/2014  16:23:00       11.291       81.602       -6.788       37.842       35.720       24.251     1431.984     1275.903      588.108        0.506        0.165       82.380       22.450        0.074      332.499        1.201      866.264
12/26/2014  16:24:00       20.766       76.166        1.010       39.625       33.717       23.778     1570.165     1136.856      565.399        0.475        0.164       78.946       18.201        0.053      332.499        1.201      866.258
12/26/2014  16:25:00       63.322       57.158        6.724       35.014       30.592       22.779     1226.007      935.848      518.902        0.500        0.134       85.303       18.397        0.047      332.502        1.204      866.253
12/26/2014  16:26:00       81.622       53.564       -4.496       37.389       33.474       25.908     1397.928     1120.542      671.229        0.637        0.159       97.628        5.308        0.003      332.498        1.199      866.243
12/26/2014  16:27:00       77.263       59.660       10.640       56.996       42.662       27.917     3248.550     1820.067      779.360        0.774        0.292       97.616       26.100        0.071      332.478        1.166      866.229
12/26/2014  16:28:00       58.861       51.750        5.685       44.920       33.439       32.507     2017.783     1118.198     1056.715        0.518        0.210       78.375       22.732        0.084      332.488        1.184      866.228
12/26/2014  16:29:00       26.045      116.664      -13.741       26.573       41.316       25.254      706.136     1707.025      637.762        0.876        0.153      119.536       22.548        0.036      332.515        1.226      866.247
12/26/2014  16:30:00       27.470       93.367      -12.049       27.287       46.116       27.115      744.566     2126.723      735.217        0.661        0.180       97.324       30.540        0.098      332.509        1.217      866.249
12/26/2014  16:31:00       53.150       52.883       -0.171       46.777       27.817       23.932     2188.119      773.797      572.745        0.458        0.177       74.976       19.492        0.068      332.493        1.191      866.255
12/26/2014  16:32:00       70.775       53.833        8.219       37.828       30.415       21.015     1430.977      925.062      441.646        0.539        0.140       88.922       11.482        0.017      332.510        1.219      866.265
12/26/2014  16:33:00       72.147       46.962        1.513       21.734       19.977       16.688      472.362      399.087      278.498        0.428        0.057       86.085        7.854        0.008      332.462        1.141      866.264
12/26/2014  16:34:00       68.598       49.126        7.292       43.307       27.854       24.790     1875.458      775.849      614.564        0.522        0.163       84.375       13.277        0.025      332.439        1.103      866.264
12/26/2014  16:35:00       65.226       77.150       11.715       45.683       44.889       37.099     2086.947     2015.017     1376.300        0.791        0.274      101.028       32.767        0.105      332.487        1.181      866.264
12/26/2014  16:36:00      155.394       93.769       41.805       46.070       39.891       37.408     2122.438     1591.255     1399.348        1.990        0.256      181.494       15.869        0.008      332.504        1.208      866.256
12/26/2014  16:37:00      158.050      106.930       11.645       59.864       53.481       45.319     3583.655     2860.271     2053.838        2.252        0.425      190.824       25.896        0.018      332.479        1.165      866.262
12/26/2014  16:38:00      168.933      116.146       33.013       59.227       47.717       41.170     3507.829     2276.944     1694.964        2.530        0.374      205.008       33.816        0.027      332.457        1.129      866.281
12/26/2014  16:39:00      117.342       87.488       20.420       51.890       38.944       33.128     2692.612     1516.602     1097.450        1.357        0.265      146.367       21.103        0.021      332.440        1.103      866.306
12/26/2014  16:40:00      148.846       90.221       11.625       56.257       60.433       36.421     3164.839     3652.111     1326.523        1.929        0.407      174.054       23.524        0.018      332.423        1.074      866.341
12/26/2014  16:41:00      107.945       72.715        7.463       61.008       48.111       36.753     3722.015     2314.714     1350.803        1.219        0.369      130.152       21.471        0.027      332.412        1.057      866.356
12/26/2014  16:42:00      101.183       73.585       12.622       56.936       48.557       35.585     3241.729     2357.741     1266.313        1.134        0.343      125.110       30.183        0.058      332.393        1.026      866.362
12/26/2014  16:43:00       99.230       88.378       -1.941       57.813       48.899       48.022     3342.325     2391.128     2306.143        1.285        0.402      132.881       36.108        0.074      332.397        1.034      866.361
12/26/2014  16:44:00       88.857       71.924       14.415       62.913       48.216       38.641     3957.994     2324.758     1493.164        1.052        0.389      114.318       25.500        0.050      332.370        0.988      866.359
12/26/2014  16:45:00      119.404      101.760        0.195       68.614       52.026       48.314     4707.920     2706.717     2334.282        1.718        0.487      156.884       28.013        0.032      332.402        1.042      866.364
12/26/2014  16:46:00      176.714      125.113       22.282       50.516       46.066       40.835     2551.913     2122.108     1667.501        2.686        0.317      216.521       19.813        0.008      332.403        1.042      866.379
12/26/2014  16:47:00      164.984      128.020       28.106       63.811       52.474       41.654     4071.868     2753.530     1735.054        2.648        0.428      208.827       34.305        0.027      332.423        1.074      866.384
12/26/2014  16:48:00      143.981       87.522       26.117      100.281       80.689       45.627    10056.356     6510.717     2081.830        2.386        0.932      168.496       31.333        0.035      332.391        1.021      866.389
12/26/2014  16:49:00      139.328       81.385       22.340       57.892       52.933       48.119     3351.450     2801.925     2315.443        1.750        0.423      161.356       32.400        0.040      332.419        1.068      866.401
12/26/2014  16:50:00      131.440       87.269       15.767       68.030       42.495       44.429     4628.107     1805.855     1973.969        1.677        0.420      157.773       31.333        0.039      332.374        0.992      866.422
12/26/2014  16:51:00      115.502       75.872       19.009       59.849       48.980       39.912     3581.857     2399.081     1592.938        1.351        0.379      138.193       27.889        0.041      332.382        1.006      866.450
12/26/2014  16:52:00      108.585       70.968       11.082       41.465       34.927       28.975     1719.348     1219.870      839.537        1.036        0.189      129.719       22.601        0.030      332.359        0.970      866.496
12/26/2014  16:53:00      105.771       83.208       18.230       51.373       38.587       29.695     2639.182     1488.946      881.774        1.173        0.250      134.577       11.516        0.007      332.372        0.991      866.536
12/26/2014  16:54:00       87.582       84.978       11.111       67.386       61.176       46.577     4540.840     3742.549     2169.456        1.273        0.523      122.032       32.681        0.072      332.392        1.023      866.563
12/26/2014  16:55:00       74.906       83.263       16.675       79.580       42.415       40.762     6332.913     1799.069     1661.507        1.131        0.490      111.998       25.925        0.054      332.394        1.028      866.584
12/26/2014  16:56:00      143.945       86.277       17.971       65.472       53.916       52.800     4286.570     2906.888     2787.869        1.923        0.499      167.821       28.744        0.029      332.358        0.969      866.616
12/26/2014  16:57:00      126.893      100.424       26.629       83.508       60.180       54.015     6973.573     3621.631     2917.632        2.020        0.676      161.824       37.365        0.053      332.367        0.982      866.636
12/26/2014  16:58:00      105.424       76.928        5.299       84.073       56.858       37.983     7068.185     3232.880     1442.744        1.440        0.587      130.507       18.065        0.019      332.367        0.983      866.656
12/26/2014  16:59:00       54.185       75.405        0.109       54.521       46.221       37.995     2972.488     2136.419     1443.608        0.759        0.328       92.855       31.939        0.118      332.315        0.896      866.680
12/26/2014  17:00:00       81.980       64.063       -2.760       32.821       38.825       33.140     1077.201     1507.410     1098.264        0.726        0.184      104.042       25.998        0.062      332.312        0.891      866.709
12/26/2014  17:01:00       98.483       61.166       22.369       51.649       35.575       31.947     2667.600     1265.585     1020.593        0.945        0.248      115.932       13.520        0.014      332.313        0.894      866.705
12/26/2014  17:02:00       88.963       67.015        7.201       38.171       30.681       33.825     1457.042      941.352     1144.113        0.800        0.177      111.380       17.609        0.025      332.296        0.867      866.715
12/26/2014  17:03:00       92.602       79.579        5.799       55.502       61.171       39.706     3080.513     3741.885     1576.562        1.167        0.420      122.098       27.649        0.051      332.306        0.881      866.717
12/26/2014  17:04:00      106.072      117.384        2.295       78.026       60.976       48.038     6088.014     3718.117     2307.674        1.857        0.606      158.210       39.205        0.061      332.303        0.876      866.725
12/26/2014  17:05:00      195.809      139.626       19.437       71.733       53.734       56.390     5145.689     2887.360     3179.780        3.471        0.561      240.493       30.517        0.016      332.344        0.942      866.723
12/26/2014  17:06:00      160.097      109.262       28.646       53.794       39.892       34.793     2893.758     1591.393     1210.584        2.204        0.285      193.828       18.293        0.009      332.316        0.896      866.738
12/26/2014  17:07:00      138.373       99.464       27.238       42.086       40.474       40.903     1771.218     1638.129     1673.028        1.743        0.254      170.412       23.435        0.019      332.304        0.879      866.752
12/26/2014  17:08:00      108.892       85.357       19.656       54.965       50.464       39.728     3021.157     2546.650     1578.305        1.334        0.357      138.359       20.933        0.023      332.273        0.829      866.765
12/26/2014  17:09:00      131.426       92.036       17.141       61.839       44.322       42.897     3824.044     1964.436     1840.111        1.683        0.381      160.448       31.168        0.038      332.275        0.830      866.763
12/26/2014  17:10:00      114.556       60.072       12.690       46.735       33.428       25.842     2184.206     1117.458      667.795        1.043        0.198      129.351       15.294        0.014      332.243        0.780      866.760
12/26/2014  17:11:00      132.882      102.622       21.684       69.613       50.573       41.857     4846.013     2557.643     1752.017        1.891        0.458      167.895       26.691        0.025      332.262        0.809      866.748
12/26/2014  17:12:00      138.431      100.843       11.175       69.869       51.509       41.353     4881.658     2653.181     1710.099        1.935        0.462      171.268       26.051        0.023      332.235        0.766      866.748
12/26/2014  17:13:00      153.659      101.442       13.416       52.536       41.516       43.827     2760.028     1723.557     1920.829        2.024        0.320      184.123       21.888        0.014      332.225        0.750      866.748
12/26/2014  17:14:00      200.019      137.714       30.256       69.596       50.831       41.652     4843.627     2583.841     1734.883        3.452        0.458      242.843       26.477        0.012      332.245        0.779      866.736
12/26/2014  17:15:00      174.545      104.219       14.099       62.914       50.450       39.850     3958.186     2545.180     1588.003        2.481        0.405      203.292       13.213        0.004      332.226        0.750      866.730
12/26/2014  17:16:00      159.413      109.004       20.511       52.268       45.717       39.718     2731.910     2090.019     1577.544        2.206        0.320      193.117       27.410        0.020      332.190        0.689      866.740
12/26/2014  17:17:00      123.365       74.699       23.100       49.510       42.962       26.539     2451.262     1845.762      704.330        1.317        0.250      144.218       13.145        0.008      332.160        0.642      866.767
12/26/2014  17:18:00      119.138       81.010       18.127       44.741       34.660       25.994     2001.733     1201.292      675.671        1.248        0.194      144.071       20.069        0.019      332.134        0.599      866.794
12/26/2014  17:19:00      135.387       77.383       13.672       61.728       39.354       35.089     3810.301     1548.757     1231.206        1.555        0.330      155.942       22.134        0.020      332.138        0.605      866.813
12/26/2014  17:20:00      111.059       72.450       21.698       37.278       30.310       32.063     1389.678      918.718     1028.049        1.069        0.167      132.601       22.900        0.030      332.113        0.564      866.829
12/26/2014  17:21:00      106.718       59.541       22.503       31.934       26.396       28.895     1019.766      696.751      834.908        0.900        0.128      122.204       20.219        0.027      332.089        0.525      866.834
12/26/2014  17:22:00      104.710       77.590       18.987       46.559       39.936       28.620     2167.702     1594.922      819.077        1.096        0.229      130.324        9.067        0.005      332.123        0.582      866.846
12/26/2014  17:23:00       90.291       46.935        8.030       43.302       23.129       19.338     1875.046      534.956      373.944        0.660        0.139      101.761       17.108        0.028      332.097        0.539      866.846
12/26/2014  17:24:00       95.525       33.336       11.401       37.182       34.319       24.079     1382.506     1177.819      579.810        0.675        0.157      101.175       18.206        0.032      332.090        0.526      866.842
12/26/2014  17:25:00       87.037       59.249       28.160       30.697       18.100       21.901      942.323      327.600      479.655        0.681        0.087      105.290       12.723        0.015      332.073        0.500      866.831
12/26/2014  17:26:00       68.499       44.742       28.131       20.555       18.745       23.424      422.491      351.379      548.688        0.440        0.066       81.816       16.116        0.039      332.027        0.422      866.810
12/26/2014  17:27:00       62.489       14.423       23.467       25.688       25.524       16.579      659.859      651.449      274.862        0.312        0.079       64.132       15.427        0.058      332.060        0.478      866.786
12/26/2014  17:28:00       40.140       33.270       50.531       30.827       37.745       32.101      950.314     1424.679     1030.457        0.434        0.170       52.135       29.929        0.330      332.104        0.550      866.763
12/26/2014  17:29:00       52.830       61.408       69.130       30.004       34.930       23.542      900.231     1220.080      554.245        0.701        0.134       81.006       16.199        0.040      332.229        0.757      866.731
12/26/2014  17:30:00       77.091       74.990       50.648       56.199       33.088       38.999     3158.377     1094.838     1520.897        0.995        0.289      107.548       36.189        0.113      332.180        0.675      866.705
12/26/2014  17:31:00       92.565       27.148       42.290       39.961       34.571       33.266     1596.859     1195.143     1106.645        0.750        0.195       96.464       22.355        0.054      332.105        0.551      866.690
12/26/2014  17:32:00       63.106       57.839       54.365       39.965       35.537       37.505     1597.206     1262.886     1406.610        0.727        0.213       85.602       24.530        0.082      332.078        0.507      866.670
12/26/2014  17:33:00      100.478       84.477       56.904       33.808       24.204       33.823     1143.006      585.848     1144.000        1.167        0.144      131.271       19.008        0.021      332.092        0.530      866.641
12/26/2014  17:34:00      128.012       65.283       18.966       45.212       35.548       32.595     2044.141     1263.658     1062.439        1.269        0.219      143.697       15.732        0.012      332.024        0.417      866.610
12/26/2014  17:35:00      114.655       44.695       14.037       43.416       37.178       31.933     1884.946     1382.174     1019.738        0.981        0.214      123.059       15.089        0.015      331.952        0.299      866.581
12/26/2014  17:36:00       87.733       58.100       15.901       54.584       39.261       31.877     2979.376     1541.429     1016.149        0.843        0.277      105.227       22.988        0.048      331.885        0.188      866.566
12/26/2014  17:37:00      138.295       61.457       10.377       48.827       32.727       31.869     2384.084     1071.043     1015.633        1.374        0.224      151.336       26.357        0.030      331.917        0.241      866.569
12/26/2014  17:38:00      127.626       88.832       24.912       45.745       37.664       43.283     2092.561     1418.591     1873.379        1.509        0.269      155.497       13.936        0.008      331.902        0.216      866.551
12/26/2014  17:39:00      147.069       72.520       18.575       64.323       50.188       37.751     4137.426     2518.812     1425.121        1.766        0.404      163.976       21.466        0.017      331.875        0.171      866.548
12/26/2014  17:40:00      132.222       85.568       16.287       35.287       32.807       27.280     1245.149     1076.287      744.217        1.407        0.153      157.494       16.594        0.011      331.856        0.140      866.540
12/26/2014  17:41:00      117.789       64.752       26.718       38.871       38.458       28.345     1510.943     1478.992      803.433        1.129        0.190      134.414       22.337        0.028      331.809        0.064      866.527
12/26/2014  17:42:00      114.557       85.016       36.885       53.776       28.349       35.272     2891.908      803.641     1244.111        1.332        0.247      142.657       33.594        0.055      331.792        0.037      866.532
12/26/2014  17:43:00      143.272       73.375       30.464       51.267       29.707       28.758     2628.350      882.493      827.035        1.559        0.217      160.968       22.879        0.020      331.822        0.085      866.548
12/26/2014  17:44:00      118.449       53.672       23.941       61.685       41.942       39.088     3805.020     1759.140     1527.893        1.229        0.355      130.042       29.155        0.050      331.833        0.103      866.548
12/26/2014  17:45:00      110.441       50.292       24.664       59.789       45.035       35.227     3574.685     2028.139     1240.932        1.109        0.342      121.352       26.533        0.048      331.841        0.115      866.548
12/26/2014  17:46:00      111.360       74.958       30.319       49.905       31.520       32.818     2490.510      993.530     1077.047        1.175        0.228      134.238       31.111        0.054      331.759       -0.018      866.564
12/26/2014  17:47:00      120.799       59.634       34.719       32.298       28.877       27.852     1043.180      833.862      775.756        1.100        0.133      134.717       21.368        0.025      331.791        0.035      866.576
12/26/2014  17:48:00      108.726       44.303       10.955       41.500       31.772       22.885     1722.224     1009.472      523.715        0.858        0.163      117.406       17.800        0.023      331.834        0.106      866.601
12/26/2014  17:49:00      108.790       58.329       31.499       34.436       29.042       22.563     1185.843      843.451      509.069        0.938        0.127      123.441       15.175        0.015      331.824        0.088      866.649
12/26/2014  17:50:00       78.159       60.003       38.181       25.392       20.088       21.799      644.729      403.508      475.176        0.634        0.076       98.535       13.198        0.018      331.788        0.030      866.679
12/26/2014  17:51:00       99.348       51.849       22.309       40.969       23.292       26.921     1678.472      542.522      724.745        0.800        0.147      112.064       18.499        0.027      331.855        0.139      866.703
12/26/2014  17:52:00      102.793       30.985        5.188       52.956       29.370       27.299     2804.302      862.623      745.226        0.798        0.221      107.362       19.786        0.034      331.871        0.165      866.726
12/26/2014  17:53:00      111.685       47.134       20.445       37.983       22.886       28.466     1442.738      523.759      810.297        0.894        0.139      121.223       25.202        0.043      331.858        0.145      866.734
12/26/2014  17:54:00       94.896       49.120        6.045       23.074       22.894       20.965      532.393      524.150      439.529        0.648        0.075      106.856       11.035        0.011      331.845        0.123      866.727
12/26/2014  17:55:00       99.028       53.881       17.283       31.420       29.722       23.759      987.243      883.371      564.485        0.772        0.122      112.738       11.455        0.010      331.829        0.097      866.716
12/26/2014  17:56:00       88.663       39.373       17.325       28.246       23.872       29.672      797.864      569.881      880.419        0.598        0.112       97.013       18.878        0.038      331.824        0.089      866.710
12/26/2014  17:57:00      120.818       44.531       12.309       36.710       24.575       20.176     1347.641      603.922      407.061        0.954        0.118      128.764       17.133        0.018      331.858        0.144      866.699
12/26/2014  17:58:00       91.238       25.705       12.741       42.513       42.167       29.081     1807.330     1778.095      845.702        0.679        0.222       94.790       19.987        0.044      331.802        0.051      866.687
12/26/2014  17:59:00       98.564       35.798       20.952       58.214       46.255       39.058     3388.825     2139.558     1525.525        0.924        0.353      104.864       36.556        0.122      331.789        0.032      866.669
12/26/2014  18:00:00      112.229       41.723       15.453       67.705       45.794       32.083     4583.919     2097.075     1029.300        1.114        0.386      119.734       21.226        0.031      331.766       -0.008      866.659
12/26/2014  18:01:00      136.195       74.580       13.111       33.899       28.359       22.959     1149.137      804.208      527.138        1.338        0.124      155.278       19.836        0.016      331.729       -0.067      866.651
12/26/2014  18:02:00      123.716       73.590       19.939       30.503       28.947       25.092      930.457      837.915      629.608        1.176        0.120      143.948       20.045        0.019      331.695       -0.124      866.636
12/26/2014  18:03:00       93.808       64.299       12.143       37.652       29.914       27.215     1417.707      894.844      740.645        0.807        0.153      113.729       21.479        0.036      331.643       -0.209      866.618
12/26/2014  18:04:00      100.362       85.254       12.992       32.510       23.076       21.339     1056.905      532.494      455.348        0.978        0.102      131.684        9.038        0.005      331.663       -0.176      866.614
12/26/2014  18:05:00       92.619       63.430        9.821       31.718       26.195       21.904     1006.008      686.157      479.780        0.743        0.109      112.257       14.173        0.016      331.637       -0.218      866.619
12/26/2014  18:06:00       68.929       55.302        2.871       35.631       26.341       21.680     1269.574      693.822      470.042        0.513        0.122       88.372       13.517        0.023      331.612       -0.259      866.618
12/26/2014  18:07:00       96.094       67.541       10.940       33.708       28.282       30.810     1136.245      799.866      949.242        0.840        0.144      117.455       18.882        0.026      331.640       -0.212      866.622
12/26/2014  18:08:00       84.846       59.073        4.385       38.841       23.228       25.071     1508.630      539.537      628.568        0.669        0.134      103.386       16.110        0.024      331.639       -0.215      866.624
12/26/2014  18:09:00       93.578       67.514        8.408       33.140       27.697       22.729     1098.278      767.097      516.611        0.788        0.119      115.390       13.667        0.014      331.617       -0.252      866.631
12/26/2014  18:10:00       98.902       55.267        8.305       26.378       19.525       21.337      695.823      381.226      455.277        0.722        0.077      113.296        5.908        0.003      331.618       -0.251      866.636
12/26/2014  18:11:00      101.188       58.761       -4.682       14.518       17.687       13.923      210.779      312.833      193.837        0.722        0.036      117.012        7.716        0.004      331.638       -0.216      866.635
12/26/2014  18:12:00       75.348       60.429       27.459       25.788       24.123       20.089      665.042      581.898      403.582        0.587        0.083       96.587       16.602        0.030      331.565       -0.337      866.638
12/26/2014  18:13:00       74.334       48.415       39.176       32.390       31.796       33.310     1049.089     1010.958     1109.583        0.629        0.158       88.711       24.911        0.079      331.589       -0.299      866.664
12/26/2014  18:14:00      113.824       49.806       18.711       47.611       37.526       29.949     2266.800     1408.209      896.969        1.018        0.229      124.243       24.785        0.040      331.643       -0.210      866.702
12/26/2014  18:15:00       78.551       33.869       24.086       34.870       33.661       26.409     1215.893     1133.044      697.449        0.547        0.152       85.542       16.675        0.038      331.634       -0.224      866.728
12/26/2014  18:16:00       18.942       45.441       51.292       27.264       24.034       19.895      743.313      577.639      395.820        0.339        0.086       49.231       12.236        0.062      331.576       -0.320      866.771
12/26/2014  18:17:00       58.263       17.825       46.013       45.129       29.714       27.259     2036.643      882.900      743.075        0.475        0.183       60.929       26.647        0.191      331.590       -0.298      866.811
12/26/2014  18:18:00      105.160       66.347       22.358       45.706       22.455       28.256     2089.041      504.228      798.380        0.968        0.170      124.340       23.821        0.037      331.666       -0.170      866.827
12/26/2014  18:19:00       98.136       67.127       34.167       33.272       25.328       23.667     1107.040      641.497      560.146        0.881        0.115      118.898       20.659        0.030      331.596       -0.286      866.830
12/26/2014  18:20:00      118.740       62.440       20.037       40.628       26.933       23.109     1650.666      725.394      534.015        1.065        0.146      134.157       12.465        0.009      331.582       -0.309      866.834
12/26/2014  18:21:00      115.766       48.796        5.359       52.703       41.671       31.783     2777.597     1736.470     1010.147        1.067        0.276      125.630       24.103        0.037      331.622       -0.244      866.852
12/26/2014  18:22:00      130.092       51.161       12.687       34.199       33.332       27.344     1169.589     1111.001      747.675        1.136        0.151      139.791       12.866        0.008      331.604       -0.273      866.852
12/26/2014  18:23:00       95.897       58.157        3.781       46.233       34.420       19.223     2137.477     1184.729      369.522        0.814        0.185      112.154        3.568        0.001      331.547       -0.368      866.851
12/26/2014  18:24:00      110.903       73.519        4.538       29.672       20.220       20.378      880.438      408.834      415.243        0.971        0.085      133.058       12.808        0.009      331.499       -0.448      866.853
12/26/2014  18:25:00      110.217       63.708        4.826       26.363       37.431       23.475      695.018     1401.073      551.065        0.944        0.132      127.305       15.381        0.015      331.515       -0.422      866.865
12/26/2014  18:26:00      111.218       82.333       -1.128       37.956       28.129       28.026     1440.630      791.249      785.474        1.108        0.151      138.377       21.889        0.025      331.496       -0.452      866.889
12/26/2014  18:27:00       89.798       75.144        9.412       45.626       36.098       34.836     2081.736     1303.082     1213.570        0.920        0.230      117.091       22.882        0.038      331.495       -0.453      866.900
12/26/2014  18:28:00      108.469       80.876       12.277       50.718       29.495       30.065     2572.365      869.933      903.889        1.140        0.217      135.301       22.076        0.027      331.501       -0.444      866.913
12/26/2014  18:29:00      114.417       79.797       12.369       43.473       31.359       28.519     1889.878      983.403      813.347        1.165        0.184      139.495       21.507        0.024      331.447       -0.533      866.925
12/26/2014  18:30:00      129.619       94.527       18.374       25.599       25.968       28.218      655.326      674.331      796.274        1.410        0.106      160.426       14.350        0.008      331.479       -0.480      866.945
12/26/2014  18:31:00       87.216       74.943        6.798       30.139       23.595       28.225      908.354      556.701      796.666        0.777        0.113      114.992       14.996        0.017      331.408       -0.595      866.968
12/26/2014  18:32:00       90.574       61.101       -3.907       40.293       37.011       25.426     1623.491     1369.810      646.464        0.780        0.182      109.257       23.935        0.048      331.452       -0.524      866.994
12/26/2014  18:33:00       83.674       53.528       10.165       37.441       21.001       25.147     1401.811      441.021      632.347        0.622        0.124       99.331       16.164        0.026      331.430       -0.560      867.027
12/26/2014  18:34:00       41.530       48.843        9.392       36.087       29.747       23.949     1302.242      884.872      573.558        0.348        0.138       64.112       17.676        0.076      331.399       -0.610      867.064
12/26/2014  18:35:00       41.972       33.831       -3.994       22.829       16.827       13.965      521.183      283.144      195.012        0.196        0.050       53.909       10.447        0.038      331.453       -0.524      867.100
12/26/2014  18:36:00       17.605       25.345        4.886       14.723       19.035       12.555      216.778      362.333      157.628        0.086        0.037       30.859        8.992        0.085      331.443       -0.540      867.129
12/26/2014  18:37:00       27.211       51.202      -10.023       16.337       27.539       14.908      266.893      758.391      222.252        0.235        0.062       57.984       12.700        0.048      331.467       -0.498      867.151
12/26/2014  18:38:00       69.146       29.035        4.756       35.042       22.071       19.940     1227.973      487.122      397.608        0.388        0.106       74.995       21.267        0.080      331.447       -0.534      867.160
12/26/2014  18:39:00       53.712       24.142        4.553       14.742       12.943       14.826      217.326      167.525      219.804        0.205        0.030       58.888        8.706        0.022      331.436       -0.550      867.160
12/26/2014  18:40:00       52.357       25.316        1.860       13.543       14.938       11.700      183.399      223.147      136.882        0.196        0.027       58.156        3.903        0.005      331.430       -0.560      867.162
12/26/2014  18:41:00       90.952       51.665        7.425       30.203       23.155       22.332      912.244      536.170      498.729        0.647        0.097      104.602       16.259        0.024      331.425       -0.570      867.143
12/26/2014  18:42:00       90.386       44.091       10.081       29.508       22.934       15.515      870.737      525.951      240.706        0.593        0.082      100.566       10.687        0.011      331.451       -0.526      867.116
12/26/2014  18:43:00       92.191       34.824       11.559       30.330       18.956       18.370      919.905      359.319      337.445        0.573        0.081       98.548       13.496        0.019      331.458       -0.515      867.085
12/26/2014  18:44:00      100.340       41.212       11.169       42.900       28.548       23.715     1840.386      815.009      562.388        0.755        0.161      108.474       15.111        0.019      331.507       -0.433      867.068
12/26/2014  18:45:00      100.512       40.762       20.511       36.892       29.099       25.474     1360.994      846.776      648.921        0.752        0.143      108.463       17.444        0.026      331.491       -0.460      867.067
12/26/2014  18:46:00      109.669       62.984       22.651       19.415       16.656       17.658      376.943      277.428      311.811        0.874        0.048      126.469        7.029        0.003      331.481       -0.478      867.063
12/26/2014  18:47:00       87.434       60.560       29.155       23.202       20.283       19.424      538.327      411.391      377.292        0.674        0.066      106.359       11.217        0.011      331.497       -0.452      867.063
12/26/2014  18:48:00       51.119       40.195       31.721       28.829       17.896       21.786      831.136      320.277      474.648        0.343        0.081       65.029        9.425        0.021      331.439       -0.545      867.078
12/26/2014  18:49:00       61.922       52.859       30.832       24.337       22.033       21.685      592.308      485.454      470.248        0.456        0.077       81.415       16.019        0.039      331.467       -0.500      867.087
12/26/2014  18:50:00       37.412       33.057       33.169       19.703       28.524       16.134      388.220      813.643      260.310        0.253        0.073       49.924        2.650        0.003      331.467       -0.499      867.106
12/26/2014  18:51:00        3.560       22.397       42.369       16.707       18.835       12.186      279.127      354.775      148.506        0.155        0.039       22.679       10.756        0.225      331.464       -0.506      867.120
12/26/2014  18:52:00       -0.516       17.945       39.767       14.550       21.772       14.407      211.705      474.035      207.557        0.140        0.045       17.952        5.701        0.101      331.527       -0.401      867.153
12/26/2014  18:53:00       52.733       39.548       24.274       23.779       16.294       15.683      565.424      265.485      245.961        0.301        0.054       65.915       10.074        0.023      331.529       -0.399      867.194
12/26/2014  18:54:00       80.493       56.575       18.222       16.991       18.514       19.305      288.677      342.766      372.674        0.551        0.050       98.386        7.766        0.006      331.549       -0.366      867.217
12/26/2014  18:55:00       90.710       55.085       17.967       17.423       13.644       14.159      303.557      186.157      200.488        0.614        0.035      106.126        9.455        0.008      331.544       -0.372      867.224
12/26/2014  18:56:00       96.249       61.683       12.399       19.336       15.854       13.073      373.871      251.359      170.905        0.701        0.040      114.318        4.065        0.001      331.569       -0.330      867.220
12/26/2014  18:57:00       83.280       52.083       20.415       17.622       15.364       12.345      310.518      236.041      152.403        0.538        0.035       98.225       10.873        0.012      331.588       -0.299      867.212
12/26/2014  18:58:00       88.782       56.891       20.048       21.131       16.952       11.915      446.536      287.357      141.967        0.620        0.044      105.446        9.344        0.008      331.695       -0.124      867.205
12/26/2014  18:59:00       88.371       42.285       21.625       27.268       20.563       21.164      743.530      422.818      447.907        0.584        0.081       97.966       14.834        0.023      331.630       -0.231      867.216
12/26/2014  19:00:00       92.610       45.545        8.359       21.495       18.329       15.138      462.055      335.962      229.168        0.587        0.051      103.203        9.191        0.008      331.668       -0.169      867.232
12/26/2014  19:01:00       84.944       37.638        2.889       26.168       24.060       14.844      684.740      578.867      220.358        0.506        0.074       92.909       10.233        0.012      331.644       -0.208      867.255
12/26/2014  19:02:00       49.893       45.254       30.233       44.221       23.195       22.194     1955.520      537.991      492.596        0.422        0.149       67.359       17.202        0.065      331.622       -0.243      867.274
12/26/2014  19:03:00       79.589       51.655       27.155       20.217       14.744       22.923      408.727      217.375      525.472        0.545        0.058       94.882       11.860        0.016      331.621       -0.245      867.296
12/26/2014  19:04:00       64.629       31.605       17.062       19.405       17.640       19.247      376.561      311.179      370.449        0.326        0.053       71.943        7.497        0.011      331.603       -0.275      867.304
12/26/2014  19:05:00       64.200       40.721        8.998       19.367       17.709       12.478      375.066      313.597      155.710        0.335        0.042       76.025        8.761        0.013      331.487       -0.466      867.318
12/26/2014  19:06:00       51.868       20.770        6.867       19.885       15.498       13.512      395.403      240.188      182.565        0.199        0.041       55.872       10.943        0.038      331.480       -0.478      867.337
12/26/2014  19:07:00       20.505        9.200        8.163       16.558       19.361       11.946      274.169      374.865      142.706        0.068        0.040       22.474        7.440        0.110      331.413       -0.588      867.351
12/26/2014  19:08:00       20.340       10.863        0.857       12.194       10.714        9.996      148.691      114.786       99.923        0.045        0.018       23.059        5.544        0.058      331.432       -0.557      867.345
12/26/2014  19:09:00       -6.854      -10.257        0.183        7.802        8.065        7.091       60.874       65.037       50.284        0.016        0.009       12.336        5.397        0.191      331.467       -0.501      867.333
12/26/2014  19:10:00      -13.312       -6.421       -0.943        8.516        7.094        7.664       72.526       50.318       58.734        0.020        0.009       14.780        3.339        0.051      331.450       -0.527      867.311
12/26/2014  19:11:00        2.696        6.849        8.022        8.181        9.348        8.798       66.936       87.387       77.413        0.018        0.012        7.360        6.684        0.825      331.319       -0.742      867.299
12/26/2014  19:12:00       11.910       13.116        6.880       20.956       16.520       12.048      439.137      272.917      145.161        0.061        0.043       17.717        6.073        0.117      331.257       -0.843      867.295
12/26/2014  19:13:00       36.079       32.207        3.155       24.856       19.675       13.895      617.809      387.119      193.076        0.177        0.060       48.363       10.007        0.043      331.281       -0.806      867.295
12/26/2014  19:14:00       91.633       52.029       11.315       28.082       18.840       14.404      788.597      354.959      207.476        0.629        0.068      105.374        9.250        0.008      331.489       -0.464      867.289
12/26/2014  19:15:00       87.018       37.789        2.283       30.922       21.713       17.433      956.167      471.461      303.911        0.537        0.087       94.868       13.181        0.019      331.464       -0.503      867.294
12/26/2014  19:16:00       82.814       58.172       18.011       18.649       21.767       13.698      347.771      473.784      187.635        0.579        0.050      101.203       11.303        0.012      331.489       -0.463      867.294
12/26/2014  19:17:00       90.862       58.669       10.912       24.397       23.290       22.369      595.219      542.423      500.359        0.673        0.082      108.157       15.128        0.020      331.512       -0.425      867.300
12/26/2014  19:18:00       98.419       51.312       11.092       28.451       24.094       18.304      809.468      580.498      335.040        0.708        0.086      110.993       11.823        0.011      331.434       -0.554      867.307
12/26/2014  19:19:00       83.771       46.636        1.161       34.363       24.876       18.782     1180.809      618.809      352.774        0.567        0.108       95.877        8.494        0.008      331.453       -0.522      867.312
12/26/2014  19:20:00       61.955       53.254        2.945       29.364       20.634       19.473      862.221      425.776      379.202        0.417        0.083       81.697       11.597        0.020      331.477       -0.483      867.312
12/26/2014  19:21:00       68.012       55.758        1.607       26.355       23.507       18.872      694.607      552.583      356.138        0.467        0.080       87.947       10.869        0.015      331.489       -0.463      867.321
12/26/2014  19:22:00       43.900       48.275       -2.090       22.015       23.401       18.259      484.662      547.587      333.387        0.281        0.068       65.251       14.613        0.050      331.434       -0.554      867.334
12/26/2014  19:23:00       72.647       52.582        4.185       33.666       28.555       23.580     1133.393      815.395      555.999        0.528        0.125       89.680       17.202        0.037      331.461       -0.509      867.346
12/26/2014  19:24:00       65.244       32.015       11.424       23.085       15.450       17.441      532.939      238.714      304.200        0.324        0.054       72.675       10.916        0.023      331.385       -0.634      867.344
12/26/2014  19:25:00       85.375       43.453        9.060       20.335       16.076       14.007      413.519      258.441      196.190        0.506        0.043       95.797        7.911        0.007      331.444       -0.536      867.336
12/26/2014  19:26:00       75.848       53.717       13.349       17.902       15.218       14.190      320.483      231.600      201.363        0.478        0.038       92.943        9.385        0.010      331.414       -0.586      867.323
12/26/2014  19:27:00       70.771       44.540       11.257       22.941       17.545       16.950      526.276      307.814      287.295        0.412        0.056       83.620        7.837        0.009      331.406       -0.600      867.308
12/26/2014  19:28:00       56.501       20.573        9.950       17.920       17.196       15.254      321.128      295.701      232.678        0.228        0.042       60.130       13.974        0.054      331.405       -0.602      867.291
12/26/2014  19:29:00       76.450       39.960        5.159       16.365       13.475       11.246      267.804      181.580      126.472        0.402        0.029       86.263        7.847        0.008      331.405       -0.602      867.290
12/26/2014  19:30:00       57.832       19.616        3.931       17.929       13.594       12.284      321.431      184.794      150.898        0.220        0.033       61.069        9.281        0.023      331.382       -0.639      867.288
12/26/2014  19:31:00       37.171       19.195       10.900       16.432       11.901       12.522      270.007      141.624      156.806        0.122        0.028       41.835        4.555        0.012      331.328       -0.728      867.280
12/26/2014  19:32:00        2.978        4.053        6.745       15.347       10.162        9.969      235.516      103.274       99.372        0.025        0.022        5.029        5.755        1.310      331.338       -0.709      867.265
12/26/2014  19:33:00       -1.642        2.579       27.205       14.292       25.280       12.732      204.257      639.067      162.109        0.088        0.050        3.058        8.415        7.573      331.304       -0.767      867.261
12/26/2014  19:34:00       34.641      -62.271        9.265       22.539       47.946       15.659      508.020     2298.784      245.217        0.411        0.153       71.258       22.245        0.097      331.538       -0.383      867.254
12/26/2014  19:35:00       -9.556      -36.163        5.868       31.169       17.301       14.084      971.477      299.316      198.368        0.145        0.073       37.404        8.645        0.053      331.402       -0.605      867.255
12/26/2014  19:36:00       61.726      -48.725       -6.426       44.459       19.320       13.071     1976.580      373.245      170.857        0.437        0.126       78.639       14.748        0.035      331.632       -0.228      867.264
12/26/2014  19:37:00       59.216      -80.413       -2.748       29.452       30.331       19.306      867.442      919.992      372.729        0.607        0.108       99.864        5.165        0.003      331.738       -0.053      867.277
12/26/2014  19:38:00       41.284      -27.105       -3.651       30.033       24.265       20.070      901.965      588.771      402.804        0.217        0.095       49.387       23.497        0.226      331.583       -0.308      867.296
12/26/2014  19:39:00       -1.452      -24.007       12.118       12.201       17.142        9.992      148.859      293.848       99.834        0.063        0.027       24.051        6.690        0.077      331.355       -0.682      867.301
12/26/2014  19:40:00       34.745      -34.113        9.252       31.696       23.470       15.311     1004.630      550.837      234.430        0.212        0.089       48.692       14.236        0.085      331.505       -0.437      867.310
12/26/2014  19:41:00        5.938       -4.227        9.933       12.743       18.855       12.020      162.379      355.510      144.478        0.041        0.033        7.289        7.873        1.167      331.345       -0.700      867.312
12/26/2014  19:42:00       19.695        6.636        3.441       22.361       22.445       12.133      500.026      503.768      147.201        0.080        0.058       20.783        9.036        0.189      331.413       -0.589      867.318
12/26/2014  19:43:00       44.969       32.233       10.586       18.749       13.467       10.584      351.508      181.358      112.025        0.191        0.032       55.327        8.719        0.025      331.440       -0.544      867.338
12/26/2014  19:44:00       46.818       49.550       -2.115       25.069       17.703       16.423      628.442      313.380      269.723        0.293        0.061       68.170       18.647        0.075      331.390       -0.626      867.358
12/26/2014  19:45:00       30.281       49.182       -5.436       17.866       20.052       13.486      319.182      402.095      181.878        0.213        0.045       57.757       12.797        0.049      331.389       -0.626      867.370
12/26/2014  19:46:00       23.780       86.596      -11.309       14.495       13.194        8.850      210.098      174.094       78.324        0.433        0.023       89.801        6.212        0.005      331.355       -0.682      867.378
12/26/2014  19:47:00       18.819       83.534      -10.858       14.562       26.194       15.347      212.063      686.119      235.534        0.429        0.057       85.627       12.021        0.020      331.283       -0.801      867.375
12/26/2014  19:48:00        6.500       87.478      -13.384       16.887       14.417        6.104      285.169      207.862       37.259        0.420        0.027       87.719        5.755        0.004      331.304       -0.767      867.362
12/26/2014  19:49:00        7.068       57.805       -3.333       11.910       12.185        7.784      141.845      148.473       60.594        0.188        0.018       58.235        5.082        0.008      331.236       -0.879      867.359
12/26/2014  19:50:00       19.207      -12.364        1.309       22.006       27.366       12.896      484.243      748.915      166.307        0.096        0.070       22.843       14.400        0.397      331.017       -1.239      867.366
12/26/2014  19:51:00      -40.185      -10.855       -3.306       13.854       14.751        9.814      191.937      217.586       96.322        0.112        0.025       41.625        5.795        0.019      330.761       -1.661      867.381
12/26/2014  19:52:00      -62.557       11.311      -15.060       10.428        8.147        9.505      108.738       66.372       90.336        0.227        0.013       63.571        6.799        0.011      330.627       -1.882      867.390
12/26/2014  19:53:00      -41.550       -5.961       -1.945       25.484       19.787       11.438      649.459      391.525      130.831        0.147        0.059       41.975       13.720        0.107      330.618       -1.893      867.395
12/26/2014  19:54:00      -53.176      -19.466       -6.625       23.369       15.303        7.828      546.117      234.173       61.273        0.205        0.042       56.627        4.672        0.007      330.677       -1.796      867.399
12/26/2014  19:55:00      -63.008      -36.864       -9.391       12.922       20.696        9.116      166.989      428.325       83.096        0.305        0.034       73.000       10.002        0.019      330.759       -1.663      867.399
12/26/2014  19:56:00      -58.248       -5.804      -13.665       10.236        8.939        9.300      104.774       79.910       86.496        0.194        0.014       58.537        4.220        0.005      330.735       -1.703      867.399
12/26/2014  19:57:00      -65.504       -0.732       -8.847       13.068       10.442        9.978      170.767      109.025       99.560        0.237        0.019       65.508        8.502        0.017      330.666       -1.815      867.397
12/26/2014  19:58:00      -64.065       -3.228      -10.737       19.032       14.299        8.334      362.233      204.476       69.456        0.243        0.032       64.146        6.491        0.010      330.755       -1.670      867.399
12/26/2014  19:59:00      -61.639        1.530      -10.870       15.804        7.732        6.807      249.756       59.791       46.334        0.214        0.018       61.657        5.600        0.008      330.780       -1.627      867.397
12/26/2014  20:00:00      -76.628       10.082      -15.800       10.094        6.233        7.619      101.897       38.849       58.049        0.321        0.010       77.288        3.942        0.003      330.798       -1.600      867.383
12/26/2014  20:01:00      -61.283        9.225      -13.058       15.225       10.502        8.169      231.786      110.296       66.729        0.221        0.020       61.973        6.456        0.011      330.724       -1.720      867.372
12/26/2014  20:02:00      -70.532        3.530      -11.980       15.423        9.407        7.652      237.868       88.490       58.561        0.276        0.019       70.620        5.810        0.007      330.770       -1.644      867.354
12/26/2014  20:03:00      -36.932       -9.717       -5.908        7.896        7.376        4.891       62.354       54.413       23.919        0.082        0.007       38.189        2.874        0.006      330.921       -1.397      867.339
12/26/2014  20:04:00       -2.445        1.756       -1.298        9.199        7.900        5.370       84.615       62.416       28.838        0.009        0.009        3.010        4.143        1.894      331.083       -1.131      867.317
12/26/2014  20:05:00       -9.705        6.859        0.306       10.726       10.611        4.184      115.049      112.602       17.510        0.019        0.012       11.884        4.839        0.166      331.062       -1.165      867.306
12/26/2014  20:06:00      -15.316       11.023        1.254       11.005        7.031        5.910      121.117       49.440       34.933        0.028        0.010       18.871        4.510        0.057      331.105       -1.097      867.311
12/26/2014  20:07:00        8.206       15.149       -0.524       18.606       23.869       10.904      346.201      569.739      118.908        0.067        0.052       17.229        9.466        0.302      331.105       -1.094      867.329
12/26/2014  20:08:00       -8.721      -25.011       -5.790       11.659       12.211        7.300      135.933      149.105       53.287        0.054        0.017       26.488        3.761        0.020      330.972       -1.314      867.347
12/26/2014  20:09:00      -10.564       -7.004        1.289        7.672        8.184        7.875       58.861       66.979       62.022        0.018        0.009       12.675        5.649        0.199      330.838       -1.533      867.363
12/26/2014  20:10:00      -26.588       -7.658       -0.119       26.714        6.730        9.123      713.623       45.291       83.234        0.080        0.042       27.669       11.503        0.173      330.679       -1.792      867.371
12/26/2014  20:11:00      -43.977       -2.684       -5.827       13.384       13.552        9.774      179.126      183.669       95.530        0.122        0.023       44.059        7.312        0.028      330.613       -1.902      867.366
12/26/2014  20:12:00      -77.790       18.674      -12.254       21.269       17.730       12.880      452.376      314.355      165.894        0.374        0.047       80.000        2.373        0.001      330.553       -2.001      867.353
12/26/2014  20:13:00      -73.983       28.274      -13.002       15.252       11.588        9.126      232.634      134.288       83.286        0.345        0.023       79.202        4.846        0.004      330.603       -1.919      867.332
12/26/2014  20:14:00      -36.621       24.499      -17.939       22.605       16.359       12.524      511.002      267.604      156.841        0.160        0.047       44.060        5.518        0.016      330.751       -1.676      867.329
12/26/2014  20:15:00       15.846       39.058       -1.684       17.468       27.047       13.207      305.138      731.546      174.426        0.150        0.061       42.150       12.673        0.090      331.049       -1.186      867.331
12/26/2014  20:16:00       16.981       41.649       -1.667       14.773       20.783       12.670      218.229      431.929      160.525        0.142        0.041       44.978       12.293        0.075      331.114       -1.080      867.342
12/26/2014  20:17:00       13.777       47.274       -6.337       11.229       12.702        8.907      126.081      161.338       79.332        0.142        0.018       49.241        7.187        0.021      331.174       -0.980      867.351
12/26/2014  20:18:00       -4.471       35.294       -4.201        7.916        8.439        5.034       62.658       71.219       25.338        0.072        0.008       35.576        2.810        0.006      331.245       -0.864      867.357
12/26/2014  20:19:00      -31.946      -13.805       -3.976       22.923       15.728       11.209      525.479      247.365      125.648        0.106        0.045       34.801       13.060        0.141      330.803       -1.591      867.354
12/26/2014  20:20:00      -72.712      -16.156       -9.139        9.414       10.529        8.169       88.629      110.861       66.733        0.295        0.013       74.485        3.607        0.002      330.475       -2.129      867.360
12/26/2014  20:21:00      -84.237      -15.765      -15.273       18.423       10.889        9.739      339.413      118.571       94.856        0.407        0.028       85.699        8.339        0.009      330.444       -2.180      867.378
12/26/2014  20:22:00      -88.241      -31.998      -12.293       14.692       11.752        9.688      215.866      138.119       93.858        0.470        0.022       93.863        5.821        0.004      330.468       -2.141      867.408
12/26/2014  20:23:00      -68.280      -26.820      -12.462       18.787       14.000        9.639      352.934      195.990       92.912        0.309        0.032       73.358        6.621        0.008      330.454       -2.162      867.444
12/26/2014  20:24:00      -74.418       -8.258      -15.172       13.030        9.748        9.788      169.776       95.016       95.812        0.310        0.018       74.875        5.985        0.006      330.522       -2.052      867.455
12/26/2014  20:25:00      -41.357       -7.574       -8.976       14.888       10.236        8.861      221.639      104.775       78.517        0.113        0.020       42.045        6.037        0.021      330.521       -2.053      867.458
12/26/2014  20:26:00      -16.265       -4.308       -7.518       10.577        7.982        7.350      111.872       63.705       54.018        0.028        0.011       16.826        6.479        0.148      330.696       -1.766      867.458
12/26/2014  20:27:00        6.784       60.692      -14.464       19.405       41.032       14.928      376.571     1683.587      222.855        0.311        0.114       61.069       14.175        0.054      331.003       -1.263      867.460
12/26/2014  20:28:00       -3.847      124.716      -19.304        9.211       17.767        7.337       84.834      315.667       53.838        0.820        0.023      124.776        4.630        0.001      331.231       -0.888      867.473
12/26/2014  20:29:00        6.586      136.517      -21.481       12.283       14.546        8.484      150.881      211.595       71.973        0.979        0.022      136.675        7.069        0.003      331.258       -0.840      867.479
12/26/2014  20:30:00        1.630      122.832      -16.734       11.148       16.864        7.204      124.271      284.411       51.898        0.792        0.023      122.843        5.411        0.002      331.178       -0.975      867.488
12/26/2014  20:31:00        0.678      117.981      -16.390       12.115       12.935        5.900      146.775      167.314       34.815        0.727        0.017      117.983        4.400        0.001      331.201       -0.937      867.501
12/26/2014  20:32:00       -5.720      117.008      -18.757       12.393       15.815        6.865      153.580      250.111       47.129        0.726        0.023      117.147        7.099        0.004      331.207       -0.927      867.518
12/26/2014  20:33:00       -5.383      107.307      -20.938       10.584       12.410        6.786      112.031      154.002       46.043        0.615        0.016      107.442        3.122        0.001      331.256       -0.845      867.534
12/26/2014  20:34:00      -11.098       77.075       -5.875       17.022       18.895       11.568      289.753      357.037      133.829        0.344        0.039       77.870        8.794        0.013      331.191       -0.953      867.558
12/26/2014  20:35:00      -31.387       20.920      -13.021       25.180       37.108       21.185      634.018     1377.016      448.825        0.203        0.123       37.720       20.116        0.284      330.754       -1.671      867.584
12/26/2014  20:36:00      -44.905       -6.930      -10.749       16.811       15.477       13.506      282.624      239.540      182.420        0.144        0.035       45.436       10.724        0.056      330.429       -2.203      867.599
12/26/2014  20:37:00      -59.332      -10.176       -8.898       15.227       14.749       11.490      231.866      217.531      132.009        0.214        0.029       60.199        8.614        0.020      330.382       -2.282      867.601
12/26/2014  20:38:00      -55.595      -22.559      -11.204       18.265       16.914       11.196      333.607      286.095      125.358        0.224        0.037       59.998        6.789        0.013      330.293       -2.426      867.604
12/26/2014  20:39:00      -69.066      -15.713       -9.672       27.679       30.448       17.785      766.129      927.092      316.316        0.356        0.100       70.831       10.583        0.022      330.305       -2.406      867.620
12/26/2014  20:40:00      -86.228       -8.092      -14.235       25.603       22.814       14.886      655.497      520.469      221.590        0.455        0.070       86.607        8.710        0.010      330.312       -2.395      867.647
12/26/2014  20:41:00      -97.761       -3.808      -15.489       36.774       19.435       19.041     1352.302      377.725      362.576        0.595        0.105       97.835       20.435        0.044      330.268       -2.468      867.662
12/26/2014  20:42:00      -76.933       -8.915       -4.646       30.958       25.433       20.227      958.425      646.848      409.142        0.402        0.101       77.448       18.568        0.057      330.250       -2.499      867.670
12/26/2014  20:43:00      -94.967      -36.276      -12.039       28.358       28.520       15.626      804.192      813.377      244.157        0.617        0.093      101.659        6.046        0.004      330.258       -2.484      867.680
12/26/2014  20:44:00     -120.425        0.780       -6.275       41.858       23.404       28.153     1752.076      547.743      792.572        0.882        0.155      120.428       27.512        0.052      330.229       -2.532      867.702
12/26/2014  20:45:00     -113.806      -28.050       -3.886       31.486       28.802       20.065      991.389      829.576      402.624        0.799        0.111      117.211       17.266        0.022      330.238       -2.519      867.740
12/26/2014  20:46:00     -109.837      -15.174       -6.182       32.316       19.743       17.826     1044.327      389.775      317.775        0.704        0.088      110.880       17.997        0.026      330.256       -2.487      867.764
12/26/2014  20:47:00      -98.429      -18.324       -9.549       21.967       16.464       13.351      482.546      271.078      178.261        0.552        0.047      100.120       10.336        0.011      330.332       -2.363      867.781
12/26/2014  20:48:00      -58.736       -0.121       -4.102       38.840       14.958       17.626     1508.574      223.753      310.667        0.275        0.102       58.736       18.804        0.102      330.259       -2.482      867.787
12/26/2014  20:49:00      -64.418       50.910      -11.581       33.038       33.549       25.444     1091.497     1125.565      647.378        0.487        0.143       82.107       13.997        0.029      330.420       -2.219      867.782
12/26/2014  20:50:00      -57.574       41.089      -15.067       13.595       12.505       12.088      184.821      156.374      146.117        0.286        0.024       70.732       10.986        0.024      330.508       -2.075      867.781
12/26/2014  20:51:00      -37.990       32.215       -7.428       28.803       12.158       10.456      829.606      147.809      109.320        0.181        0.054       49.810        6.814        0.019      330.551       -2.005      867.768
12/26/2014  20:52:00        8.044       40.653       -1.432       24.407       22.034       12.424      595.702      485.479      154.349        0.148        0.062       41.441        7.397        0.032      330.920       -1.397      867.742
12/26/2014  20:53:00       29.153       75.380       -9.967       16.126       29.449       11.189      260.050      867.236      125.185        0.394        0.063       80.821       13.050        0.026      331.113       -1.081      867.725
12/26/2014  20:54:00       16.748       45.538       -6.968       18.968       33.681       16.823      359.770     1134.424      283.025        0.209        0.089       48.520       19.110        0.155      330.994       -1.276      867.715
12/26/2014  20:55:00       17.480       55.327       -6.614       20.719       15.238       12.394      429.268      232.195      153.617        0.211        0.041       58.023       11.837        0.042      330.883       -1.458      867.720
12/26/2014  20:56:00        5.579       88.636      -13.240       19.262       16.551        8.454      371.042      273.925       71.465        0.439        0.036       88.812        6.222        0.005      330.894       -1.440      867.721
12/26/2014  20:57:00       -5.759      108.177      -12.453       12.373       11.450        6.410      153.087      131.094       41.084        0.611        0.016      108.330        6.132        0.003      331.079       -1.139      867.724
12/26/2014  20:58:00        4.295      104.217      -12.173        7.140       11.289        5.308       50.976      127.438       28.170        0.562        0.010      104.305        2.882        0.001      331.124       -1.063      867.732
12/26/2014  20:59:00        5.020      102.291      -15.818        8.455       11.802        6.592       71.491      139.276       43.449        0.550        0.013      102.414        5.408        0.003      331.124       -1.065      867.739
12/26/2014  21:00:00      -11.124       64.932       -2.832       16.981       31.880       19.323      288.356     1016.327      373.395        0.301        0.084       65.878       21.583        0.107      330.928       -1.386      867.745
12/26/2014  21:01:00        1.573       37.408       -2.548       33.397       23.883       20.201     1115.366      570.408      408.070        0.175        0.105       37.441       15.992        0.182      330.608       -1.909      867.758
12/26/2014  21:02:00      -16.012       35.979        1.070       30.572       31.130       21.925      934.670      969.102      480.692        0.197        0.119       39.380        5.266        0.018      330.574       -1.966      867.778
12/26/2014  21:03:00       -9.114       37.644      -10.804       23.361       50.394       13.054      545.733     2539.517      170.407        0.244        0.163       38.732       17.462        0.203      330.775       -1.636      867.813
12/26/2014  21:04:00        4.252      106.872      -11.016       16.254       26.200       13.341      264.197      686.432      177.988        0.634        0.056      106.957        8.645        0.007      331.057       -1.172      867.836
12/26/2014  21:05:00       -4.152      138.212      -21.278        9.732       15.451        8.982       94.719      238.744       80.677        0.999        0.021      138.275        6.012        0.002      331.019       -1.237      867.855
12/26/2014  21:06:00       -8.666      139.079      -19.970       12.679       12.199        8.913      160.757      148.824       79.450        1.010        0.019      139.349        4.909        0.001      330.894       -1.441      867.865
12/26/2014  21:07:00      -12.639      152.300      -21.339       14.145       18.155       10.659      200.089      329.604      113.615        1.223        0.032      152.823        6.053        0.002      330.909       -1.416      867.856
12/26/2014  21:08:00        3.251      165.095      -23.964       12.362       16.416        7.445      152.811      269.500       55.432        1.416        0.024      165.127        6.080        0.001      330.893       -1.444      867.850
12/26/2014  21:09:00        2.075      160.444      -21.828       12.506       17.086        9.333      156.405      291.938       87.097        1.338        0.027      160.457        5.785        0.001      330.854       -1.508      867.849
12/26/2014  21:10:00        1.560      152.005      -22.204       15.597       19.713        8.866      243.268      388.586       78.602        1.216        0.036      152.013        6.944        0.002      330.833       -1.542      867.854
12/26/2014  21:11:00       -6.081      138.873      -18.920       16.199       20.670        8.751      262.396      427.269       76.581        1.022        0.038      139.006        7.653        0.003      330.788       -1.614      867.845
12/26/2014  21:12:00        7.477      105.491      -14.819       19.672       20.093        9.326      386.987      403.723       86.976        0.614        0.044      105.755        5.236        0.002      330.734       -1.703      867.846
12/26/2014  21:13:00      -17.011       90.306      -12.722       16.326       23.853       12.961      266.538      568.944      167.988        0.480        0.050       91.894       11.659        0.016      330.900       -1.431      867.846
12/26/2014  21:14:00      -27.116       -1.358       -1.784       26.751       21.985       14.910      715.619      483.332      222.307        0.108        0.071       27.150       10.328        0.145      330.568       -1.977      867.841
12/26/2014  21:15:00      -51.485       -9.712      -10.382       11.010       13.801       10.416      121.217      190.464      108.485        0.164        0.021       52.393        5.129        0.010      330.316       -2.389      867.845
12/26/2014  21:16:00      -61.599       -3.656       -9.356       14.709       13.692       10.270      216.354      187.469      105.479        0.220        0.025       61.708        6.616        0.011      330.200       -2.581      867.854
12/26/2014  21:17:00      -79.865        2.814      -18.578       14.955       13.617        9.384      223.656      185.424       88.064        0.361        0.025       79.914        5.718        0.005      330.205       -2.572      867.879
12/26/2014  21:18:00      -55.376        4.106       -9.725        9.643       11.860        9.707       92.996      140.661       94.226        0.175        0.016       55.528        6.766        0.015      330.181       -2.611      867.899
12/26/2014  21:19:00      -37.252      -12.163       -9.250       13.512       11.142        5.790      182.573      124.137       33.523        0.098        0.017       39.187        2.785        0.005      330.238       -2.518      867.906
12/26/2014  21:20:00      -19.108       -2.224       -0.869       20.560       27.230       13.511      422.701      741.461      182.545        0.086        0.067       19.237       14.943        0.603      330.415       -2.227      867.911
12/26/2014  21:21:00       -0.671       53.532       -5.883       27.900       29.209       15.273      778.390      853.187      233.261        0.238        0.093       53.536       15.762        0.087      330.807       -1.583      867.909
12/26/2014  21:22:00       -1.439       74.078      -12.268       27.782       49.477       11.139      771.866     2447.982      124.088        0.449        0.167       74.092       19.564        0.070      330.756       -1.667      867.906
12/26/2014  21:23:00       -5.120       45.499        2.016       19.245       32.491       15.076      370.375     1055.669      227.281        0.188        0.083       45.786       18.488        0.163      330.806       -1.586      867.901
12/26/2014  21:24:00      -30.127        8.519       -3.153       20.052       24.059       12.145      402.087      578.816      147.508        0.106        0.056       31.309       13.434        0.184      330.616       -1.897      867.907
12/26/2014  21:25:00      -33.894       18.463       -5.149       31.122       32.977       17.786      968.591     1087.494      316.346        0.194        0.119       38.597        9.875        0.065      330.512       -2.068      867.919
12/26/2014  21:26:00      -52.528       -1.787       -9.358       14.735       10.774        9.501      217.133      116.087       90.262        0.164        0.021       52.558        8.850        0.028      330.189       -2.597      867.931
12/26/2014  21:27:00      -48.731       -9.010      -11.000        8.138       10.072        6.952       66.224      101.444       48.333        0.140        0.011       49.557        4.655        0.009      330.064       -2.802      867.938
12/26/2014  21:28:00      -63.520      -19.137      -15.135       18.034       14.005        7.473      325.212      196.151       55.841        0.260        0.029       66.341        5.219        0.006      330.095       -2.752      867.939
12/26/2014  21:29:00      -77.631      -21.090       -9.566        9.362       13.810       10.908       87.646      190.704      118.987        0.348        0.020       80.445        6.933        0.007      330.063       -2.802      867.930
12/26/2014  21:30:00      -67.872      -24.074      -12.541       18.460       18.865       13.266      340.776      355.901      176.000        0.311        0.044       72.015        9.413        0.017      330.057       -2.813      867.919
12/26/2014  21:31:00      -96.350      -26.051      -12.418       27.028       27.014       12.016      730.491      729.770      144.387        0.586        0.080       99.810        7.675        0.006      330.131       -2.694      867.914
12/26/2014  21:32:00      -92.744      -26.189      -17.087       21.272       17.355       10.868      452.514      301.204      118.120        0.523        0.044       96.371        7.951        0.007      330.108       -2.731      867.915
12/26/2014  21:33:00      -79.131      -15.548      -11.509       21.069       16.139       10.575      443.913      260.457      111.834        0.373        0.041       80.644        5.506        0.005      330.070       -2.793      867.917
12/26/2014  21:34:00      -71.206       -6.339       -7.459       19.604       17.208       12.258      384.316      296.116      150.259        0.300        0.042       71.488       11.110        0.024      330.105       -2.736      867.924
12/26/2014  21:35:00      -41.739       16.174       -3.420       14.707       10.582        8.356      216.305      111.977       69.817        0.121        0.020       44.763        2.127        0.002      330.396       -2.258      867.934
12/26/2014  21:36:00       -3.101       83.162       -7.684       24.105       32.706        9.511      581.075     1069.696       90.451        0.436        0.087       83.220        6.136        0.005      330.924       -1.392      867.945
12/26/2014  21:37:00       16.605      109.986      -11.633       14.936       14.188       11.191      223.082      201.287      125.245        0.653        0.027      111.232        7.114        0.004      330.956       -1.340      867.944
12/26/2014  21:38:00       18.050       82.271      -11.302       12.106       20.413       10.527      146.553      416.685      110.813        0.395        0.034       84.228       11.061        0.017      330.846       -1.520      867.942
12/26/2014  21:39:00       18.644       97.992      -14.676       16.529       17.889        8.991      273.200      320.026       80.833        0.542        0.034       99.750        8.101        0.007      330.924       -1.393      867.937
12/26/2014  21:40:00       20.342       71.792       -5.567       14.616       16.509       13.017      213.615      272.542      169.435        0.313        0.033       74.618        9.960        0.018      330.663       -1.821      867.934
12/26/2014  21:41:00       19.957       25.331       -2.290       16.670       24.459       15.810      277.897      598.229      249.959        0.109        0.056       32.248       14.290        0.196      330.564       -1.982      867.936
12/26/2014  21:42:00       15.735       47.205       -8.341       12.516       15.240        6.661      156.644      232.269       44.370        0.149        0.022       49.759        6.312        0.016      330.694       -1.770      867.957
12/26/2014  21:43:00      -14.728       58.340      -10.613       22.106       13.726        7.774      488.669      188.405       60.434        0.224        0.037       60.170        7.793        0.017      330.849       -1.514      867.979
12/26/2014  21:44:00      -49.714      -10.580       -7.111       30.489       17.395       17.109      929.596      302.575      292.734        0.208        0.076       50.827       17.108        0.113      330.173       -2.622      868.002
12/26/2014  21:45:00      -87.108      -20.670      -14.231       15.048       13.228       11.826      226.445      174.993      139.861        0.438        0.027       89.527        6.674        0.006      329.966       -2.963      868.016
12/26/2014  21:46:00      -78.645      -19.571       -6.398       15.506       19.021       15.277      240.451      361.793      233.393        0.372        0.042       81.043       12.547        0.024      329.900       -3.072      868.024
12/26/2014  21:47:00      -88.569      -22.381      -11.449       13.224       15.308       12.952      174.868      234.320      167.763        0.453        0.029       91.353        7.572        0.007      329.895       -3.079      868.025
12/26/2014  21:48:00      -74.426       -4.312       -4.917       26.337       19.407       16.641      693.662      376.641      276.916        0.346        0.067       74.551       14.537        0.038      329.862       -3.134      868.033
12/26/2014  21:49:00      -71.594       -2.354      -18.099       13.543       13.425       11.658      183.426      180.231      135.906        0.298        0.025       71.633        8.291        0.013      329.917       -3.044      868.055
12/26/2014  21:50:00      -61.827      -19.236      -12.152       12.815       21.188       11.281      164.216      448.924      127.267        0.254        0.037       64.750        8.153        0.016      330.065       -2.802      868.072
12/26/2014  21:51:00      -58.344      -20.972      -12.915       23.907       21.253       15.753      571.544      451.703      248.148        0.264        0.064       61.999       13.490        0.047      330.023       -2.868      868.087
12/26/2014  21:52:00      -57.485       -9.625       -9.434       17.868       19.413       12.382      319.248      376.862      153.313        0.217        0.042       58.285        9.444        0.026      329.973       -2.951      868.091
12/26/2014  21:53:00      -35.585      -24.334      -17.749       19.910       17.540       12.424      396.421      307.649      154.345        0.152        0.043       43.110        7.682        0.032      330.186       -2.602      868.094
12/26/2014  21:54:00       -3.761       28.271       -5.163       29.659       37.373       18.922      879.676     1396.742      358.059        0.174        0.132       28.520       12.619        0.196      330.662       -1.821      868.101
12/26/2014  21:55:00       -8.616       33.985        1.770       22.894       39.796       11.947      524.132     1583.689      142.740        0.174        0.113       35.060       13.698        0.153      330.560       -1.989      868.108
12/26/2014  21:56:00      -53.273      -20.102       -7.465       37.185       17.974       16.027     1382.713      323.065      256.871        0.263        0.098       56.939       19.443        0.117      330.110       -2.726      868.110
12/26/2014  21:57:00      -88.922      -37.499      -17.935       18.195       16.322       11.023      331.062      266.402      121.511        0.518        0.036       96.505        6.155        0.004      329.960       -2.973      868.105
12/26/2014  21:58:00     -109.596      -23.182      -14.836       14.892       13.657       10.386      221.772      186.517      107.860        0.664        0.026      112.021        6.216        0.003      329.923       -3.033      868.097
12/26/2014  21:59:00      -78.826       -8.196      -16.037       14.382       12.165       10.320      206.832      147.997      106.506        0.350        0.023       79.251        4.122        0.003      329.929       -3.024      868.082
12/26/2014  22:00:00      -90.937       -1.262      -15.055       21.491       13.086       10.988      461.883      171.233      120.726        0.463        0.038       90.946       10.540        0.013      329.962       -2.969      868.069
12/26/2014  22:01:00      -82.455       14.796      -17.326       23.454       13.425       11.094      550.074      180.220      123.085        0.409        0.043       83.772        8.425        0.010      329.990       -2.922      868.061
12/26/2014  22:02:00      -53.164       -3.213      -11.585       15.411       12.345        9.068      237.490      152.405       82.220        0.172        0.024       53.261        9.303        0.031      330.102       -2.740      868.064
12/26/2014  22:03:00      -39.444      -20.873       -1.212       13.799       14.006        9.227      190.423      196.175       85.131        0.123        0.024       44.626        6.153        0.019      330.079       -2.779      868.063
12/26/2014  22:04:00        0.884       10.013       -6.981       23.447       33.032       11.497      549.741     1091.093      132.182        0.096        0.089       10.052        6.618        0.433      330.335       -2.358      868.065
12/26/2014  22:05:00      -13.574       60.914       -5.309       23.185       35.843       19.419      537.533     1284.752      377.084        0.306        0.110       62.408       12.419        0.040      330.670       -1.810      868.073
12/26/2014  22:06:00      -18.043       -5.446       -8.711       23.487       23.912       13.870      551.660      571.797      192.374        0.087        0.066       18.847       10.166        0.291      330.351       -2.332      868.081
12/26/2014  22:07:00       -8.030      -23.308        2.356        9.720       12.944        8.633       94.485      167.541       74.524        0.047        0.017       24.652        4.227        0.029      330.373       -2.296      868.099
12/26/2014  22:08:00       -3.043      -11.917        5.234       10.427        8.489        5.890      108.723       72.067       34.693        0.020        0.011       12.300        4.494        0.133      330.239       -2.515      868.104
12/26/2014  22:09:00      -11.516      -26.770       -2.803       13.134       13.191        7.744      172.490      174.003       59.969        0.063        0.020       29.142        7.141        0.060      330.236       -2.520      868.094
12/26/2014  22:10:00      -14.121        2.885       -5.137       29.173       17.312       10.709      851.076      299.720      114.686        0.075        0.063       14.413       12.919        0.804      330.382       -2.282      868.076
12/26/2014  22:11:00       -7.549       68.666      -12.868       21.946       38.346       15.519      481.606     1470.392      240.830        0.356        0.110       69.080        8.370        0.015      330.549       -2.007      868.060
12/26/2014  22:12:00       -7.124       90.984      -12.390       22.844       15.230       11.813      521.857      231.943      139.557        0.469        0.045       91.262       10.478        0.013      330.705       -1.752      868.040
12/26/2014  22:13:00       -2.976      102.190      -12.498       19.289       19.181       12.727      372.048      367.900      161.987        0.575        0.045      102.233       11.702        0.013      330.732       -1.707      868.028
12/26/2014  22:14:00       -6.924      114.285      -14.502        8.832       15.094        9.472       77.996      227.832       89.721        0.686        0.020      114.494        7.399        0.004      330.731       -1.710      868.019
12/26/2014  22:15:00       17.393      112.032      -18.975       13.385       19.451        9.323      179.147      378.330       86.925        0.693        0.032      113.374       10.500        0.009      330.794       -1.606      868.009
12/26/2014  22:16:00        6.931       94.604      -18.435       10.222       12.508        6.952      104.480      156.445       48.325        0.482        0.015       94.858        5.429        0.003      330.813       -1.575      868.004
12/26/2014  22:17:00       13.781       93.221      -16.534       14.944       16.764       11.276      223.322      281.041      127.139        0.489        0.032       94.235       10.637        0.013      330.776       -1.636      868.003
12/26/2014  22:18:00        8.383       81.646      -11.206        9.956       11.682        9.083       99.131      136.472       82.501        0.359        0.016       82.075        5.264        0.004      330.733       -1.705      868.008
12/26/2014  22:19:00       -0.035       80.714      -12.053        8.410       10.484        6.164       70.724      109.909       37.993        0.344        0.011       80.714        3.437        0.002      330.788       -1.615      868.025
12/26/2014  22:20:00        7.967       75.796      -11.318       11.339       12.216        6.951      128.569      149.226       48.321        0.313        0.016       76.213        5.075        0.004      330.772       -1.641      868.039
12/26/2014  22:21:00       16.466       62.726       -7.857       13.364       22.682        8.672      178.591      514.470       75.211        0.252        0.038       64.851        9.043        0.019      330.676       -1.798      868.031
12/26/2014  22:22:00       -4.530       48.899       -8.468       12.947        7.181        6.370      167.633       51.566       40.580        0.137        0.013       49.108        5.097        0.011      330.671       -1.808      868.016
12/26/2014  22:23:00      -31.502        5.287       -8.332       15.378       22.544        8.927      236.471      508.221       79.689        0.096        0.041       31.942        8.239        0.067      330.286       -2.439      868.006
12/26/2014  22:24:00      -43.992      -12.639      -11.222        7.308       10.930        6.058       53.400      119.457       36.703        0.122        0.010       45.772        3.088        0.005      330.145       -2.671      868.008
12/26/2014  22:25:00      -59.957       -8.634      -11.176       14.193        9.908       11.480      201.445       98.161      131.791        0.211        0.022       60.576        1.923        0.001      330.104       -2.737      868.022
12/26/2014  22:26:00      -60.572        5.683      -15.556       11.322       16.500       12.504      128.177      272.252      156.358        0.225        0.028       60.838        3.523        0.003      329.917       -3.043      868.029
12/26/2014  22:27:00      -40.166       -6.810      -10.654       18.471       11.663        9.766      341.160      136.035       95.375        0.117        0.029       40.739       11.319        0.077      330.000       -2.909      868.031
12/26/2014  22:28:00      -12.965       19.364       -2.599       13.218       18.548        9.542      174.727      344.014       91.057        0.058        0.030       23.304       10.296        0.195      330.405       -2.242      868.013
12/26/2014  22:29:00       -6.632       13.585        3.559       11.181       10.132        7.333      125.018      102.655       53.773        0.026        0.014       15.117        6.113        0.164      330.345       -2.341      867.998
12/26/2014  22:30:00       -1.816        4.270        1.438        7.212       12.107        6.281       52.008      146.585       39.456        0.013        0.012        4.641        5.132        1.223      330.349       -2.335      867.986
12/26/2014  22:31:00      -15.985       -1.134       -4.606       13.597       10.877        9.451      184.866      118.318       89.320        0.034        0.020       16.025        5.651        0.124      330.173       -2.626      867.978
12/26/2014  22:32:00      -15.441       -7.344       -4.162       17.550       10.729        9.448      307.994      115.105       89.266        0.041        0.026       17.099        9.623        0.317      330.145       -2.671      867.971
12/26/2014  22:33:00      -37.152      -17.893       -3.348       11.386       11.848       12.155      129.643      140.371      147.733        0.106        0.021       41.236        2.651        0.004      329.817       -3.207      867.974
12/26/2014  22:34:00      -60.779      -18.261      -10.710       11.023       15.858        9.459      121.507      251.461       89.469        0.230        0.023       63.463        7.338        0.013      329.835       -3.178      867.988
12/26/2014  22:35:00      -66.527       -4.304       -7.868       15.989       15.416       10.713      255.632      237.664      114.762        0.256        0.030       66.666        4.101        0.004      329.764       -3.294      868.006
12/26/2014  22:36:00      -65.062        0.249      -17.520       19.510       15.826       10.194      380.640      250.478      103.912        0.264        0.037       65.063        9.452        0.021      329.785       -3.258      868.021
12/26/2014  22:37:00      -54.606      -10.779      -11.606        9.743       11.618        6.926       94.926      134.978       47.975        0.176        0.014       55.660        7.343        0.017      329.874       -3.114      868.033
12/26/2014  22:38:00      -47.730      -14.943       -6.203        7.647       13.090        7.607       58.470      171.341       57.873        0.141        0.014       50.015        5.101        0.010      329.893       -3.082      868.048
12/26/2014  22:39:00      -18.958      -10.630       -5.891       12.468        6.812        4.801      155.439       46.399       23.053        0.037        0.011       21.735        2.837        0.017      329.966       -2.964      868.049
12/26/2014  22:40:00        8.146       18.069       -1.028       17.931       10.699        7.558      321.526      114.462       57.124        0.044        0.025       19.820        7.816        0.155      330.356       -2.323      868.038
12/26/2014  22:41:00       18.279       39.595        0.755       10.808        9.310        6.254      116.814       86.674       39.114        0.107        0.012       43.610        4.342        0.010      330.432       -2.199      868.035
12/26/2014  22:42:00       28.803       44.872       -7.399       19.793       14.737       11.188      391.771      217.168      125.168        0.182        0.037       53.321        3.420        0.004      330.523       -2.051      868.033
12/26/2014  22:43:00       22.603       38.342       -7.938       17.106       20.759        9.519      292.610      430.943       90.610        0.143        0.041       44.509        8.091        0.033      330.449       -2.171      868.047
12/26/2014  22:44:00       14.370       51.569       -7.646       12.065       19.148       10.643      145.573      366.658      113.275        0.177        0.031       53.534       11.469        0.046      330.456       -2.159      868.077
12/26/2014  22:45:00       -4.367       56.996       -7.955       13.930       13.030        7.632      194.039      169.778       58.253        0.188        0.021       57.163        7.749        0.018      330.536       -2.027      868.120
12/26/2014  22:46:00      -60.832      -14.039       -6.961       21.617       29.163        8.212      467.282      850.465       67.434        0.267        0.069       62.430        7.147        0.013      329.955       -2.980      868.162
12/26/2014  22:47:00     -114.348      -25.079      -17.552       15.473       14.439        9.803      239.408      208.477       96.097        0.728        0.027      117.066        4.271        0.001      329.644       -3.489      868.194
12/26/2014  22:48:00     -105.555      -26.575       -5.896       17.341       19.965       11.150      300.696      398.609      124.333        0.635        0.041      108.849        3.965        0.001      329.570       -3.610      868.231
12/26/2014  22:49:00     -114.537      -18.322      -16.937       23.684       17.943       17.699      560.930      321.951      313.246        0.747        0.060      115.993       11.723        0.010      329.506       -3.715      868.267
12/26/2014  22:50:00     -114.258       -9.683      -15.369       33.274       15.541       12.904     1107.176      241.515      166.506        0.745        0.076      114.667       12.911        0.013      329.552       -3.639      868.299
12/26/2014  22:51:00      -98.126       -0.678      -16.333       26.393       15.041       13.206      696.592      226.242      174.387        0.550        0.055       98.128        9.691        0.010      329.577       -3.599      868.321
12/26/2014  22:52:00      -73.182       -4.780      -10.831       14.673       11.226       12.245      215.294      126.019      149.937        0.299        0.025       73.338        9.175        0.016      329.657       -3.469      868.329
12/26/2014  22:53:00      -50.650        7.962      -11.301       19.609        9.041        8.002      384.495       81.741       64.035        0.164        0.027       51.272        7.978        0.024      329.953       -2.984      868.329
12/26/2014  22:54:00      -24.816       16.678       -7.086       14.052       18.062        9.615      197.457      326.234       92.446        0.078        0.031       29.899        6.396        0.046      330.107       -2.731      868.324
12/26/2014  22:55:00       22.399       23.222       -3.508       11.708        9.786        8.773      137.084       95.768       76.962        0.068        0.015       32.264        8.324        0.067      330.571       -1.972      868.324
12/26/2014  22:56:00       -0.645        0.360        7.442       10.417        9.379        6.153      108.508       87.968       37.858        0.015        0.012        0.739        3.253       19.400      330.366       -2.307      868.347
12/26/2014  22:57:00      -52.653      -20.816      -11.708       20.174       15.683       10.397      406.974      245.947      108.091        0.205        0.038       56.619       11.135        0.039      329.890       -3.089      868.387
12/26/2014  22:58:00      -80.632       -8.997      -12.755       16.606       21.059       12.955      275.753      443.487      167.830        0.382        0.044       81.133        9.886        0.015      329.623       -3.525      868.444
12/26/2014  22:59:00      -86.238       -6.675       -9.494       45.860       23.383       15.236     2103.151      546.748      232.122        0.523        0.144       86.496       13.153        0.023      329.514       -3.702      868.502
12/26/2014  23:00:00     -114.172        2.323      -16.463       40.405       28.634       20.230     1632.604      819.924      409.235        0.809        0.143      114.195       22.324        0.038      329.355       -3.963      868.542
12/26/2014  23:01:00      -77.887        8.594      -10.413       47.152       35.755       26.906     2223.272     1278.403      723.936        0.524        0.211       78.359       25.340        0.105      329.442       -3.820      868.558
12/26/2014  23:02:00      -73.562       38.209      -17.143       30.501       28.564       18.921      930.311      815.901      358.002        0.463        0.105       82.894       13.221        0.025      329.630       -3.512      868.557
12/26/2014  23:03:00      -45.830       -5.694      -11.664       20.847       12.547       10.891      434.605      157.439      118.614        0.149        0.036       46.182       10.053        0.047      329.559       -3.631      868.545
12/26/2014  23:04:00      -28.927      -14.017       -2.914       20.021       14.015       12.284      400.852      196.410      150.884        0.089        0.037       32.144        8.392        0.068      329.482       -3.755      868.531
12/26/2014  23:05:00      -34.390      -17.121       -2.991       13.399       13.275        7.328      179.531      176.219       53.697        0.095        0.020       38.416        4.644        0.015      329.520       -3.694      868.530
12/26/2014  23:06:00      -40.093       -2.831       -9.236       20.822       16.516       13.255      433.552      272.765      175.687        0.129        0.044       40.193       14.148        0.124      329.623       -3.525      868.532
12/26/2014  23:07:00       -9.673      -10.169       -0.595       17.436       11.276        6.394      304.025      127.154       40.881        0.033        0.024       14.034        4.618        0.108      329.881       -3.101      868.538
12/26/2014  23:08:00      -36.388      -27.978       -5.620       21.479       19.925       10.132      461.353      397.014      102.663        0.155        0.048       45.901        6.110        0.018      329.694       -3.408      868.555
12/26/2014  23:09:00      -54.304      -19.235      -11.160       17.906       24.545       14.827      320.619      602.437      219.850        0.229        0.057       57.610        9.372        0.026      329.572       -3.608      868.564
12/26/2014  23:10:00      -62.632       -9.138       -8.299       16.971       11.241        8.378      288.025      126.354       70.189        0.228        0.024       63.295        5.697        0.008      329.439       -3.825      868.573
12/26/2014  23:11:00      -70.246      -16.306      -10.093       16.073       10.590       11.822      258.325      112.152      139.754        0.291        0.026       72.113        9.426        0.017      329.428       -3.845      868.586
12/26/2014  23:12:00      -82.693       -6.740       -9.935       14.337        9.903        8.608      205.553       98.079       74.100        0.368        0.019       82.967        5.829        0.005      329.395       -3.898      868.591
12/26/2014  23:13:00      -69.886      -16.302      -13.809       16.915       15.995       12.600      286.106      255.856      158.763        0.302        0.035       71.762       12.526        0.030      329.484       -3.751      868.589
12/26/2014  23:14:00      -52.252      -29.971      -18.871       15.703       17.756       14.326      246.583      315.267      205.229        0.238        0.038       60.238       12.164        0.041      329.526       -3.682      868.602
12/26/2014  23:15:00      -59.745      -49.910       -7.898       18.532       23.116       15.349      343.441      534.362      235.591        0.362        0.056       77.849       10.570        0.018      329.529       -3.676      868.611
12/26/2014  23:16:00      -95.602      -26.265      -18.530       15.449        8.916       13.448      238.659       79.487      180.838        0.534        0.025       99.144       10.661        0.012      329.482       -3.754      868.634
12/26/2014  23:17:00      -90.462      -21.351      -10.791       19.251       19.300       23.743      370.592      372.506      563.713        0.503        0.065       92.947       13.349        0.021      329.396       -3.897      868.653
12/26/2014  23:18:00     -120.170       -5.741      -18.968       22.011       22.684       12.961      484.492      514.580      167.977        0.800        0.058      120.307        6.935        0.003      329.367       -3.943      868.677
12/26/2014  23:19:00      -84.165      -12.008       -5.788       37.506       25.377       20.001     1406.669      643.994      400.026        0.486        0.123       85.017       20.489        0.058      329.311       -4.034      868.702
12/26/2014  23:20:00      -82.551        1.761      -12.784       36.624       35.850       21.173     1341.350     1285.200      448.311        0.503        0.154       82.570       18.309        0.049      329.367       -3.943      868.725
12/26/2014  23:21:00      -43.483       -4.287       -2.078       39.770       32.654       19.543     1581.683     1066.272      381.913        0.247        0.151       43.694       19.746        0.204      329.387       -3.911      868.741
12/26/2014  23:22:00      -44.635       -9.772        3.459       35.090       27.948       21.327     1231.308      781.101      454.845        0.228        0.123       45.692       16.955        0.138      329.373       -3.933      868.764
12/26/2014  23:23:00      -93.878      -29.803      -10.156       40.151       26.778       16.023     1612.131      717.064      256.746        0.619        0.129       98.495       14.180        0.021      329.401       -3.888      868.767
12/26/2014  23:24:00      -93.174      -21.050      -10.882       23.759       29.817       19.488      564.509      889.028      379.776        0.554        0.092       95.522       11.545        0.015      329.393       -3.900      868.754
12/26/2014  23:25:00      -52.656      -41.822       -6.206       22.464       13.653       19.443      504.629      186.400      378.017        0.281        0.053       67.244       14.689        0.048      329.417       -3.861      868.738
12/26/2014  23:26:00      -24.716      -25.378       -1.875       14.402       16.795       13.556      207.423      282.055      183.771        0.097        0.034       35.425        6.980        0.039      329.410       -3.872      868.725
12/26/2014  23:27:00      -54.790      -19.146      -13.275       17.477       11.027       13.244      305.431      121.588      175.413        0.207        0.030       58.039        8.932        0.024      329.482       -3.755      868.705
12/26/2014  23:28:00      -89.930      -33.786      -20.501       18.955       13.957       12.366      359.292      194.804      152.921        0.518        0.035       96.067       10.248        0.011      329.476       -3.765      868.671
12/26/2014  23:29:00     -112.537      -34.393      -17.924       22.954       23.932       11.892      526.894      572.736      141.424        0.770        0.062      117.675        7.113        0.004      329.373       -3.933      868.669
12/26/2014  23:30:00      -80.069      -71.768      -12.371       20.058       17.831       19.914      402.303      317.962      396.556        0.642        0.056      107.525       11.034        0.011      329.364       -3.948      868.676
12/26/2014  23:31:00     -113.241      -57.350      -15.945       19.800       20.032       15.634      392.032      401.293      244.410        0.870        0.052      126.936        8.450        0.004      329.351       -3.968      868.697
12/26/2014  23:32:00     -111.672      -42.357      -12.952       25.360       25.453       16.751      643.107      647.839      280.598        0.800        0.079      119.435       10.222        0.007      329.422       -3.853      868.709
12/26/2014  23:33:00     -103.545      -33.997       -9.470       16.591       13.206       10.404      275.251      174.408      108.253        0.626        0.028      108.983        7.661        0.005      329.442       -3.821      868.703
12/26/2014  23:34:00      -79.448      -38.014       -6.502       20.657       16.137       11.319      426.698      260.407      128.111        0.431        0.041       88.074        7.747        0.008      329.483       -3.753      868.691
12/26/2014  23:35:00      -85.279      -42.921       -5.055       17.444       14.656       12.398      304.278      214.793      153.713        0.491        0.034       95.471       10.528        0.012      329.510       -3.710      868.675
12/26/2014  23:36:00      -90.784      -47.830       -6.989       21.129       14.114       16.372      446.440      199.210      268.028        0.575        0.046      102.613       15.143        0.022      329.548       -3.647      868.668
12/26/2014  23:37:00     -101.464      -47.256       -5.836       13.964       14.681       13.581      194.981      215.525      184.432        0.658        0.030      111.929        8.214        0.005      329.525       -3.683      868.652
12/26/2014  23:38:00     -134.087      -55.129       -2.372       43.141       25.679       17.793     1861.118      659.422      316.585        1.193        0.142      144.978       13.881        0.009      329.458       -3.795      868.646
12/26/2014  23:39:00     -151.526      -46.512       -4.821       52.132       28.024       18.849     2717.741      785.365      355.272        1.450        0.193      158.504       15.786        0.010      329.413       -3.869      868.654
12/26/2014  23:40:00      -86.842      -86.683       -1.808       63.481       53.693       28.401     4029.808     2882.912      806.603        1.139        0.386      122.701       20.773        0.029      329.374       -3.933      868.683
12/26/2014  23:41:00     -170.112      -97.471      -10.810       50.178       43.086       27.245     2517.834     1856.437      742.278        2.184        0.256      196.058       18.545        0.009      329.377       -3.928      868.699
12/26/2014  23:42:00     -143.296      -31.471      -11.551       48.313       27.170       20.862     2334.133      738.182      435.239        1.258        0.175      146.711       17.772        0.015      329.391       -3.904      868.692
12/26/2014  23:43:00     -103.962      -26.833      -11.652       32.336       26.673       18.203     1045.628      711.457      331.344        0.688        0.104      107.369       15.188        0.020      329.385       -3.913      868.655
12/26/2014  23:44:00     -100.294      -14.479       -2.458       32.995       26.560       19.284     1088.655      705.408      371.870        0.622        0.108      101.333       17.769        0.031      329.325       -4.011      868.623
12/26/2014  23:45:00     -116.525      -14.950       -3.018       33.720       27.312       22.471     1137.061      745.925      504.932        0.810        0.119      117.480       19.348        0.027      329.239       -4.153      868.593
12/26/2014  23:46:00     -112.408      -27.030       -3.085       37.032       25.519       21.750     1371.361      651.219      473.045        0.794        0.125      115.613       22.147        0.037      329.211       -4.197      868.557
12/26/2014  23:47:00     -120.523      -34.532       -7.035       26.975       26.899       15.997      727.627      723.559      255.904        0.874        0.085      125.372       13.696        0.012      329.200       -4.216      868.521
12/26/2014  23:48:00     -104.098      -19.103       -8.291       22.150       17.492       17.863      490.642      305.979      319.096        0.619        0.056      105.837       10.843        0.010      329.280       -4.084      868.501
12/26/2014  23:49:00      -91.050      -22.779       -6.430       20.475       30.806       18.675      419.237      949.002      348.757        0.528        0.086       93.856       13.833        0.022      329.312       -4.031      868.474
12/26/2014  23:50:00      -88.145      -27.057       -9.079       15.424       21.265       13.592      237.913      452.185      184.730        0.473        0.044       92.204        7.678        0.007      329.273       -4.097      868.429
12/26/2014  23:51:00      -79.140      -14.999       -6.018       40.826       25.189       21.114     1666.798      634.467      445.804        0.464        0.137       80.549       22.004        0.075      329.174       -4.260      868.386
12/26/2014  23:52:00      -78.684      -12.593        0.023       29.895       23.037       16.571      893.721      530.714      274.613        0.402        0.085       79.686       14.796        0.034      329.248       -4.137      868.349
12/26/2014  23:53:00      -71.064      -41.611       -6.340       51.299       25.458       23.718     2631.575      648.108      562.563        0.533        0.192       82.350       29.725        0.130      329.313       -4.032      868.326
12/26/2014  23:54:00      -79.775      -13.571       -9.341       20.374       17.386       15.626      415.107      302.265      244.177        0.380        0.048       80.921        4.581        0.003      329.347       -3.976      868.302
12/26/2014  23:55:00      -21.499      -19.223       -2.799       26.040       19.260       18.589      678.091      370.935      345.560        0.112        0.070       28.840       16.452        0.325      329.341       -3.986      868.282
12/26/2014  23:56:00       -8.825      -30.859       -5.569       28.190       24.808       17.033      794.669      615.441      290.109        0.138        0.085       32.096       10.991        0.117      329.265       -4.111      868.270
12/26/2014  23:57:00      -77.010       -3.039      -15.212       25.738       25.450       12.100      662.434      647.695      146.403        0.381        0.073       77.070        8.171        0.011      329.230       -4.166      868.267
12/26/2014  23:58:00      -72.981      -12.074      -11.235       20.344       19.187       12.954      413.875      368.140      167.799        0.327        0.047       73.973       10.491        0.020      329.145       -4.306      868.256
12/26/2014  23:59:00      -59.071      -29.629       -9.886       13.568       12.246       11.452      184.087      149.959      131.157        0.246        0.023       66.085        8.130        0.015      329.309       -4.036      868.234
